<?xml version="1.0" encoding="UTF-8" standalone="no" ?>
<gpx xmlns="http://www.topografix.com/GPX/1/1" xmlns:xsi="http://www.w3.org/2001/XMLSchema-instance" xsi:schemaLocation="http://www.topografix.com/GPX/1/1 http://www.topografix.com/GPX/1/1/gpx.xsd" version="1.1" creator="VisuGPX - https://www.visugpx.com">
  <metadata>
    <name>Die croix de Justin</name>
    <desc><![CDATA[File with points/tracks from Locus Map/3.25.5]]></desc>
  </metadata>
  <trk>
    <name><![CDATA[F26150 Die croix de Justin MJC LT]]></name>
    <trkseg>
      <trkpt lat="44.75134" lon="5.37298">
        <ele>404.89</ele>
        <time>2017-10-10T07:27:20.000Z</time>
      </trkpt>
      <trkpt lat="44.75135" lon="5.37298">
        <ele>404.95</ele>
        <time>2017-10-10T07:29:06.000Z</time>
      </trkpt>
      <trkpt lat="44.75141" lon="5.37277">
        <ele>405.96</ele>
        <time>2017-10-10T07:30:03.000Z</time>
      </trkpt>
      <trkpt lat="44.75155" lon="5.37181">
        <ele>413.94</ele>
        <time>2017-10-10T07:30:13.000Z</time>
      </trkpt>
      <trkpt lat="44.75144" lon="5.37148">
        <ele>414.4</ele>
        <time>2017-10-10T07:30:23.000Z</time>
      </trkpt>
      <trkpt lat="44.75149" lon="5.37134">
        <ele>415.58</ele>
        <time>2017-10-10T07:30:33.000Z</time>
      </trkpt>
      <trkpt lat="44.75159" lon="5.37122">
        <ele>417.31</ele>
        <time>2017-10-10T07:30:43.000Z</time>
      </trkpt>
      <trkpt lat="44.75173" lon="5.37122">
        <ele>418.53</ele>
        <time>2017-10-10T07:30:53.000Z</time>
      </trkpt>
      <trkpt lat="44.75181" lon="5.37124">
        <ele>418.93</ele>
        <time>2017-10-10T07:31:03.000Z</time>
      </trkpt>
      <trkpt lat="44.75186" lon="5.37122">
        <ele>419.23</ele>
        <time>2017-10-10T07:31:13.000Z</time>
      </trkpt>
      <trkpt lat="44.75195" lon="5.37113">
        <ele>419.89</ele>
        <time>2017-10-10T07:31:23.000Z</time>
      </trkpt>
      <trkpt lat="44.75208" lon="5.371">
        <ele>420.53</ele>
        <time>2017-10-10T07:31:33.000Z</time>
      </trkpt>
      <trkpt lat="44.75161" lon="5.36975">
        <ele>415.78</ele>
        <time>2017-10-10T07:33:37.000Z</time>
      </trkpt>
      <trkpt lat="44.75166" lon="5.36955">
        <ele>414.35</ele>
        <time>2017-10-10T07:33:47.000Z</time>
      </trkpt>
      <trkpt lat="44.75161" lon="5.36939">
        <ele>412.33</ele>
        <time>2017-10-10T07:33:57.000Z</time>
      </trkpt>
      <trkpt lat="44.75166" lon="5.36923">
        <ele>411.48</ele>
        <time>2017-10-10T07:34:07.000Z</time>
      </trkpt>
      <trkpt lat="44.75163" lon="5.36909">
        <ele>410.11</ele>
        <time>2017-10-10T07:34:17.000Z</time>
      </trkpt>
      <trkpt lat="44.75164" lon="5.36905">
        <ele>409.91</ele>
        <time>2017-10-10T07:34:27.000Z</time>
      </trkpt>
      <trkpt lat="44.75163" lon="5.36907">
        <ele>409.95</ele>
        <time>2017-10-10T07:34:37.000Z</time>
      </trkpt>
      <trkpt lat="44.75162" lon="5.36906">
        <ele>409.81</ele>
        <time>2017-10-10T07:34:47.000Z</time>
      </trkpt>
      <trkpt lat="44.75161" lon="5.36901">
        <ele>409.4</ele>
        <time>2017-10-10T07:35:20.000Z</time>
      </trkpt>
      <trkpt lat="44.75151" lon="5.36871">
        <ele>406.65</ele>
        <time>2017-10-10T07:35:31.000Z</time>
      </trkpt>
      <trkpt lat="44.75139" lon="5.36859">
        <ele>405.19</ele>
        <time>2017-10-10T07:35:41.000Z</time>
      </trkpt>
      <trkpt lat="44.75129" lon="5.36842">
        <ele>403.86</ele>
        <time>2017-10-10T07:35:51.000Z</time>
      </trkpt>
      <trkpt lat="44.75121" lon="5.36831">
        <ele>403.09</ele>
        <time>2017-10-10T07:36:01.000Z</time>
      </trkpt>
      <trkpt lat="44.75111" lon="5.36817">
        <ele>402.49</ele>
        <time>2017-10-10T07:36:11.000Z</time>
      </trkpt>
      <trkpt lat="44.75105" lon="5.36811">
        <ele>402.19</ele>
        <time>2017-10-10T07:36:21.000Z</time>
      </trkpt>
      <trkpt lat="44.75096" lon="5.36792">
        <ele>402.03</ele>
        <time>2017-10-10T07:36:31.000Z</time>
      </trkpt>
      <trkpt lat="44.75092" lon="5.36779">
        <ele>402.09</ele>
        <time>2017-10-10T07:36:41.000Z</time>
      </trkpt>
      <trkpt lat="44.75081" lon="5.36769">
        <ele>401.73</ele>
        <time>2017-10-10T07:36:51.000Z</time>
      </trkpt>
      <trkpt lat="44.7507" lon="5.36765">
        <ele>401.3</ele>
        <time>2017-10-10T07:37:01.000Z</time>
      </trkpt>
      <trkpt lat="44.75064" lon="5.36769">
        <ele>400.94</ele>
        <time>2017-10-10T07:37:11.000Z</time>
      </trkpt>
      <trkpt lat="44.75046" lon="5.36763">
        <ele>400.09</ele>
        <time>2017-10-10T07:37:21.000Z</time>
      </trkpt>
      <trkpt lat="44.75035" lon="5.36766">
        <ele>399.53</ele>
        <time>2017-10-10T07:37:31.000Z</time>
      </trkpt>
      <trkpt lat="44.75033" lon="5.36783">
        <ele>399.21</ele>
        <time>2017-10-10T07:37:41.000Z</time>
      </trkpt>
      <trkpt lat="44.75018" lon="5.3678">
        <ele>398.57</ele>
        <time>2017-10-10T07:37:51.000Z</time>
      </trkpt>
      <trkpt lat="44.75007" lon="5.36766">
        <ele>398.32</ele>
        <time>2017-10-10T07:38:01.000Z</time>
      </trkpt>
      <trkpt lat="44.7499" lon="5.36753">
        <ele>397.57</ele>
        <time>2017-10-10T07:38:11.000Z</time>
      </trkpt>
      <trkpt lat="44.74981" lon="5.36761">
        <ele>397.17</ele>
        <time>2017-10-10T07:38:21.000Z</time>
      </trkpt>
      <trkpt lat="44.7498" lon="5.36786">
        <ele>397.15</ele>
        <time>2017-10-10T07:38:31.000Z</time>
      </trkpt>
      <trkpt lat="44.74967" lon="5.36776">
        <ele>396.61</ele>
        <time>2017-10-10T07:38:41.000Z</time>
      </trkpt>
      <trkpt lat="44.74961" lon="5.36761">
        <ele>396.09</ele>
        <time>2017-10-10T07:38:51.000Z</time>
      </trkpt>
      <trkpt lat="44.74966" lon="5.36754">
        <ele>396.27</ele>
        <time>2017-10-10T07:39:01.000Z</time>
      </trkpt>
      <trkpt lat="44.74963" lon="5.36743">
        <ele>395.95</ele>
        <time>2017-10-10T07:39:11.000Z</time>
      </trkpt>
      <trkpt lat="44.74964" lon="5.3674">
        <ele>395.96</ele>
        <time>2017-10-10T07:39:21.000Z</time>
      </trkpt>
      <trkpt lat="44.74962" lon="5.36737">
        <ele>395.82</ele>
        <time>2017-10-10T07:39:31.000Z</time>
      </trkpt>
      <trkpt lat="44.74963" lon="5.36738">
        <ele>395.87</ele>
        <time>2017-10-10T07:39:41.000Z</time>
      </trkpt>
      <trkpt lat="44.74966" lon="5.36734">
        <ele>395.94</ele>
        <time>2017-10-10T07:39:57.000Z</time>
      </trkpt>
      <trkpt lat="44.74957" lon="5.36731">
        <ele>395.51</ele>
        <time>2017-10-10T07:40:07.000Z</time>
      </trkpt>
      <trkpt lat="44.74953" lon="5.36716">
        <ele>395.22</ele>
        <time>2017-10-10T07:40:17.000Z</time>
      </trkpt>
      <trkpt lat="44.74954" lon="5.36705">
        <ele>395.16</ele>
        <time>2017-10-10T07:40:27.000Z</time>
      </trkpt>
      <trkpt lat="44.74962" lon="5.36688">
        <ele>395.04</ele>
        <time>2017-10-10T07:40:37.000Z</time>
      </trkpt>
      <trkpt lat="44.74971" lon="5.36691">
        <ele>395.18</ele>
        <time>2017-10-10T07:40:47.000Z</time>
      </trkpt>
      <trkpt lat="44.74979" lon="5.36675">
        <ele>394.92</ele>
        <time>2017-10-10T07:40:57.000Z</time>
      </trkpt>
      <trkpt lat="44.74986" lon="5.36671">
        <ele>394.9</ele>
        <time>2017-10-10T07:41:07.000Z</time>
      </trkpt>
      <trkpt lat="44.74988" lon="5.36657">
        <ele>394.59</ele>
        <time>2017-10-10T07:41:17.000Z</time>
      </trkpt>
      <trkpt lat="44.74989" lon="5.36647">
        <ele>394.36</ele>
        <time>2017-10-10T07:41:27.000Z</time>
      </trkpt>
      <trkpt lat="44.74992" lon="5.3664">
        <ele>394.19</ele>
        <time>2017-10-10T07:41:37.000Z</time>
      </trkpt>
      <trkpt lat="44.74994" lon="5.36634">
        <ele>394.05</ele>
        <time>2017-10-10T07:41:47.000Z</time>
      </trkpt>
      <trkpt lat="44.74995" lon="5.36636">
        <ele>394.09</ele>
        <time>2017-10-10T07:41:57.000Z</time>
      </trkpt>
      <trkpt lat="44.75" lon="5.36636">
        <ele>394.11</ele>
        <time>2017-10-10T07:42:07.000Z</time>
      </trkpt>
      <trkpt lat="44.74997" lon="5.36627">
        <ele>393.87</ele>
        <time>2017-10-10T07:42:17.000Z</time>
      </trkpt>
      <trkpt lat="44.74999" lon="5.36614">
        <ele>393.55</ele>
        <time>2017-10-10T07:42:27.000Z</time>
      </trkpt>
      <trkpt lat="44.75003" lon="5.36604">
        <ele>393.31</ele>
        <time>2017-10-10T07:42:37.000Z</time>
      </trkpt>
      <trkpt lat="44.75011" lon="5.36586">
        <ele>393</ele>
        <time>2017-10-10T07:42:47.000Z</time>
      </trkpt>
      <trkpt lat="44.75011" lon="5.36563">
        <ele>392.63</ele>
        <time>2017-10-10T07:42:57.000Z</time>
      </trkpt>
      <trkpt lat="44.7501" lon="5.36542">
        <ele>392.4</ele>
        <time>2017-10-10T07:43:07.000Z</time>
      </trkpt>
      <trkpt lat="44.75016" lon="5.36524">
        <ele>392.2</ele>
        <time>2017-10-10T07:43:17.000Z</time>
      </trkpt>
      <trkpt lat="44.7502" lon="5.36506">
        <ele>392.03</ele>
        <time>2017-10-10T07:43:27.000Z</time>
      </trkpt>
      <trkpt lat="44.75026" lon="5.36496">
        <ele>391.89</ele>
        <time>2017-10-10T07:43:37.000Z</time>
      </trkpt>
      <trkpt lat="44.75029" lon="5.36479">
        <ele>391.66</ele>
        <time>2017-10-10T07:43:47.000Z</time>
      </trkpt>
      <trkpt lat="44.75035" lon="5.36463">
        <ele>391.41</ele>
        <time>2017-10-10T07:43:57.000Z</time>
      </trkpt>
      <trkpt lat="44.75045" lon="5.36449">
        <ele>391.25</ele>
        <time>2017-10-10T07:44:07.000Z</time>
      </trkpt>
      <trkpt lat="44.75053" lon="5.36423">
        <ele>391.17</ele>
        <time>2017-10-10T07:44:17.000Z</time>
      </trkpt>
      <trkpt lat="44.75061" lon="5.36412">
        <ele>391.19</ele>
        <time>2017-10-10T07:44:27.000Z</time>
      </trkpt>
      <trkpt lat="44.7507" lon="5.36395">
        <ele>391.06</ele>
        <time>2017-10-10T07:44:37.000Z</time>
      </trkpt>
      <trkpt lat="44.75071" lon="5.36378">
        <ele>391.04</ele>
        <time>2017-10-10T07:44:47.000Z</time>
      </trkpt>
      <trkpt lat="44.75074" lon="5.36378">
        <ele>390.95</ele>
        <time>2017-10-10T07:44:57.000Z</time>
      </trkpt>
      <trkpt lat="44.75077" lon="5.36381">
        <ele>390.83</ele>
        <time>2017-10-10T07:45:07.000Z</time>
      </trkpt>
      <trkpt lat="44.7508" lon="5.36379">
        <ele>390.7</ele>
        <time>2017-10-10T07:45:17.000Z</time>
      </trkpt>
      <trkpt lat="44.75081" lon="5.36381">
        <ele>390.67</ele>
        <time>2017-10-10T07:45:27.000Z</time>
      </trkpt>
      <trkpt lat="44.75094" lon="5.3637">
        <ele>390.18</ele>
        <time>2017-10-10T07:45:37.000Z</time>
      </trkpt>
      <trkpt lat="44.75117" lon="5.36354">
        <ele>390.05</ele>
        <time>2017-10-10T07:45:47.000Z</time>
      </trkpt>
      <trkpt lat="44.7513" lon="5.36357">
        <ele>390.27</ele>
        <time>2017-10-10T07:45:57.000Z</time>
      </trkpt>
      <trkpt lat="44.75143" lon="5.36353">
        <ele>390.56</ele>
        <time>2017-10-10T07:46:07.000Z</time>
      </trkpt>
      <trkpt lat="44.75156" lon="5.36358">
        <ele>390.77</ele>
        <time>2017-10-10T07:46:17.000Z</time>
      </trkpt>
      <trkpt lat="44.75171" lon="5.36363">
        <ele>390.8</ele>
        <time>2017-10-10T07:46:27.000Z</time>
      </trkpt>
      <trkpt lat="44.75184" lon="5.36368">
        <ele>390.77</ele>
        <time>2017-10-10T07:46:37.000Z</time>
      </trkpt>
      <trkpt lat="44.75199" lon="5.36369">
        <ele>390.72</ele>
        <time>2017-10-10T07:46:47.000Z</time>
      </trkpt>
      <trkpt lat="44.75223" lon="5.36357">
        <ele>390.45</ele>
        <time>2017-10-10T07:46:57.000Z</time>
      </trkpt>
      <trkpt lat="44.75233" lon="5.36364">
        <ele>390.45</ele>
        <time>2017-10-10T07:47:07.000Z</time>
      </trkpt>
      <trkpt lat="44.75243" lon="5.36367">
        <ele>390.42</ele>
        <time>2017-10-10T07:47:17.000Z</time>
      </trkpt>
      <trkpt lat="44.75258" lon="5.36372">
        <ele>390.37</ele>
        <time>2017-10-10T07:47:27.000Z</time>
      </trkpt>
      <trkpt lat="44.7527" lon="5.36381">
        <ele>390.4</ele>
        <time>2017-10-10T07:47:37.000Z</time>
      </trkpt>
      <trkpt lat="44.75283" lon="5.36382">
        <ele>390.27</ele>
        <time>2017-10-10T07:47:47.000Z</time>
      </trkpt>
      <trkpt lat="44.75292" lon="5.36389">
        <ele>390.26</ele>
        <time>2017-10-10T07:47:57.000Z</time>
      </trkpt>
      <trkpt lat="44.75311" lon="5.36379">
        <ele>389.8</ele>
        <time>2017-10-10T07:48:07.000Z</time>
      </trkpt>
      <trkpt lat="44.75322" lon="5.36365">
        <ele>389.43</ele>
        <time>2017-10-10T07:48:17.000Z</time>
      </trkpt>
      <trkpt lat="44.75334" lon="5.36361">
        <ele>389.25</ele>
        <time>2017-10-10T07:48:27.000Z</time>
      </trkpt>
      <trkpt lat="44.75348" lon="5.36362">
        <ele>389.13</ele>
        <time>2017-10-10T07:48:37.000Z</time>
      </trkpt>
      <trkpt lat="44.75356" lon="5.36348">
        <ele>389.01</ele>
        <time>2017-10-10T07:48:47.000Z</time>
      </trkpt>
      <trkpt lat="44.75371" lon="5.36342">
        <ele>388.99</ele>
        <time>2017-10-10T07:48:57.000Z</time>
      </trkpt>
      <trkpt lat="44.75384" lon="5.36339">
        <ele>389.01</ele>
        <time>2017-10-10T07:49:07.000Z</time>
      </trkpt>
      <trkpt lat="44.75393" lon="5.36321">
        <ele>389.07</ele>
        <time>2017-10-10T07:49:17.000Z</time>
      </trkpt>
      <trkpt lat="44.75406" lon="5.3631">
        <ele>389.09</ele>
        <time>2017-10-10T07:49:27.000Z</time>
      </trkpt>
      <trkpt lat="44.75416" lon="5.36304">
        <ele>389.08</ele>
        <time>2017-10-10T07:49:37.000Z</time>
      </trkpt>
      <trkpt lat="44.75424" lon="5.36302">
        <ele>389.04</ele>
        <time>2017-10-10T07:49:47.000Z</time>
      </trkpt>
      <trkpt lat="44.75434" lon="5.36292">
        <ele>388.98</ele>
        <time>2017-10-10T07:49:57.000Z</time>
      </trkpt>
      <trkpt lat="44.75446" lon="5.36288">
        <ele>388.92</ele>
        <time>2017-10-10T07:50:07.000Z</time>
      </trkpt>
      <trkpt lat="44.75454" lon="5.36276">
        <ele>388.96</ele>
        <time>2017-10-10T07:50:17.000Z</time>
      </trkpt>
      <trkpt lat="44.75463" lon="5.36262">
        <ele>389.03</ele>
        <time>2017-10-10T07:50:27.000Z</time>
      </trkpt>
      <trkpt lat="44.75476" lon="5.36257">
        <ele>389.05</ele>
        <time>2017-10-10T07:50:37.000Z</time>
      </trkpt>
      <trkpt lat="44.75481" lon="5.36248">
        <ele>389.07</ele>
        <time>2017-10-10T07:50:47.000Z</time>
      </trkpt>
      <trkpt lat="44.75491" lon="5.36244">
        <ele>389.02</ele>
        <time>2017-10-10T07:50:57.000Z</time>
      </trkpt>
      <trkpt lat="44.75496" lon="5.36254">
        <ele>389.02</ele>
        <time>2017-10-10T07:51:07.000Z</time>
      </trkpt>
      <trkpt lat="44.75493" lon="5.36269">
        <ele>388.9</ele>
        <time>2017-10-10T07:51:17.000Z</time>
      </trkpt>
      <trkpt lat="44.75497" lon="5.36289">
        <ele>388.57</ele>
        <time>2017-10-10T07:51:27.000Z</time>
      </trkpt>
      <trkpt lat="44.75492" lon="5.36307">
        <ele>388.27</ele>
        <time>2017-10-10T07:51:37.000Z</time>
      </trkpt>
      <trkpt lat="44.75501" lon="5.36329">
        <ele>388.01</ele>
        <time>2017-10-10T07:51:47.000Z</time>
      </trkpt>
      <trkpt lat="44.75506" lon="5.36341">
        <ele>388.03</ele>
        <time>2017-10-10T07:51:57.000Z</time>
      </trkpt>
      <trkpt lat="44.75509" lon="5.36356">
        <ele>388.17</ele>
        <time>2017-10-10T07:52:07.000Z</time>
      </trkpt>
      <trkpt lat="44.75513" lon="5.36371">
        <ele>388.41</ele>
        <time>2017-10-10T07:52:17.000Z</time>
      </trkpt>
      <trkpt lat="44.75518" lon="5.36385">
        <ele>388.67</ele>
        <time>2017-10-10T07:52:27.000Z</time>
      </trkpt>
      <trkpt lat="44.75523" lon="5.36402">
        <ele>389.01</ele>
        <time>2017-10-10T07:52:37.000Z</time>
      </trkpt>
      <trkpt lat="44.75523" lon="5.36418">
        <ele>389.24</ele>
        <time>2017-10-10T07:52:47.000Z</time>
      </trkpt>
      <trkpt lat="44.75527" lon="5.36433">
        <ele>389.42</ele>
        <time>2017-10-10T07:52:57.000Z</time>
      </trkpt>
      <trkpt lat="44.75526" lon="5.36442">
        <ele>389.48</ele>
        <time>2017-10-10T07:53:07.000Z</time>
      </trkpt>
      <trkpt lat="44.7553" lon="5.36458">
        <ele>389.62</ele>
        <time>2017-10-10T07:53:17.000Z</time>
      </trkpt>
      <trkpt lat="44.75533" lon="5.36471">
        <ele>389.73</ele>
        <time>2017-10-10T07:53:27.000Z</time>
      </trkpt>
      <trkpt lat="44.75536" lon="5.36483">
        <ele>389.89</ele>
        <time>2017-10-10T07:53:37.000Z</time>
      </trkpt>
      <trkpt lat="44.75541" lon="5.36502">
        <ele>390.31</ele>
        <time>2017-10-10T07:53:47.000Z</time>
      </trkpt>
      <trkpt lat="44.75546" lon="5.36516">
        <ele>390.72</ele>
        <time>2017-10-10T07:53:57.000Z</time>
      </trkpt>
      <trkpt lat="44.75549" lon="5.36537">
        <ele>391.55</ele>
        <time>2017-10-10T07:54:07.000Z</time>
      </trkpt>
      <trkpt lat="44.75554" lon="5.36547">
        <ele>392.11</ele>
        <time>2017-10-10T07:54:17.000Z</time>
      </trkpt>
      <trkpt lat="44.75557" lon="5.36547">
        <ele>392.23</ele>
        <time>2017-10-10T07:54:35.000Z</time>
      </trkpt>
      <trkpt lat="44.75572" lon="5.3655">
        <ele>392.98</ele>
        <time>2017-10-10T07:54:45.000Z</time>
      </trkpt>
      <trkpt lat="44.75574" lon="5.36539">
        <ele>392.42</ele>
        <time>2017-10-10T07:54:55.000Z</time>
      </trkpt>
      <trkpt lat="44.75576" lon="5.36523">
        <ele>391.71</ele>
        <time>2017-10-10T07:55:05.000Z</time>
      </trkpt>
      <trkpt lat="44.75582" lon="5.3651">
        <ele>391.32</ele>
        <time>2017-10-10T07:55:15.000Z</time>
      </trkpt>
      <trkpt lat="44.75583" lon="5.36498">
        <ele>390.92</ele>
        <time>2017-10-10T07:55:25.000Z</time>
      </trkpt>
      <trkpt lat="44.75587" lon="5.36479">
        <ele>390.61</ele>
        <time>2017-10-10T07:55:35.000Z</time>
      </trkpt>
      <trkpt lat="44.75587" lon="5.36462">
        <ele>390.38</ele>
        <time>2017-10-10T07:55:45.000Z</time>
      </trkpt>
      <trkpt lat="44.75593" lon="5.36443">
        <ele>390.48</ele>
        <time>2017-10-10T07:55:55.000Z</time>
      </trkpt>
      <trkpt lat="44.75599" lon="5.36427">
        <ele>390.57</ele>
        <time>2017-10-10T07:56:05.000Z</time>
      </trkpt>
      <trkpt lat="44.75604" lon="5.36415">
        <ele>390.58</ele>
        <time>2017-10-10T07:56:15.000Z</time>
      </trkpt>
      <trkpt lat="44.75604" lon="5.36396">
        <ele>390.29</ele>
        <time>2017-10-10T07:56:25.000Z</time>
      </trkpt>
      <trkpt lat="44.75605" lon="5.3638">
        <ele>390.1</ele>
        <time>2017-10-10T07:56:35.000Z</time>
      </trkpt>
      <trkpt lat="44.75616" lon="5.36367">
        <ele>390.2</ele>
        <time>2017-10-10T07:56:45.000Z</time>
      </trkpt>
      <trkpt lat="44.75613" lon="5.36351">
        <ele>389.88</ele>
        <time>2017-10-10T07:56:55.000Z</time>
      </trkpt>
      <trkpt lat="44.75612" lon="5.36335">
        <ele>389.63</ele>
        <time>2017-10-10T07:57:05.000Z</time>
      </trkpt>
      <trkpt lat="44.7562" lon="5.36321">
        <ele>389.65</ele>
        <time>2017-10-10T07:57:15.000Z</time>
      </trkpt>
      <trkpt lat="44.75621" lon="5.36305">
        <ele>389.46</ele>
        <time>2017-10-10T07:57:25.000Z</time>
      </trkpt>
      <trkpt lat="44.75625" lon="5.36291">
        <ele>389.41</ele>
        <time>2017-10-10T07:57:35.000Z</time>
      </trkpt>
      <trkpt lat="44.75634" lon="5.36275">
        <ele>389.53</ele>
        <time>2017-10-10T07:57:45.000Z</time>
      </trkpt>
      <trkpt lat="44.75637" lon="5.36258">
        <ele>389.41</ele>
        <time>2017-10-10T07:57:55.000Z</time>
      </trkpt>
      <trkpt lat="44.75641" lon="5.36237">
        <ele>389.19</ele>
        <time>2017-10-10T07:58:05.000Z</time>
      </trkpt>
      <trkpt lat="44.7565" lon="5.36232">
        <ele>389.3</ele>
        <time>2017-10-10T07:58:15.000Z</time>
      </trkpt>
      <trkpt lat="44.75653" lon="5.36217">
        <ele>388.98</ele>
        <time>2017-10-10T07:58:25.000Z</time>
      </trkpt>
      <trkpt lat="44.75657" lon="5.362">
        <ele>388.57</ele>
        <time>2017-10-10T07:58:35.000Z</time>
      </trkpt>
      <trkpt lat="44.75663" lon="5.36188">
        <ele>388.36</ele>
        <time>2017-10-10T07:58:45.000Z</time>
      </trkpt>
      <trkpt lat="44.7567" lon="5.36172">
        <ele>388.12</ele>
        <time>2017-10-10T07:58:55.000Z</time>
      </trkpt>
      <trkpt lat="44.75677" lon="5.36156">
        <ele>388.03</ele>
        <time>2017-10-10T07:59:05.000Z</time>
      </trkpt>
      <trkpt lat="44.75682" lon="5.36143">
        <ele>388.03</ele>
        <time>2017-10-10T07:59:15.000Z</time>
      </trkpt>
      <trkpt lat="44.75689" lon="5.36126">
        <ele>388.07</ele>
        <time>2017-10-10T07:59:25.000Z</time>
      </trkpt>
      <trkpt lat="44.75686" lon="5.36119">
        <ele>388.02</ele>
        <time>2017-10-10T07:59:35.000Z</time>
      </trkpt>
      <trkpt lat="44.75696" lon="5.361">
        <ele>388.06</ele>
        <time>2017-10-10T07:59:45.000Z</time>
      </trkpt>
      <trkpt lat="44.75701" lon="5.36094">
        <ele>388.08</ele>
        <time>2017-10-10T07:59:55.000Z</time>
      </trkpt>
      <trkpt lat="44.75701" lon="5.36075">
        <ele>388.07</ele>
        <time>2017-10-10T08:00:05.000Z</time>
      </trkpt>
      <trkpt lat="44.75702" lon="5.36061">
        <ele>388.09</ele>
        <time>2017-10-10T08:00:15.000Z</time>
      </trkpt>
      <trkpt lat="44.75702" lon="5.36062">
        <ele>388.09</ele>
        <time>2017-10-10T08:00:26.000Z</time>
      </trkpt>
      <trkpt lat="44.75702" lon="5.36057">
        <ele>388.1</ele>
        <time>2017-10-10T08:00:36.000Z</time>
      </trkpt>
      <trkpt lat="44.75701" lon="5.36056">
        <ele>388.09</ele>
        <time>2017-10-10T08:00:46.000Z</time>
      </trkpt>
      <trkpt lat="44.75704" lon="5.36051">
        <ele>388.14</ele>
        <time>2017-10-10T08:00:56.000Z</time>
      </trkpt>
      <trkpt lat="44.75699" lon="5.36034">
        <ele>388.17</ele>
        <time>2017-10-10T08:01:06.000Z</time>
      </trkpt>
      <trkpt lat="44.75696" lon="5.36011">
        <ele>388.34</ele>
        <time>2017-10-10T08:01:16.000Z</time>
      </trkpt>
      <trkpt lat="44.75699" lon="5.35995">
        <ele>388.69</ele>
        <time>2017-10-10T08:01:26.000Z</time>
      </trkpt>
      <trkpt lat="44.757" lon="5.35969">
        <ele>389.57</ele>
        <time>2017-10-10T08:01:36.000Z</time>
      </trkpt>
      <trkpt lat="44.75718" lon="5.35986">
        <ele>389.47</ele>
        <time>2017-10-10T08:01:46.000Z</time>
      </trkpt>
      <trkpt lat="44.75714" lon="5.35959">
        <ele>390.41</ele>
        <time>2017-10-10T08:01:56.000Z</time>
      </trkpt>
      <trkpt lat="44.75722" lon="5.3595">
        <ele>391.04</ele>
        <time>2017-10-10T08:02:06.000Z</time>
      </trkpt>
      <trkpt lat="44.75729" lon="5.35937">
        <ele>391.82</ele>
        <time>2017-10-10T08:02:16.000Z</time>
      </trkpt>
      <trkpt lat="44.75734" lon="5.35923">
        <ele>392.39</ele>
        <time>2017-10-10T08:02:26.000Z</time>
      </trkpt>
      <trkpt lat="44.75736" lon="5.35905">
        <ele>392.81</ele>
        <time>2017-10-10T08:02:36.000Z</time>
      </trkpt>
      <trkpt lat="44.75744" lon="5.35891">
        <ele>393.18</ele>
        <time>2017-10-10T08:02:46.000Z</time>
      </trkpt>
      <trkpt lat="44.75748" lon="5.35883">
        <ele>393.31</ele>
        <time>2017-10-10T08:02:56.000Z</time>
      </trkpt>
      <trkpt lat="44.75751" lon="5.35867">
        <ele>393.38</ele>
        <time>2017-10-10T08:03:06.000Z</time>
      </trkpt>
      <trkpt lat="44.75757" lon="5.35849">
        <ele>393.42</ele>
        <time>2017-10-10T08:03:16.000Z</time>
      </trkpt>
      <trkpt lat="44.75761" lon="5.3584">
        <ele>393.43</ele>
        <time>2017-10-10T08:03:26.000Z</time>
      </trkpt>
      <trkpt lat="44.75765" lon="5.35823">
        <ele>393.25</ele>
        <time>2017-10-10T08:03:36.000Z</time>
      </trkpt>
      <trkpt lat="44.75771" lon="5.35806">
        <ele>393.05</ele>
        <time>2017-10-10T08:03:46.000Z</time>
      </trkpt>
      <trkpt lat="44.75778" lon="5.35788">
        <ele>392.73</ele>
        <time>2017-10-10T08:03:56.000Z</time>
      </trkpt>
      <trkpt lat="44.75781" lon="5.35773">
        <ele>392.28</ele>
        <time>2017-10-10T08:04:06.000Z</time>
      </trkpt>
      <trkpt lat="44.75789" lon="5.35759">
        <ele>392.03</ele>
        <time>2017-10-10T08:04:16.000Z</time>
      </trkpt>
      <trkpt lat="44.75791" lon="5.35742">
        <ele>391.48</ele>
        <time>2017-10-10T08:04:26.000Z</time>
      </trkpt>
      <trkpt lat="44.75802" lon="5.35726">
        <ele>391.21</ele>
        <time>2017-10-10T08:04:36.000Z</time>
      </trkpt>
      <trkpt lat="44.7581" lon="5.35715">
        <ele>391.2</ele>
        <time>2017-10-10T08:04:46.000Z</time>
      </trkpt>
      <trkpt lat="44.75816" lon="5.35698">
        <ele>390.86</ele>
        <time>2017-10-10T08:04:56.000Z</time>
      </trkpt>
      <trkpt lat="44.75823" lon="5.35681">
        <ele>390.77</ele>
        <time>2017-10-10T08:05:06.000Z</time>
      </trkpt>
      <trkpt lat="44.75828" lon="5.3567">
        <ele>390.75</ele>
        <time>2017-10-10T08:05:16.000Z</time>
      </trkpt>
      <trkpt lat="44.75836" lon="5.35655">
        <ele>390.84</ele>
        <time>2017-10-10T08:05:26.000Z</time>
      </trkpt>
      <trkpt lat="44.75837" lon="5.35638">
        <ele>390.51</ele>
        <time>2017-10-10T08:05:36.000Z</time>
      </trkpt>
      <trkpt lat="44.75843" lon="5.35622">
        <ele>390.43</ele>
        <time>2017-10-10T08:05:46.000Z</time>
      </trkpt>
      <trkpt lat="44.75839" lon="5.35596">
        <ele>389.61</ele>
        <time>2017-10-10T08:05:56.000Z</time>
      </trkpt>
      <trkpt lat="44.75838" lon="5.35583">
        <ele>389.25</ele>
        <time>2017-10-10T08:06:06.000Z</time>
      </trkpt>
      <trkpt lat="44.75838" lon="5.35561">
        <ele>388.95</ele>
        <time>2017-10-10T08:06:16.000Z</time>
      </trkpt>
      <trkpt lat="44.75839" lon="5.35542">
        <ele>388.84</ele>
        <time>2017-10-10T08:06:26.000Z</time>
      </trkpt>
      <trkpt lat="44.75836" lon="5.35525">
        <ele>388.54</ele>
        <time>2017-10-10T08:06:36.000Z</time>
      </trkpt>
      <trkpt lat="44.75844" lon="5.35517">
        <ele>388.82</ele>
        <time>2017-10-10T08:06:46.000Z</time>
      </trkpt>
      <trkpt lat="44.75853" lon="5.35503">
        <ele>389.04</ele>
        <time>2017-10-10T08:06:56.000Z</time>
      </trkpt>
      <trkpt lat="44.75854" lon="5.35483">
        <ele>388.43</ele>
        <time>2017-10-10T08:07:06.000Z</time>
      </trkpt>
      <trkpt lat="44.75867" lon="5.35472">
        <ele>388.79</ele>
        <time>2017-10-10T08:07:16.000Z</time>
      </trkpt>
      <trkpt lat="44.75876" lon="5.35452">
        <ele>388.39</ele>
        <time>2017-10-10T08:07:26.000Z</time>
      </trkpt>
      <trkpt lat="44.75878" lon="5.35436">
        <ele>387.77</ele>
        <time>2017-10-10T08:07:36.000Z</time>
      </trkpt>
      <trkpt lat="44.75887" lon="5.3542">
        <ele>387.6</ele>
        <time>2017-10-10T08:07:46.000Z</time>
      </trkpt>
      <trkpt lat="44.75883" lon="5.35403">
        <ele>386.79</ele>
        <time>2017-10-10T08:07:56.000Z</time>
      </trkpt>
      <trkpt lat="44.75888" lon="5.35383">
        <ele>386.51</ele>
        <time>2017-10-10T08:08:06.000Z</time>
      </trkpt>
      <trkpt lat="44.7589" lon="5.35368">
        <ele>386.18</ele>
        <time>2017-10-10T08:08:16.000Z</time>
      </trkpt>
      <trkpt lat="44.75894" lon="5.3535">
        <ele>385.89</ele>
        <time>2017-10-10T08:08:26.000Z</time>
      </trkpt>
      <trkpt lat="44.75896" lon="5.35337">
        <ele>385.61</ele>
        <time>2017-10-10T08:08:36.000Z</time>
      </trkpt>
      <trkpt lat="44.75898" lon="5.35318">
        <ele>384.99</ele>
        <time>2017-10-10T08:08:46.000Z</time>
      </trkpt>
      <trkpt lat="44.75906" lon="5.353">
        <ele>384.34</ele>
        <time>2017-10-10T08:08:57.000Z</time>
      </trkpt>
      <trkpt lat="44.75921" lon="5.35293">
        <ele>384.23</ele>
        <time>2017-10-10T08:09:07.000Z</time>
      </trkpt>
      <trkpt lat="44.75929" lon="5.35281">
        <ele>383.88</ele>
        <time>2017-10-10T08:09:17.000Z</time>
      </trkpt>
      <trkpt lat="44.75938" lon="5.3527">
        <ele>383.71</ele>
        <time>2017-10-10T08:09:27.000Z</time>
      </trkpt>
      <trkpt lat="44.75948" lon="5.35259">
        <ele>383.77</ele>
        <time>2017-10-10T08:09:37.000Z</time>
      </trkpt>
      <trkpt lat="44.75954" lon="5.35247">
        <ele>383.73</ele>
        <time>2017-10-10T08:09:47.000Z</time>
      </trkpt>
      <trkpt lat="44.75963" lon="5.35238">
        <ele>383.9</ele>
        <time>2017-10-10T08:09:57.000Z</time>
      </trkpt>
      <trkpt lat="44.75972" lon="5.3522">
        <ele>383.77</ele>
        <time>2017-10-10T08:10:07.000Z</time>
      </trkpt>
      <trkpt lat="44.75982" lon="5.35209">
        <ele>383.87</ele>
        <time>2017-10-10T08:10:17.000Z</time>
      </trkpt>
      <trkpt lat="44.75985" lon="5.35195">
        <ele>383.52</ele>
        <time>2017-10-10T08:10:27.000Z</time>
      </trkpt>
      <trkpt lat="44.75987" lon="5.35179">
        <ele>383.13</ele>
        <time>2017-10-10T08:10:37.000Z</time>
      </trkpt>
      <trkpt lat="44.75987" lon="5.35181">
        <ele>383.17</ele>
        <time>2017-10-10T08:10:47.000Z</time>
      </trkpt>
      <trkpt lat="44.75978" lon="5.35172">
        <ele>382.81</ele>
        <time>2017-10-10T08:10:57.000Z</time>
      </trkpt>
      <trkpt lat="44.75967" lon="5.35162">
        <ele>382.74</ele>
        <time>2017-10-10T08:11:07.000Z</time>
      </trkpt>
      <trkpt lat="44.75961" lon="5.35158">
        <ele>382.93</ele>
        <time>2017-10-10T08:11:17.000Z</time>
      </trkpt>
      <trkpt lat="44.75958" lon="5.35154">
        <ele>383.21</ele>
        <time>2017-10-10T08:11:27.000Z</time>
      </trkpt>
      <trkpt lat="44.75949" lon="5.35145">
        <ele>384.29</ele>
        <time>2017-10-10T08:11:37.000Z</time>
      </trkpt>
      <trkpt lat="44.75941" lon="5.35136">
        <ele>385.96</ele>
        <time>2017-10-10T08:11:47.000Z</time>
      </trkpt>
      <trkpt lat="44.75926" lon="5.3513">
        <ele>389.19</ele>
        <time>2017-10-10T08:11:57.000Z</time>
      </trkpt>
      <trkpt lat="44.75927" lon="5.35128">
        <ele>389.32</ele>
        <time>2017-10-10T08:12:07.000Z</time>
      </trkpt>
      <trkpt lat="44.7593" lon="5.35129">
        <ele>388.61</ele>
        <time>2017-10-10T08:12:17.000Z</time>
      </trkpt>
      <trkpt lat="44.75928" lon="5.35124">
        <ele>389.68</ele>
        <time>2017-10-10T08:12:27.000Z</time>
      </trkpt>
      <trkpt lat="44.75928" lon="5.35123">
        <ele>389.94</ele>
        <time>2017-10-10T08:13:40.000Z</time>
      </trkpt>
      <trkpt lat="44.75927" lon="5.35122">
        <ele>390.21</ele>
        <time>2017-10-10T08:18:47.000Z</time>
      </trkpt>
      <trkpt lat="44.75927" lon="5.35119">
        <ele>390.73</ele>
        <time>2017-10-10T08:21:54.000Z</time>
      </trkpt>
      <trkpt lat="44.75925" lon="5.35099">
        <ele>394.2</ele>
        <time>2017-10-10T08:22:04.000Z</time>
      </trkpt>
      <trkpt lat="44.75928" lon="5.35088">
        <ele>395.31</ele>
        <time>2017-10-10T08:22:14.000Z</time>
      </trkpt>
      <trkpt lat="44.75929" lon="5.35079">
        <ele>396.09</ele>
        <time>2017-10-10T08:22:24.000Z</time>
      </trkpt>
      <trkpt lat="44.75925" lon="5.35065">
        <ele>399.27</ele>
        <time>2017-10-10T08:22:34.000Z</time>
      </trkpt>
      <trkpt lat="44.75926" lon="5.35056">
        <ele>399.99</ele>
        <time>2017-10-10T08:22:44.000Z</time>
      </trkpt>
      <trkpt lat="44.75925" lon="5.35053">
        <ele>400.76</ele>
        <time>2017-10-10T08:22:54.000Z</time>
      </trkpt>
      <trkpt lat="44.75924" lon="5.35051">
        <ele>401.45</ele>
        <time>2017-10-10T08:23:04.000Z</time>
      </trkpt>
      <trkpt lat="44.75925" lon="5.35047">
        <ele>401.72</ele>
        <time>2017-10-10T08:23:22.000Z</time>
      </trkpt>
      <trkpt lat="44.75913" lon="5.3502">
        <ele>409.21</ele>
        <time>2017-10-10T08:23:32.000Z</time>
      </trkpt>
      <trkpt lat="44.75909" lon="5.35001">
        <ele>412.46</ele>
        <time>2017-10-10T08:23:42.000Z</time>
      </trkpt>
      <trkpt lat="44.75919" lon="5.34984">
        <ele>410.48</ele>
        <time>2017-10-10T08:23:52.000Z</time>
      </trkpt>
      <trkpt lat="44.75914" lon="5.3498">
        <ele>412.22</ele>
        <time>2017-10-10T08:24:02.000Z</time>
      </trkpt>
      <trkpt lat="44.75915" lon="5.34969">
        <ele>412.39</ele>
        <time>2017-10-10T08:24:12.000Z</time>
      </trkpt>
      <trkpt lat="44.75908" lon="5.34955">
        <ele>414.86</ele>
        <time>2017-10-10T08:24:22.000Z</time>
      </trkpt>
      <trkpt lat="44.75915" lon="5.34951">
        <ele>412.89</ele>
        <time>2017-10-10T08:24:32.000Z</time>
      </trkpt>
      <trkpt lat="44.75912" lon="5.34939">
        <ele>413.91</ele>
        <time>2017-10-10T08:24:42.000Z</time>
      </trkpt>
      <trkpt lat="44.75903" lon="5.34932">
        <ele>417</ele>
        <time>2017-10-10T08:24:52.000Z</time>
      </trkpt>
      <trkpt lat="44.75914" lon="5.34923">
        <ele>413.67</ele>
        <time>2017-10-10T08:25:02.000Z</time>
      </trkpt>
      <trkpt lat="44.75913" lon="5.34917">
        <ele>414.02</ele>
        <time>2017-10-10T08:25:12.000Z</time>
      </trkpt>
      <trkpt lat="44.75904" lon="5.34908">
        <ele>417.12</ele>
        <time>2017-10-10T08:25:22.000Z</time>
      </trkpt>
      <trkpt lat="44.75899" lon="5.34899">
        <ele>418.67</ele>
        <time>2017-10-10T08:25:32.000Z</time>
      </trkpt>
      <trkpt lat="44.75896" lon="5.34893">
        <ele>419.78</ele>
        <time>2017-10-10T08:25:42.000Z</time>
      </trkpt>
      <trkpt lat="44.75902" lon="5.34888">
        <ele>418.06</ele>
        <time>2017-10-10T08:25:52.000Z</time>
      </trkpt>
      <trkpt lat="44.75894" lon="5.34875">
        <ele>420.21</ele>
        <time>2017-10-10T08:26:02.000Z</time>
      </trkpt>
      <trkpt lat="44.75888" lon="5.34863">
        <ele>421.95</ele>
        <time>2017-10-10T08:26:12.000Z</time>
      </trkpt>
      <trkpt lat="44.75885" lon="5.34855">
        <ele>422.78</ele>
        <time>2017-10-10T08:26:22.000Z</time>
      </trkpt>
      <trkpt lat="44.75878" lon="5.34844">
        <ele>424.5</ele>
        <time>2017-10-10T08:26:32.000Z</time>
      </trkpt>
      <trkpt lat="44.75869" lon="5.34834">
        <ele>426.8</ele>
        <time>2017-10-10T08:26:42.000Z</time>
      </trkpt>
      <trkpt lat="44.75862" lon="5.34828">
        <ele>428.69</ele>
        <time>2017-10-10T08:26:52.000Z</time>
      </trkpt>
      <trkpt lat="44.75854" lon="5.34819">
        <ele>430.75</ele>
        <time>2017-10-10T08:27:02.000Z</time>
      </trkpt>
      <trkpt lat="44.75856" lon="5.34813">
        <ele>430.51</ele>
        <time>2017-10-10T08:27:12.000Z</time>
      </trkpt>
      <trkpt lat="44.75846" lon="5.34796">
        <ele>433.28</ele>
        <time>2017-10-10T08:27:22.000Z</time>
      </trkpt>
      <trkpt lat="44.75847" lon="5.34792">
        <ele>433.02</ele>
        <time>2017-10-10T08:27:32.000Z</time>
      </trkpt>
      <trkpt lat="44.75841" lon="5.34778">
        <ele>435.01</ele>
        <time>2017-10-10T08:27:42.000Z</time>
      </trkpt>
      <trkpt lat="44.75838" lon="5.3477">
        <ele>436.21</ele>
        <time>2017-10-10T08:27:52.000Z</time>
      </trkpt>
      <trkpt lat="44.75836" lon="5.34762">
        <ele>436.76</ele>
        <time>2017-10-10T08:28:02.000Z</time>
      </trkpt>
      <trkpt lat="44.7584" lon="5.34757">
        <ele>435.63</ele>
        <time>2017-10-10T08:28:12.000Z</time>
      </trkpt>
      <trkpt lat="44.75837" lon="5.34756">
        <ele>436.67</ele>
        <time>2017-10-10T08:28:22.000Z</time>
      </trkpt>
      <trkpt lat="44.75837" lon="5.34754">
        <ele>436.87</ele>
        <time>2017-10-10T08:28:45.000Z</time>
      </trkpt>
      <trkpt lat="44.75826" lon="5.34736">
        <ele>440.89</ele>
        <time>2017-10-10T08:28:55.000Z</time>
      </trkpt>
      <trkpt lat="44.75819" lon="5.34721">
        <ele>444.29</ele>
        <time>2017-10-10T08:29:05.000Z</time>
      </trkpt>
      <trkpt lat="44.75807" lon="5.34716">
        <ele>449.38</ele>
        <time>2017-10-10T08:29:15.000Z</time>
      </trkpt>
      <trkpt lat="44.758" lon="5.3471">
        <ele>452.52</ele>
        <time>2017-10-10T08:29:25.000Z</time>
      </trkpt>
      <trkpt lat="44.75806" lon="5.34723">
        <ele>449.53</ele>
        <time>2017-10-10T08:29:35.000Z</time>
      </trkpt>
      <trkpt lat="44.75806" lon="5.3473">
        <ele>449.19</ele>
        <time>2017-10-10T08:29:45.000Z</time>
      </trkpt>
      <trkpt lat="44.75803" lon="5.34732">
        <ele>450.32</ele>
        <time>2017-10-10T08:29:55.000Z</time>
      </trkpt>
      <trkpt lat="44.758" lon="5.34744">
        <ele>450.92</ele>
        <time>2017-10-10T08:30:05.000Z</time>
      </trkpt>
      <trkpt lat="44.75795" lon="5.34753">
        <ele>452.56</ele>
        <time>2017-10-10T08:30:15.000Z</time>
      </trkpt>
      <trkpt lat="44.75797" lon="5.34773">
        <ele>451.41</ele>
        <time>2017-10-10T08:30:25.000Z</time>
      </trkpt>
      <trkpt lat="44.75789" lon="5.34774">
        <ele>454.58</ele>
        <time>2017-10-10T08:30:35.000Z</time>
      </trkpt>
      <trkpt lat="44.75784" lon="5.34778">
        <ele>456.69</ele>
        <time>2017-10-10T08:30:45.000Z</time>
      </trkpt>
      <trkpt lat="44.75784" lon="5.34791">
        <ele>456.31</ele>
        <time>2017-10-10T08:30:55.000Z</time>
      </trkpt>
      <trkpt lat="44.75783" lon="5.34799">
        <ele>456.55</ele>
        <time>2017-10-10T08:31:05.000Z</time>
      </trkpt>
      <trkpt lat="44.75776" lon="5.34809">
        <ele>459.17</ele>
        <time>2017-10-10T08:31:15.000Z</time>
      </trkpt>
      <trkpt lat="44.75782" lon="5.34821">
        <ele>456.48</ele>
        <time>2017-10-10T08:31:25.000Z</time>
      </trkpt>
      <trkpt lat="44.75782" lon="5.3483">
        <ele>456.19</ele>
        <time>2017-10-10T08:31:35.000Z</time>
      </trkpt>
      <trkpt lat="44.75773" lon="5.3484">
        <ele>459.63</ele>
        <time>2017-10-10T08:31:45.000Z</time>
      </trkpt>
      <trkpt lat="44.75774" lon="5.34846">
        <ele>459.23</ele>
        <time>2017-10-10T08:31:55.000Z</time>
      </trkpt>
      <trkpt lat="44.75771" lon="5.34856">
        <ele>460.49</ele>
        <time>2017-10-10T08:32:05.000Z</time>
      </trkpt>
      <trkpt lat="44.75765" lon="5.34864">
        <ele>462.82</ele>
        <time>2017-10-10T08:32:15.000Z</time>
      </trkpt>
      <trkpt lat="44.75766" lon="5.34874">
        <ele>462.09</ele>
        <time>2017-10-10T08:32:25.000Z</time>
      </trkpt>
      <trkpt lat="44.75763" lon="5.34888">
        <ele>463.05</ele>
        <time>2017-10-10T08:32:35.000Z</time>
      </trkpt>
      <trkpt lat="44.75747" lon="5.34885">
        <ele>469.24</ele>
        <time>2017-10-10T08:32:45.000Z</time>
      </trkpt>
      <trkpt lat="44.75752" lon="5.34905">
        <ele>466.7</ele>
        <time>2017-10-10T08:32:55.000Z</time>
      </trkpt>
      <trkpt lat="44.75748" lon="5.34916">
        <ele>467.85</ele>
        <time>2017-10-10T08:33:05.000Z</time>
      </trkpt>
      <trkpt lat="44.75739" lon="5.34922">
        <ele>470.73</ele>
        <time>2017-10-10T08:33:15.000Z</time>
      </trkpt>
      <trkpt lat="44.75737" lon="5.34934">
        <ele>470.72</ele>
        <time>2017-10-10T08:33:25.000Z</time>
      </trkpt>
      <trkpt lat="44.7573" lon="5.34944">
        <ele>472.44</ele>
        <time>2017-10-10T08:33:35.000Z</time>
      </trkpt>
      <trkpt lat="44.75722" lon="5.34945">
        <ele>475.35</ele>
        <time>2017-10-10T08:33:45.000Z</time>
      </trkpt>
      <trkpt lat="44.75718" lon="5.34954">
        <ele>476.27</ele>
        <time>2017-10-10T08:33:56.000Z</time>
      </trkpt>
      <trkpt lat="44.75716" lon="5.34959">
        <ele>476.29</ele>
        <time>2017-10-10T08:34:06.000Z</time>
      </trkpt>
      <trkpt lat="44.75721" lon="5.34961">
        <ele>474.57</ele>
        <time>2017-10-10T08:34:16.000Z</time>
      </trkpt>
      <trkpt lat="44.75727" lon="5.34953">
        <ele>473.05</ele>
        <time>2017-10-10T08:34:26.000Z</time>
      </trkpt>
      <trkpt lat="44.75725" lon="5.34955">
        <ele>473.55</ele>
        <time>2017-10-10T08:34:36.000Z</time>
      </trkpt>
      <trkpt lat="44.75726" lon="5.34957">
        <ele>473.01</ele>
        <time>2017-10-10T08:34:46.000Z</time>
      </trkpt>
      <trkpt lat="44.75724" lon="5.34955">
        <ele>473.71</ele>
        <time>2017-10-10T08:35:12.000Z</time>
      </trkpt>
      <trkpt lat="44.75728" lon="5.34953">
        <ele>472.4</ele>
        <time>2017-10-10T08:35:22.000Z</time>
      </trkpt>
      <trkpt lat="44.75732" lon="5.34952">
        <ele>471.29</ele>
        <time>2017-10-10T08:35:32.000Z</time>
      </trkpt>
      <trkpt lat="44.75729" lon="5.34949">
        <ele>472.67</ele>
        <time>2017-10-10T08:36:02.000Z</time>
      </trkpt>
      <trkpt lat="44.75721" lon="5.34938">
        <ele>476.6</ele>
        <time>2017-10-10T08:36:12.000Z</time>
      </trkpt>
      <trkpt lat="44.75725" lon="5.34932">
        <ele>475.47</ele>
        <time>2017-10-10T08:36:22.000Z</time>
      </trkpt>
      <trkpt lat="44.75731" lon="5.34922">
        <ele>473.71</ele>
        <time>2017-10-10T08:36:32.000Z</time>
      </trkpt>
      <trkpt lat="44.75718" lon="5.34911">
        <ele>479.62</ele>
        <time>2017-10-10T08:36:42.000Z</time>
      </trkpt>
      <trkpt lat="44.7571" lon="5.34898">
        <ele>483.25</ele>
        <time>2017-10-10T08:36:52.000Z</time>
      </trkpt>
      <trkpt lat="44.75706" lon="5.34881">
        <ele>485.53</ele>
        <time>2017-10-10T08:37:02.000Z</time>
      </trkpt>
      <trkpt lat="44.75712" lon="5.34873">
        <ele>483.41</ele>
        <time>2017-10-10T08:37:12.000Z</time>
      </trkpt>
      <trkpt lat="44.75729" lon="5.34869">
        <ele>476.61</ele>
        <time>2017-10-10T08:37:22.000Z</time>
      </trkpt>
      <trkpt lat="44.75721" lon="5.34856">
        <ele>480.22</ele>
        <time>2017-10-10T08:37:32.000Z</time>
      </trkpt>
      <trkpt lat="44.75707" lon="5.34846">
        <ele>486.04</ele>
        <time>2017-10-10T08:37:42.000Z</time>
      </trkpt>
      <trkpt lat="44.75719" lon="5.34837">
        <ele>481.32</ele>
        <time>2017-10-10T08:37:52.000Z</time>
      </trkpt>
      <trkpt lat="44.75716" lon="5.3483">
        <ele>482.65</ele>
        <time>2017-10-10T08:38:02.000Z</time>
      </trkpt>
      <trkpt lat="44.75718" lon="5.34821">
        <ele>482.19</ele>
        <time>2017-10-10T08:38:12.000Z</time>
      </trkpt>
      <trkpt lat="44.75708" lon="5.34822">
        <ele>486.01</ele>
        <time>2017-10-10T08:38:22.000Z</time>
      </trkpt>
      <trkpt lat="44.75705" lon="5.34812">
        <ele>487.53</ele>
        <time>2017-10-10T08:38:32.000Z</time>
      </trkpt>
      <trkpt lat="44.75704" lon="5.34806">
        <ele>487.9</ele>
        <time>2017-10-10T08:38:42.000Z</time>
      </trkpt>
      <trkpt lat="44.75705" lon="5.34804">
        <ele>487.63</ele>
        <time>2017-10-10T08:38:52.000Z</time>
      </trkpt>
      <trkpt lat="44.757" lon="5.34799">
        <ele>489.64</ele>
        <time>2017-10-10T08:39:02.000Z</time>
      </trkpt>
      <trkpt lat="44.75699" lon="5.34798">
        <ele>490.23</ele>
        <time>2017-10-10T08:39:12.000Z</time>
      </trkpt>
      <trkpt lat="44.75697" lon="5.34797">
        <ele>490.85</ele>
        <time>2017-10-10T08:39:31.000Z</time>
      </trkpt>
      <trkpt lat="44.75685" lon="5.34789">
        <ele>495.5</ele>
        <time>2017-10-10T08:39:41.000Z</time>
      </trkpt>
      <trkpt lat="44.75685" lon="5.34786">
        <ele>495.66</ele>
        <time>2017-10-10T08:39:51.000Z</time>
      </trkpt>
      <trkpt lat="44.75683" lon="5.34783">
        <ele>496.43</ele>
        <time>2017-10-10T08:40:01.000Z</time>
      </trkpt>
      <trkpt lat="44.75681" lon="5.3478">
        <ele>497.14</ele>
        <time>2017-10-10T08:40:11.000Z</time>
      </trkpt>
      <trkpt lat="44.75669" lon="5.34779">
        <ele>501.45</ele>
        <time>2017-10-10T08:40:21.000Z</time>
      </trkpt>
      <trkpt lat="44.7566" lon="5.34784">
        <ele>504.95</ele>
        <time>2017-10-10T08:40:31.000Z</time>
      </trkpt>
      <trkpt lat="44.75655" lon="5.34784">
        <ele>506.66</ele>
        <time>2017-10-10T08:40:41.000Z</time>
      </trkpt>
      <trkpt lat="44.75652" lon="5.34784">
        <ele>507.62</ele>
        <time>2017-10-10T08:40:51.000Z</time>
      </trkpt>
      <trkpt lat="44.75651" lon="5.34784">
        <ele>508.09</ele>
        <time>2017-10-10T08:41:19.000Z</time>
      </trkpt>
      <trkpt lat="44.7565" lon="5.348">
        <ele>508.44</ele>
        <time>2017-10-10T08:41:29.000Z</time>
      </trkpt>
      <trkpt lat="44.75643" lon="5.34821">
        <ele>510.75</ele>
        <time>2017-10-10T08:41:39.000Z</time>
      </trkpt>
      <trkpt lat="44.75636" lon="5.34837">
        <ele>512.74</ele>
        <time>2017-10-10T08:41:49.000Z</time>
      </trkpt>
      <trkpt lat="44.75633" lon="5.34847">
        <ele>513.56</ele>
        <time>2017-10-10T08:41:59.000Z</time>
      </trkpt>
      <trkpt lat="44.7563" lon="5.34852">
        <ele>514.55</ele>
        <time>2017-10-10T08:42:09.000Z</time>
      </trkpt>
      <trkpt lat="44.75633" lon="5.3486">
        <ele>513.53</ele>
        <time>2017-10-10T08:42:19.000Z</time>
      </trkpt>
      <trkpt lat="44.75632" lon="5.34879">
        <ele>513.31</ele>
        <time>2017-10-10T08:42:29.000Z</time>
      </trkpt>
      <trkpt lat="44.75626" lon="5.34889">
        <ele>515.25</ele>
        <time>2017-10-10T08:42:39.000Z</time>
      </trkpt>
      <trkpt lat="44.75621" lon="5.34903">
        <ele>516.3</ele>
        <time>2017-10-10T08:42:49.000Z</time>
      </trkpt>
      <trkpt lat="44.75612" lon="5.3491">
        <ele>518.67</ele>
        <time>2017-10-10T08:42:59.000Z</time>
      </trkpt>
      <trkpt lat="44.75609" lon="5.34919">
        <ele>518.97</ele>
        <time>2017-10-10T08:43:09.000Z</time>
      </trkpt>
      <trkpt lat="44.75599" lon="5.34913">
        <ele>522.47</ele>
        <time>2017-10-10T08:43:19.000Z</time>
      </trkpt>
      <trkpt lat="44.75592" lon="5.34924">
        <ele>523.66</ele>
        <time>2017-10-10T08:43:29.000Z</time>
      </trkpt>
      <trkpt lat="44.75587" lon="5.34934">
        <ele>523.76</ele>
        <time>2017-10-10T08:43:39.000Z</time>
      </trkpt>
      <trkpt lat="44.75584" lon="5.34937">
        <ele>524.04</ele>
        <time>2017-10-10T08:43:49.000Z</time>
      </trkpt>
      <trkpt lat="44.75581" lon="5.34932">
        <ele>525.83</ele>
        <time>2017-10-10T08:43:59.000Z</time>
      </trkpt>
      <trkpt lat="44.75589" lon="5.34927">
        <ele>524.2</ele>
        <time>2017-10-10T08:44:09.000Z</time>
      </trkpt>
      <trkpt lat="44.75587" lon="5.34924">
        <ele>524.99</ele>
        <time>2017-10-10T08:44:19.000Z</time>
      </trkpt>
      <trkpt lat="44.75584" lon="5.34919">
        <ele>526.66</ele>
        <time>2017-10-10T08:45:01.000Z</time>
      </trkpt>
      <trkpt lat="44.75574" lon="5.34905">
        <ele>530.74</ele>
        <time>2017-10-10T08:45:11.000Z</time>
      </trkpt>
      <trkpt lat="44.75578" lon="5.349">
        <ele>530.02</ele>
        <time>2017-10-10T08:45:21.000Z</time>
      </trkpt>
      <trkpt lat="44.75576" lon="5.34897">
        <ele>530.52</ele>
        <time>2017-10-10T08:45:48.000Z</time>
      </trkpt>
      <trkpt lat="44.75576" lon="5.34886">
        <ele>531.08</ele>
        <time>2017-10-10T08:45:58.000Z</time>
      </trkpt>
      <trkpt lat="44.7557" lon="5.34874">
        <ele>533.16</ele>
        <time>2017-10-10T08:46:08.000Z</time>
      </trkpt>
      <trkpt lat="44.75569" lon="5.34873">
        <ele>533.33</ele>
        <time>2017-10-10T08:46:18.000Z</time>
      </trkpt>
      <trkpt lat="44.75562" lon="5.34869">
        <ele>535.35</ele>
        <time>2017-10-10T08:47:57.000Z</time>
      </trkpt>
      <trkpt lat="44.75558" lon="5.34857">
        <ele>536.66</ele>
        <time>2017-10-10T08:48:07.000Z</time>
      </trkpt>
      <trkpt lat="44.75559" lon="5.34845">
        <ele>536.78</ele>
        <time>2017-10-10T08:48:17.000Z</time>
      </trkpt>
      <trkpt lat="44.75553" lon="5.34834">
        <ele>538.59</ele>
        <time>2017-10-10T08:48:27.000Z</time>
      </trkpt>
      <trkpt lat="44.75542" lon="5.34832">
        <ele>541.83</ele>
        <time>2017-10-10T08:48:37.000Z</time>
      </trkpt>
      <trkpt lat="44.75536" lon="5.34823">
        <ele>543.4</ele>
        <time>2017-10-10T08:48:47.000Z</time>
      </trkpt>
      <trkpt lat="44.75525" lon="5.34821">
        <ele>546.48</ele>
        <time>2017-10-10T08:48:57.000Z</time>
      </trkpt>
      <trkpt lat="44.75512" lon="5.34809">
        <ele>549.63</ele>
        <time>2017-10-10T08:49:07.000Z</time>
      </trkpt>
      <trkpt lat="44.75506" lon="5.34801">
        <ele>551.38</ele>
        <time>2017-10-10T08:49:17.000Z</time>
      </trkpt>
      <trkpt lat="44.75499" lon="5.34797">
        <ele>553.18</ele>
        <time>2017-10-10T08:49:27.000Z</time>
      </trkpt>
      <trkpt lat="44.75505" lon="5.34811">
        <ele>551.62</ele>
        <time>2017-10-10T08:49:37.000Z</time>
      </trkpt>
      <trkpt lat="44.75501" lon="5.34794">
        <ele>552.64</ele>
        <time>2017-10-10T08:49:47.000Z</time>
      </trkpt>
      <trkpt lat="44.75497" lon="5.34782">
        <ele>553.63</ele>
        <time>2017-10-10T08:49:57.000Z</time>
      </trkpt>
      <trkpt lat="44.75491" lon="5.3477">
        <ele>555.75</ele>
        <time>2017-10-10T08:50:07.000Z</time>
      </trkpt>
      <trkpt lat="44.75488" lon="5.34774">
        <ele>556.62</ele>
        <time>2017-10-10T08:50:17.000Z</time>
      </trkpt>
      <trkpt lat="44.75475" lon="5.34771">
        <ele>560.83</ele>
        <time>2017-10-10T08:50:27.000Z</time>
      </trkpt>
      <trkpt lat="44.75477" lon="5.34776">
        <ele>559.98</ele>
        <time>2017-10-10T08:50:37.000Z</time>
      </trkpt>
      <trkpt lat="44.75471" lon="5.34768">
        <ele>562.55</ele>
        <time>2017-10-10T08:50:47.000Z</time>
      </trkpt>
      <trkpt lat="44.7547" lon="5.34761">
        <ele>563.27</ele>
        <time>2017-10-10T08:50:57.000Z</time>
      </trkpt>
      <trkpt lat="44.75463" lon="5.34755">
        <ele>566.2</ele>
        <time>2017-10-10T08:51:07.000Z</time>
      </trkpt>
      <trkpt lat="44.75459" lon="5.34758">
        <ele>567.51</ele>
        <time>2017-10-10T08:51:17.000Z</time>
      </trkpt>
      <trkpt lat="44.75458" lon="5.34756">
        <ele>568.25</ele>
        <time>2017-10-10T08:51:27.000Z</time>
      </trkpt>
      <trkpt lat="44.7545" lon="5.34755">
        <ele>571.28</ele>
        <time>2017-10-10T08:51:37.000Z</time>
      </trkpt>
      <trkpt lat="44.75458" lon="5.34752">
        <ele>568.67</ele>
        <time>2017-10-10T08:51:47.000Z</time>
      </trkpt>
      <trkpt lat="44.75461" lon="5.34753">
        <ele>567.55</ele>
        <time>2017-10-10T08:51:57.000Z</time>
      </trkpt>
      <trkpt lat="44.75445" lon="5.34742">
        <ele>575.08</ele>
        <time>2017-10-10T08:52:07.000Z</time>
      </trkpt>
      <trkpt lat="44.75431" lon="5.34734">
        <ele>582.09</ele>
        <time>2017-10-10T08:52:17.000Z</time>
      </trkpt>
      <trkpt lat="44.75423" lon="5.34735">
        <ele>585.38</ele>
        <time>2017-10-10T08:52:27.000Z</time>
      </trkpt>
      <trkpt lat="44.7542" lon="5.34731">
        <ele>587.61</ele>
        <time>2017-10-10T08:52:37.000Z</time>
      </trkpt>
      <trkpt lat="44.75415" lon="5.34735">
        <ele>589.27</ele>
        <time>2017-10-10T08:52:47.000Z</time>
      </trkpt>
      <trkpt lat="44.75416" lon="5.34739">
        <ele>588.24</ele>
        <time>2017-10-10T08:52:57.000Z</time>
      </trkpt>
      <trkpt lat="44.75401" lon="5.34738">
        <ele>595.36</ele>
        <time>2017-10-10T08:53:07.000Z</time>
      </trkpt>
      <trkpt lat="44.75381" lon="5.34733">
        <ele>606.18</ele>
        <time>2017-10-10T08:53:17.000Z</time>
      </trkpt>
      <trkpt lat="44.75395" lon="5.34743">
        <ele>597.37</ele>
        <time>2017-10-10T08:53:27.000Z</time>
      </trkpt>
      <trkpt lat="44.75403" lon="5.34765">
        <ele>589.89</ele>
        <time>2017-10-10T08:53:37.000Z</time>
      </trkpt>
      <trkpt lat="44.75382" lon="5.34761">
        <ele>600.53</ele>
        <time>2017-10-10T08:53:47.000Z</time>
      </trkpt>
      <trkpt lat="44.75386" lon="5.34771">
        <ele>597.09</ele>
        <time>2017-10-10T08:53:57.000Z</time>
      </trkpt>
      <trkpt lat="44.75385" lon="5.34775">
        <ele>597.12</ele>
        <time>2017-10-10T08:54:07.000Z</time>
      </trkpt>
      <trkpt lat="44.75379" lon="5.34776">
        <ele>599.47</ele>
        <time>2017-10-10T08:54:17.000Z</time>
      </trkpt>
      <trkpt lat="44.75376" lon="5.34773">
        <ele>601.72</ele>
        <time>2017-10-10T08:54:27.000Z</time>
      </trkpt>
      <trkpt lat="44.75377" lon="5.34773">
        <ele>600.98</ele>
        <time>2017-10-10T08:54:37.000Z</time>
      </trkpt>
      <trkpt lat="44.75378" lon="5.34772">
        <ele>601</ele>
        <time>2017-10-10T08:54:47.000Z</time>
      </trkpt>
      <trkpt lat="44.75376" lon="5.34772">
        <ele>601.88</ele>
        <time>2017-10-10T08:55:56.000Z</time>
      </trkpt>
      <trkpt lat="44.75366" lon="5.34774">
        <ele>606.47</ele>
        <time>2017-10-10T08:56:06.000Z</time>
      </trkpt>
      <trkpt lat="44.75364" lon="5.34766">
        <ele>609.05</ele>
        <time>2017-10-10T08:56:16.000Z</time>
      </trkpt>
      <trkpt lat="44.75366" lon="5.34765">
        <ele>608.25</ele>
        <time>2017-10-10T08:56:26.000Z</time>
      </trkpt>
      <trkpt lat="44.75363" lon="5.34761">
        <ele>610.55</ele>
        <time>2017-10-10T08:56:36.000Z</time>
      </trkpt>
      <trkpt lat="44.75364" lon="5.34755">
        <ele>611.02</ele>
        <time>2017-10-10T08:56:46.000Z</time>
      </trkpt>
      <trkpt lat="44.75361" lon="5.34749">
        <ele>613.57</ele>
        <time>2017-10-10T08:56:56.000Z</time>
      </trkpt>
      <trkpt lat="44.75355" lon="5.34746">
        <ele>617.51</ele>
        <time>2017-10-10T08:57:06.000Z</time>
      </trkpt>
      <trkpt lat="44.75357" lon="5.3473">
        <ele>619.23</ele>
        <time>2017-10-10T08:57:16.000Z</time>
      </trkpt>
      <trkpt lat="44.7537" lon="5.34721">
        <ele>614.05</ele>
        <time>2017-10-10T08:57:26.000Z</time>
      </trkpt>
      <trkpt lat="44.75373" lon="5.34718">
        <ele>613</ele>
        <time>2017-10-10T08:57:36.000Z</time>
      </trkpt>
      <trkpt lat="44.75374" lon="5.34715">
        <ele>613.04</ele>
        <time>2017-10-10T08:57:46.000Z</time>
      </trkpt>
      <trkpt lat="44.75375" lon="5.34702">
        <ele>614.63</ele>
        <time>2017-10-10T08:58:16.000Z</time>
      </trkpt>
      <trkpt lat="44.75379" lon="5.34677">
        <ele>616.47</ele>
        <time>2017-10-10T08:58:27.000Z</time>
      </trkpt>
      <trkpt lat="44.75385" lon="5.3467">
        <ele>614.65</ele>
        <time>2017-10-10T08:58:37.000Z</time>
      </trkpt>
      <trkpt lat="44.75386" lon="5.34669">
        <ele>614.17</ele>
        <time>2017-10-10T08:58:47.000Z</time>
      </trkpt>
      <trkpt lat="44.75385" lon="5.34669">
        <ele>614.73</ele>
        <time>2017-10-10T08:59:42.000Z</time>
      </trkpt>
      <trkpt lat="44.75384" lon="5.34667">
        <ele>615.2</ele>
        <time>2017-10-10T09:00:09.000Z</time>
      </trkpt>
      <trkpt lat="44.75383" lon="5.34664">
        <ele>616.14</ele>
        <time>2017-10-10T09:00:19.000Z</time>
      </trkpt>
      <trkpt lat="44.75383" lon="5.34663">
        <ele>616.57</ele>
        <time>2017-10-10T09:00:47.000Z</time>
      </trkpt>
      <trkpt lat="44.75382" lon="5.34662">
        <ele>616.96</ele>
        <time>2017-10-10T09:01:01.000Z</time>
      </trkpt>
      <trkpt lat="44.75385" lon="5.34659">
        <ele>616.08</ele>
        <time>2017-10-10T09:01:11.000Z</time>
      </trkpt>
      <trkpt lat="44.75389" lon="5.34644">
        <ele>615.97</ele>
        <time>2017-10-10T09:01:21.000Z</time>
      </trkpt>
      <trkpt lat="44.75363" lon="5.34599">
        <ele>632.28</ele>
        <time>2017-10-10T09:01:31.000Z</time>
      </trkpt>
      <trkpt lat="44.75355" lon="5.34569">
        <ele>634.77</ele>
        <time>2017-10-10T09:01:41.000Z</time>
      </trkpt>
      <trkpt lat="44.75345" lon="5.34555">
        <ele>637.21</ele>
        <time>2017-10-10T09:01:51.000Z</time>
      </trkpt>
      <trkpt lat="44.75339" lon="5.34548">
        <ele>638.93</ele>
        <time>2017-10-10T09:02:01.000Z</time>
      </trkpt>
      <trkpt lat="44.7535" lon="5.34541">
        <ele>633.07</ele>
        <time>2017-10-10T09:02:11.000Z</time>
      </trkpt>
      <trkpt lat="44.75339" lon="5.34523">
        <ele>635.1</ele>
        <time>2017-10-10T09:02:21.000Z</time>
      </trkpt>
      <trkpt lat="44.75338" lon="5.34494">
        <ele>633.37</ele>
        <time>2017-10-10T09:02:38.000Z</time>
      </trkpt>
      <trkpt lat="44.75335" lon="5.34488">
        <ele>634.86</ele>
        <time>2017-10-10T09:02:48.000Z</time>
      </trkpt>
      <trkpt lat="44.75336" lon="5.34484">
        <ele>634.54</ele>
        <time>2017-10-10T09:02:58.000Z</time>
      </trkpt>
      <trkpt lat="44.75332" lon="5.34477">
        <ele>637.1</ele>
        <time>2017-10-10T09:03:08.000Z</time>
      </trkpt>
      <trkpt lat="44.75332" lon="5.34475">
        <ele>636.99</ele>
        <time>2017-10-10T09:03:18.000Z</time>
      </trkpt>
      <trkpt lat="44.75332" lon="5.34474">
        <ele>637.15</ele>
        <time>2017-10-10T09:03:28.000Z</time>
      </trkpt>
      <trkpt lat="44.75327" lon="5.34462">
        <ele>640.36</ele>
        <time>2017-10-10T09:03:59.000Z</time>
      </trkpt>
      <trkpt lat="44.75329" lon="5.34431">
        <ele>641.29</ele>
        <time>2017-10-10T09:04:09.000Z</time>
      </trkpt>
      <trkpt lat="44.75317" lon="5.34412">
        <ele>647.54</ele>
        <time>2017-10-10T09:04:19.000Z</time>
      </trkpt>
      <trkpt lat="44.75328" lon="5.34398">
        <ele>641.57</ele>
        <time>2017-10-10T09:04:29.000Z</time>
      </trkpt>
      <trkpt lat="44.75325" lon="5.34382">
        <ele>642.14</ele>
        <time>2017-10-10T09:04:39.000Z</time>
      </trkpt>
      <trkpt lat="44.75324" lon="5.34372">
        <ele>642.07</ele>
        <time>2017-10-10T09:04:49.000Z</time>
      </trkpt>
      <trkpt lat="44.75318" lon="5.34362">
        <ele>643.79</ele>
        <time>2017-10-10T09:04:59.000Z</time>
      </trkpt>
      <trkpt lat="44.7532" lon="5.34353">
        <ele>642.22</ele>
        <time>2017-10-10T09:05:09.000Z</time>
      </trkpt>
      <trkpt lat="44.75331" lon="5.34342">
        <ele>636.62</ele>
        <time>2017-10-10T09:05:19.000Z</time>
      </trkpt>
      <trkpt lat="44.75323" lon="5.34339">
        <ele>639.32</ele>
        <time>2017-10-10T09:05:29.000Z</time>
      </trkpt>
      <trkpt lat="44.75324" lon="5.34343">
        <ele>639.38</ele>
        <time>2017-10-10T09:05:39.000Z</time>
      </trkpt>
      <trkpt lat="44.75318" lon="5.34347">
        <ele>642.26</ele>
        <time>2017-10-10T09:05:49.000Z</time>
      </trkpt>
      <trkpt lat="44.75316" lon="5.34356">
        <ele>643.92</ele>
        <time>2017-10-10T09:05:59.000Z</time>
      </trkpt>
      <trkpt lat="44.75313" lon="5.3436">
        <ele>645.35</ele>
        <time>2017-10-10T09:06:09.000Z</time>
      </trkpt>
      <trkpt lat="44.75314" lon="5.34379">
        <ele>646.92</ele>
        <time>2017-10-10T09:06:19.000Z</time>
      </trkpt>
      <trkpt lat="44.75308" lon="5.34389">
        <ele>650.53</ele>
        <time>2017-10-10T09:06:29.000Z</time>
      </trkpt>
      <trkpt lat="44.75314" lon="5.34402">
        <ele>648.82</ele>
        <time>2017-10-10T09:06:39.000Z</time>
      </trkpt>
      <trkpt lat="44.75315" lon="5.34419">
        <ele>648.49</ele>
        <time>2017-10-10T09:06:49.000Z</time>
      </trkpt>
      <trkpt lat="44.75306" lon="5.34422">
        <ele>653.61</ele>
        <time>2017-10-10T09:06:59.000Z</time>
      </trkpt>
      <trkpt lat="44.75304" lon="5.34433">
        <ele>654.71</ele>
        <time>2017-10-10T09:07:09.000Z</time>
      </trkpt>
      <trkpt lat="44.75312" lon="5.34445">
        <ele>649.59</ele>
        <time>2017-10-10T09:07:19.000Z</time>
      </trkpt>
      <trkpt lat="44.75321" lon="5.34459">
        <ele>643.87</ele>
        <time>2017-10-10T09:07:29.000Z</time>
      </trkpt>
      <trkpt lat="44.7531" lon="5.34453">
        <ele>650.34</ele>
        <time>2017-10-10T09:07:39.000Z</time>
      </trkpt>
      <trkpt lat="44.75309" lon="5.34455">
        <ele>650.89</ele>
        <time>2017-10-10T09:07:49.000Z</time>
      </trkpt>
      <trkpt lat="44.75308" lon="5.34454">
        <ele>651.69</ele>
        <time>2017-10-10T09:07:59.000Z</time>
      </trkpt>
      <trkpt lat="44.75307" lon="5.34453">
        <ele>652.28</ele>
        <time>2017-10-10T09:08:09.000Z</time>
      </trkpt>
      <trkpt lat="44.75306" lon="5.34454">
        <ele>652.31</ele>
        <time>2017-10-10T09:10:06.000Z</time>
      </trkpt>
      <trkpt lat="44.75299" lon="5.34462">
        <ele>655.98</ele>
        <time>2017-10-10T09:10:21.000Z</time>
      </trkpt>
      <trkpt lat="44.75282" lon="5.34503">
        <ele>664.09</ele>
        <time>2017-10-10T09:10:31.000Z</time>
      </trkpt>
      <trkpt lat="44.75277" lon="5.34539">
        <ele>667.74</ele>
        <time>2017-10-10T09:10:41.000Z</time>
      </trkpt>
      <trkpt lat="44.75266" lon="5.34564">
        <ele>672.84</ele>
        <time>2017-10-10T09:10:51.000Z</time>
      </trkpt>
      <trkpt lat="44.75268" lon="5.34593">
        <ele>671.81</ele>
        <time>2017-10-10T09:11:01.000Z</time>
      </trkpt>
      <trkpt lat="44.75253" lon="5.34609">
        <ele>678.45</ele>
        <time>2017-10-10T09:11:11.000Z</time>
      </trkpt>
      <trkpt lat="44.75265" lon="5.34626">
        <ele>672.41</ele>
        <time>2017-10-10T09:11:21.000Z</time>
      </trkpt>
      <trkpt lat="44.75232" lon="5.3464">
        <ele>688.63</ele>
        <time>2017-10-10T09:11:31.000Z</time>
      </trkpt>
      <trkpt lat="44.75231" lon="5.34655">
        <ele>688.86</ele>
        <time>2017-10-10T09:11:41.000Z</time>
      </trkpt>
      <trkpt lat="44.75216" lon="5.34662">
        <ele>698.52</ele>
        <time>2017-10-10T09:11:51.000Z</time>
      </trkpt>
      <trkpt lat="44.75255" lon="5.34719">
        <ele>672.77</ele>
        <time>2017-10-10T09:12:22.000Z</time>
      </trkpt>
      <trkpt lat="44.75238" lon="5.34736">
        <ele>681.59</ele>
        <time>2017-10-10T09:12:50.000Z</time>
      </trkpt>
      <trkpt lat="44.75227" lon="5.34732">
        <ele>688.52</ele>
        <time>2017-10-10T09:13:00.000Z</time>
      </trkpt>
      <trkpt lat="44.75223" lon="5.34739">
        <ele>690.77</ele>
        <time>2017-10-10T09:13:10.000Z</time>
      </trkpt>
      <trkpt lat="44.75229" lon="5.34752">
        <ele>686.05</ele>
        <time>2017-10-10T09:13:22.000Z</time>
      </trkpt>
      <trkpt lat="44.75215" lon="5.34796">
        <ele>691.54</ele>
        <time>2017-10-10T09:14:31.000Z</time>
      </trkpt>
      <trkpt lat="44.75236" lon="5.34818">
        <ele>674.98</ele>
        <time>2017-10-10T09:14:41.000Z</time>
      </trkpt>
      <trkpt lat="44.75232" lon="5.34814">
        <ele>677.79</ele>
        <time>2017-10-10T09:14:51.000Z</time>
      </trkpt>
      <trkpt lat="44.75227" lon="5.34814">
        <ele>681.07</ele>
        <time>2017-10-10T09:15:01.000Z</time>
      </trkpt>
      <trkpt lat="44.75228" lon="5.34814">
        <ele>680.44</ele>
        <time>2017-10-10T09:15:35.000Z</time>
      </trkpt>
      <trkpt lat="44.75229" lon="5.34815">
        <ele>679.72</ele>
        <time>2017-10-10T09:15:47.000Z</time>
      </trkpt>
      <trkpt lat="44.75227" lon="5.34817">
        <ele>681.26</ele>
        <time>2017-10-10T09:20:26.000Z</time>
      </trkpt>
      <trkpt lat="44.75225" lon="5.3482">
        <ele>682.31</ele>
        <time>2017-10-10T09:20:36.000Z</time>
      </trkpt>
      <trkpt lat="44.75224" lon="5.34821">
        <ele>682.92</ele>
        <time>2017-10-10T09:20:46.000Z</time>
      </trkpt>
      <trkpt lat="44.75223" lon="5.34821">
        <ele>683.47</ele>
        <time>2017-10-10T09:20:59.000Z</time>
      </trkpt>
      <trkpt lat="44.75222" lon="5.34822">
        <ele>683.89</ele>
        <time>2017-10-10T09:21:12.000Z</time>
      </trkpt>
      <trkpt lat="44.75215" lon="5.34827">
        <ele>687.95</ele>
        <time>2017-10-10T09:21:26.000Z</time>
      </trkpt>
      <trkpt lat="44.75173" lon="5.34844">
        <ele>711.38</ele>
        <time>2017-10-10T09:21:37.000Z</time>
      </trkpt>
      <trkpt lat="44.75145" lon="5.34884">
        <ele>713.53</ele>
        <time>2017-10-10T09:21:51.000Z</time>
      </trkpt>
      <trkpt lat="44.75118" lon="5.3492">
        <ele>711.47</ele>
        <time>2017-10-10T09:22:01.000Z</time>
      </trkpt>
      <trkpt lat="44.75099" lon="5.34939">
        <ele>710.64</ele>
        <time>2017-10-10T09:22:12.000Z</time>
      </trkpt>
      <trkpt lat="44.75091" lon="5.34953">
        <ele>707.94</ele>
        <time>2017-10-10T09:22:22.000Z</time>
      </trkpt>
      <trkpt lat="44.75078" lon="5.3496">
        <ele>709.25</ele>
        <time>2017-10-10T09:22:32.000Z</time>
      </trkpt>
      <trkpt lat="44.75068" lon="5.34964">
        <ele>711.76</ele>
        <time>2017-10-10T09:22:42.000Z</time>
      </trkpt>
      <trkpt lat="44.75066" lon="5.34979">
        <ele>706.07</ele>
        <time>2017-10-10T09:22:52.000Z</time>
      </trkpt>
      <trkpt lat="44.75056" lon="5.34975">
        <ele>711.27</ele>
        <time>2017-10-10T09:23:02.000Z</time>
      </trkpt>
      <trkpt lat="44.75045" lon="5.34975">
        <ele>715.61</ele>
        <time>2017-10-10T09:23:12.000Z</time>
      </trkpt>
      <trkpt lat="44.7504" lon="5.34967">
        <ele>720.42</ele>
        <time>2017-10-10T09:23:22.000Z</time>
      </trkpt>
      <trkpt lat="44.75035" lon="5.34963">
        <ele>723.83</ele>
        <time>2017-10-10T09:23:32.000Z</time>
      </trkpt>
      <trkpt lat="44.7503" lon="5.3496">
        <ele>727.12</ele>
        <time>2017-10-10T09:23:42.000Z</time>
      </trkpt>
      <trkpt lat="44.75029" lon="5.34963">
        <ele>726.06</ele>
        <time>2017-10-10T09:23:52.000Z</time>
      </trkpt>
      <trkpt lat="44.75028" lon="5.34962">
        <ele>726.67</ele>
        <time>2017-10-10T09:24:02.000Z</time>
      </trkpt>
      <trkpt lat="44.75024" lon="5.34961">
        <ele>728.67</ele>
        <time>2017-10-10T09:24:19.000Z</time>
      </trkpt>
      <trkpt lat="44.75023" lon="5.34962">
        <ele>728.55</ele>
        <time>2017-10-10T09:25:23.000Z</time>
      </trkpt>
      <trkpt lat="44.75023" lon="5.34962">
        <ele>728.54</ele>
        <time>2017-10-10T09:25:47.000Z</time>
      </trkpt>
      <trkpt lat="44.75023" lon="5.34964">
        <ele>727.98</ele>
        <time>2017-10-10T09:26:03.000Z</time>
      </trkpt>
      <trkpt lat="44.75018" lon="5.34966">
        <ele>728.89</ele>
        <time>2017-10-10T09:26:36.000Z</time>
      </trkpt>
      <trkpt lat="44.74997" lon="5.34966">
        <ele>736.45</ele>
        <time>2017-10-10T09:26:46.000Z</time>
      </trkpt>
      <trkpt lat="44.74986" lon="5.34966">
        <ele>740.14</ele>
        <time>2017-10-10T09:26:57.000Z</time>
      </trkpt>
      <trkpt lat="44.74985" lon="5.34957">
        <ele>743.8</ele>
        <time>2017-10-10T09:27:11.000Z</time>
      </trkpt>
      <trkpt lat="44.74989" lon="5.34947">
        <ele>746.43</ele>
        <time>2017-10-10T09:27:21.000Z</time>
      </trkpt>
      <trkpt lat="44.74995" lon="5.34943">
        <ele>745.33</ele>
        <time>2017-10-10T09:27:33.000Z</time>
      </trkpt>
      <trkpt lat="44.74999" lon="5.34937">
        <ele>746.35</ele>
        <time>2017-10-10T09:27:43.000Z</time>
      </trkpt>
      <trkpt lat="44.74999" lon="5.34936">
        <ele>746.84</ele>
        <time>2017-10-10T09:29:34.000Z</time>
      </trkpt>
      <trkpt lat="44.75003" lon="5.34923">
        <ele>749.92</ele>
        <time>2017-10-10T09:29:56.000Z</time>
      </trkpt>
      <trkpt lat="44.75046" lon="5.34831">
        <ele>761.85</ele>
        <time>2017-10-10T09:30:11.000Z</time>
      </trkpt>
      <trkpt lat="44.75079" lon="5.34798">
        <ele>758.49</ele>
        <time>2017-10-10T09:30:23.000Z</time>
      </trkpt>
      <trkpt lat="44.75076" lon="5.34786">
        <ele>761.59</ele>
        <time>2017-10-10T09:30:33.000Z</time>
      </trkpt>
      <trkpt lat="44.75083" lon="5.34771">
        <ele>760.81</ele>
        <time>2017-10-10T09:30:43.000Z</time>
      </trkpt>
      <trkpt lat="44.75098" lon="5.34763">
        <ele>755.77</ele>
        <time>2017-10-10T09:30:53.000Z</time>
      </trkpt>
      <trkpt lat="44.75106" lon="5.34751">
        <ele>753.78</ele>
        <time>2017-10-10T09:31:03.000Z</time>
      </trkpt>
      <trkpt lat="44.75107" lon="5.34734">
        <ele>753.64</ele>
        <time>2017-10-10T09:31:14.000Z</time>
      </trkpt>
      <trkpt lat="44.75104" lon="5.3472">
        <ele>754.97</ele>
        <time>2017-10-10T09:31:24.000Z</time>
      </trkpt>
      <trkpt lat="44.75095" lon="5.34706">
        <ele>757.59</ele>
        <time>2017-10-10T09:31:34.000Z</time>
      </trkpt>
      <trkpt lat="44.75098" lon="5.34702">
        <ele>756.45</ele>
        <time>2017-10-10T09:31:44.000Z</time>
      </trkpt>
      <trkpt lat="44.75092" lon="5.34688">
        <ele>756.9</ele>
        <time>2017-10-10T09:31:54.000Z</time>
      </trkpt>
      <trkpt lat="44.75088" lon="5.34686">
        <ele>757.44</ele>
        <time>2017-10-10T09:32:04.000Z</time>
      </trkpt>
      <trkpt lat="44.75081" lon="5.34698">
        <ele>761.03</ele>
        <time>2017-10-10T09:32:14.000Z</time>
      </trkpt>
      <trkpt lat="44.75078" lon="5.34704">
        <ele>762.13</ele>
        <time>2017-10-10T09:32:24.000Z</time>
      </trkpt>
      <trkpt lat="44.75078" lon="5.34707">
        <ele>762.7</ele>
        <time>2017-10-10T09:32:34.000Z</time>
      </trkpt>
      <trkpt lat="44.75083" lon="5.34725">
        <ele>762.29</ele>
        <time>2017-10-10T09:32:44.000Z</time>
      </trkpt>
      <trkpt lat="44.75082" lon="5.34738">
        <ele>762.71</ele>
        <time>2017-10-10T09:32:54.000Z</time>
      </trkpt>
      <trkpt lat="44.75067" lon="5.34744">
        <ele>767.16</ele>
        <time>2017-10-10T09:33:05.000Z</time>
      </trkpt>
      <trkpt lat="44.75066" lon="5.3475">
        <ele>767.28</ele>
        <time>2017-10-10T09:33:15.000Z</time>
      </trkpt>
      <trkpt lat="44.7506" lon="5.34751">
        <ele>768.89</ele>
        <time>2017-10-10T09:33:25.000Z</time>
      </trkpt>
      <trkpt lat="44.75059" lon="5.3476">
        <ele>768.98</ele>
        <time>2017-10-10T09:33:35.000Z</time>
      </trkpt>
      <trkpt lat="44.75052" lon="5.34771">
        <ele>770.06</ele>
        <time>2017-10-10T09:33:45.000Z</time>
      </trkpt>
      <trkpt lat="44.75048" lon="5.34773">
        <ele>770.98</ele>
        <time>2017-10-10T09:33:55.000Z</time>
      </trkpt>
      <trkpt lat="44.75045" lon="5.34774">
        <ele>771.69</ele>
        <time>2017-10-10T09:34:05.000Z</time>
      </trkpt>
      <trkpt lat="44.75044" lon="5.34774">
        <ele>771.94</ele>
        <time>2017-10-10T09:35:00.000Z</time>
      </trkpt>
      <trkpt lat="44.75034" lon="5.34778">
        <ele>774.22</ele>
        <time>2017-10-10T09:35:17.000Z</time>
      </trkpt>
      <trkpt lat="44.74985" lon="5.34807">
        <ele>788.15</ele>
        <time>2017-10-10T09:35:34.000Z</time>
      </trkpt>
      <trkpt lat="44.74974" lon="5.34823">
        <ele>790.79</ele>
        <time>2017-10-10T09:35:45.000Z</time>
      </trkpt>
      <trkpt lat="44.74964" lon="5.3483">
        <ele>794.53</ele>
        <time>2017-10-10T09:35:55.000Z</time>
      </trkpt>
      <trkpt lat="44.74956" lon="5.34849">
        <ele>794.28</ele>
        <time>2017-10-10T09:36:05.000Z</time>
      </trkpt>
      <trkpt lat="44.74943" lon="5.34855">
        <ele>799.18</ele>
        <time>2017-10-10T09:36:15.000Z</time>
      </trkpt>
      <trkpt lat="44.74927" lon="5.34864">
        <ele>803.49</ele>
        <time>2017-10-10T09:36:25.000Z</time>
      </trkpt>
      <trkpt lat="44.74922" lon="5.34875">
        <ele>800.94</ele>
        <time>2017-10-10T09:36:35.000Z</time>
      </trkpt>
      <trkpt lat="44.74925" lon="5.34876">
        <ele>799.37</ele>
        <time>2017-10-10T09:36:45.000Z</time>
      </trkpt>
      <trkpt lat="44.74938" lon="5.34879">
        <ele>792.18</ele>
        <time>2017-10-10T09:36:55.000Z</time>
      </trkpt>
      <trkpt lat="44.74938" lon="5.34885">
        <ele>789.87</ele>
        <time>2017-10-10T09:37:05.000Z</time>
      </trkpt>
      <trkpt lat="44.74943" lon="5.34901">
        <ele>780.98</ele>
        <time>2017-10-10T09:37:18.000Z</time>
      </trkpt>
      <trkpt lat="44.74956" lon="5.34896">
        <ele>777.8</ele>
        <time>2017-10-10T09:37:30.000Z</time>
      </trkpt>
      <trkpt lat="44.7496" lon="5.34886">
        <ele>779.38</ele>
        <time>2017-10-10T09:37:56.000Z</time>
      </trkpt>
      <trkpt lat="44.74952" lon="5.34874">
        <ele>787.78</ele>
        <time>2017-10-10T09:38:11.000Z</time>
      </trkpt>
      <trkpt lat="44.74935" lon="5.34889">
        <ele>789.52</ele>
        <time>2017-10-10T09:38:35.000Z</time>
      </trkpt>
      <trkpt lat="44.74944" lon="5.34894">
        <ele>783.52</ele>
        <time>2017-10-10T09:38:45.000Z</time>
      </trkpt>
      <trkpt lat="44.74945" lon="5.34891">
        <ele>784.27</ele>
        <time>2017-10-10T09:38:55.000Z</time>
      </trkpt>
      <trkpt lat="44.74944" lon="5.34891">
        <ele>784.54</ele>
        <time>2017-10-10T09:39:35.000Z</time>
      </trkpt>
      <trkpt lat="44.74943" lon="5.34892">
        <ele>784.55</ele>
        <time>2017-10-10T09:41:09.000Z</time>
      </trkpt>
      <trkpt lat="44.74943" lon="5.34892">
        <ele>784.77</ele>
        <time>2017-10-10T09:41:30.000Z</time>
      </trkpt>
      <trkpt lat="44.74942" lon="5.34893">
        <ele>785.02</ele>
        <time>2017-10-10T09:41:57.000Z</time>
      </trkpt>
      <trkpt lat="44.74941" lon="5.34893">
        <ele>785.35</ele>
        <time>2017-10-10T09:42:16.000Z</time>
      </trkpt>
      <trkpt lat="44.74939" lon="5.34893">
        <ele>785.82</ele>
        <time>2017-10-10T09:42:35.000Z</time>
      </trkpt>
      <trkpt lat="44.74938" lon="5.34893">
        <ele>786.18</ele>
        <time>2017-10-10T09:42:45.000Z</time>
      </trkpt>
      <trkpt lat="44.74937" lon="5.34894">
        <ele>786.41</ele>
        <time>2017-10-10T09:42:55.000Z</time>
      </trkpt>
      <trkpt lat="44.74936" lon="5.34894">
        <ele>786.71</ele>
        <time>2017-10-10T09:43:05.000Z</time>
      </trkpt>
      <trkpt lat="44.74935" lon="5.34894">
        <ele>787.04</ele>
        <time>2017-10-10T09:43:15.000Z</time>
      </trkpt>
      <trkpt lat="44.74934" lon="5.34894">
        <ele>787.38</ele>
        <time>2017-10-10T09:43:26.000Z</time>
      </trkpt>
      <trkpt lat="44.74933" lon="5.34895">
        <ele>787.78</ele>
        <time>2017-10-10T09:43:36.000Z</time>
      </trkpt>
      <trkpt lat="44.74932" lon="5.34895">
        <ele>788.16</ele>
        <time>2017-10-10T09:43:46.000Z</time>
      </trkpt>
      <trkpt lat="44.7493" lon="5.34895">
        <ele>788.79</ele>
        <time>2017-10-10T09:43:56.000Z</time>
      </trkpt>
      <trkpt lat="44.74928" lon="5.34896">
        <ele>789.31</ele>
        <time>2017-10-10T09:44:06.000Z</time>
      </trkpt>
      <trkpt lat="44.74926" lon="5.34896">
        <ele>789.88</ele>
        <time>2017-10-10T09:44:17.000Z</time>
      </trkpt>
      <trkpt lat="44.74929" lon="5.34906">
        <ele>784.34</ele>
        <time>2017-10-10T09:44:27.000Z</time>
      </trkpt>
      <trkpt lat="44.74909" lon="5.34903">
        <ele>792.68</ele>
        <time>2017-10-10T09:44:37.000Z</time>
      </trkpt>
      <trkpt lat="44.74885" lon="5.34911">
        <ele>796.79</ele>
        <time>2017-10-10T09:44:47.000Z</time>
      </trkpt>
      <trkpt lat="44.7485" lon="5.34911">
        <ele>806.64</ele>
        <time>2017-10-10T09:44:57.000Z</time>
      </trkpt>
      <trkpt lat="44.7478" lon="5.34923">
        <ele>815.6</ele>
        <time>2017-10-10T09:45:14.000Z</time>
      </trkpt>
      <trkpt lat="44.74714" lon="5.34939">
        <ele>826.37</ele>
        <time>2017-10-10T09:45:26.000Z</time>
      </trkpt>
      <trkpt lat="44.74683" lon="5.34963">
        <ele>829.35</ele>
        <time>2017-10-10T09:45:36.000Z</time>
      </trkpt>
      <trkpt lat="44.74676" lon="5.34965">
        <ele>832.1</ele>
        <time>2017-10-10T09:45:46.000Z</time>
      </trkpt>
      <trkpt lat="44.74674" lon="5.34969">
        <ele>831.94</ele>
        <time>2017-10-10T09:45:56.000Z</time>
      </trkpt>
      <trkpt lat="44.74673" lon="5.34969">
        <ele>832.35</ele>
        <time>2017-10-10T09:46:56.000Z</time>
      </trkpt>
      <trkpt lat="44.74672" lon="5.34969">
        <ele>832.46</ele>
        <time>2017-10-10T09:47:52.000Z</time>
      </trkpt>
      <trkpt lat="44.74671" lon="5.3497">
        <ele>832.42</ele>
        <time>2017-10-10T09:48:21.000Z</time>
      </trkpt>
      <trkpt lat="44.74671" lon="5.34972">
        <ele>832.22</ele>
        <time>2017-10-10T09:48:55.000Z</time>
      </trkpt>
      <trkpt lat="44.7467" lon="5.34972">
        <ele>832.31</ele>
        <time>2017-10-10T09:49:18.000Z</time>
      </trkpt>
      <trkpt lat="44.7467" lon="5.34973">
        <ele>832.31</ele>
        <time>2017-10-10T09:49:38.000Z</time>
      </trkpt>
      <trkpt lat="44.74669" lon="5.34974">
        <ele>832.43</ele>
        <time>2017-10-10T09:49:59.000Z</time>
      </trkpt>
      <trkpt lat="44.74668" lon="5.34975">
        <ele>832.55</ele>
        <time>2017-10-10T09:50:19.000Z</time>
      </trkpt>
      <trkpt lat="44.7465" lon="5.34977">
        <ele>843.11</ele>
        <time>2017-10-10T09:50:29.000Z</time>
      </trkpt>
      <trkpt lat="44.74464" lon="5.35102">
        <ele>907.86</ele>
        <time>2017-10-10T09:51:25.000Z</time>
      </trkpt>
      <trkpt lat="44.74452" lon="5.35123">
        <ele>902.33</ele>
        <time>2017-10-10T09:51:36.000Z</time>
      </trkpt>
      <trkpt lat="44.74451" lon="5.35125">
        <ele>901.56</ele>
        <time>2017-10-10T09:52:03.000Z</time>
      </trkpt>
      <trkpt lat="44.7445" lon="5.35128">
        <ele>900.53</ele>
        <time>2017-10-10T09:52:52.000Z</time>
      </trkpt>
      <trkpt lat="44.74449" lon="5.35128">
        <ele>900.47</ele>
        <time>2017-10-10T09:53:09.000Z</time>
      </trkpt>
      <trkpt lat="44.74448" lon="5.35129">
        <ele>900.15</ele>
        <time>2017-10-10T09:53:25.000Z</time>
      </trkpt>
      <trkpt lat="44.74447" lon="5.3513">
        <ele>899.99</ele>
        <time>2017-10-10T09:53:49.000Z</time>
      </trkpt>
      <trkpt lat="44.74446" lon="5.3513">
        <ele>900.31</ele>
        <time>2017-10-10T09:54:06.000Z</time>
      </trkpt>
      <trkpt lat="44.74445" lon="5.3513">
        <ele>900.78</ele>
        <time>2017-10-10T09:54:37.000Z</time>
      </trkpt>
      <trkpt lat="44.74444" lon="5.35131">
        <ele>900.69</ele>
        <time>2017-10-10T09:54:55.000Z</time>
      </trkpt>
      <trkpt lat="44.74442" lon="5.35132">
        <ele>900.31</ele>
        <time>2017-10-10T09:55:08.000Z</time>
      </trkpt>
      <trkpt lat="44.74442" lon="5.35133">
        <ele>899.79</ele>
        <time>2017-10-10T09:55:19.000Z</time>
      </trkpt>
      <trkpt lat="44.74439" lon="5.35136">
        <ele>898.51</ele>
        <time>2017-10-10T09:56:04.000Z</time>
      </trkpt>
      <trkpt lat="44.74438" lon="5.35137">
        <ele>898.22</ele>
        <time>2017-10-10T09:56:19.000Z</time>
      </trkpt>
      <trkpt lat="44.74437" lon="5.35138">
        <ele>898.13</ele>
        <time>2017-10-10T09:56:30.000Z</time>
      </trkpt>
      <trkpt lat="44.74437" lon="5.35138">
        <ele>898.18</ele>
        <time>2017-10-10T09:56:40.000Z</time>
      </trkpt>
      <trkpt lat="44.74436" lon="5.35138">
        <ele>898.32</ele>
        <time>2017-10-10T09:56:51.000Z</time>
      </trkpt>
      <trkpt lat="44.74434" lon="5.35139">
        <ele>898.01</ele>
        <time>2017-10-10T09:57:09.000Z</time>
      </trkpt>
      <trkpt lat="44.74433" lon="5.3514">
        <ele>897.59</ele>
        <time>2017-10-10T09:57:19.000Z</time>
      </trkpt>
      <trkpt lat="44.74432" lon="5.35141">
        <ele>897.31</ele>
        <time>2017-10-10T09:57:29.000Z</time>
      </trkpt>
      <trkpt lat="44.74431" lon="5.35142">
        <ele>897.33</ele>
        <time>2017-10-10T09:57:39.000Z</time>
      </trkpt>
      <trkpt lat="44.74428" lon="5.35141">
        <ele>898.02</ele>
        <time>2017-10-10T09:57:49.000Z</time>
      </trkpt>
      <trkpt lat="44.74426" lon="5.3514">
        <ele>898.96</ele>
        <time>2017-10-10T09:57:59.000Z</time>
      </trkpt>
      <trkpt lat="44.74424" lon="5.35141">
        <ele>898.84</ele>
        <time>2017-10-10T09:58:09.000Z</time>
      </trkpt>
      <trkpt lat="44.74421" lon="5.35141">
        <ele>899.29</ele>
        <time>2017-10-10T09:58:19.000Z</time>
      </trkpt>
      <trkpt lat="44.74418" lon="5.3514">
        <ele>900.47</ele>
        <time>2017-10-10T09:58:29.000Z</time>
      </trkpt>
      <trkpt lat="44.74413" lon="5.35136">
        <ele>904.12</ele>
        <time>2017-10-10T09:58:49.000Z</time>
      </trkpt>
      <trkpt lat="44.7441" lon="5.35136">
        <ele>904.46</ele>
        <time>2017-10-10T09:59:29.000Z</time>
      </trkpt>
      <trkpt lat="44.74407" lon="5.35136">
        <ele>904.87</ele>
        <time>2017-10-10T09:59:39.000Z</time>
      </trkpt>
      <trkpt lat="44.74406" lon="5.35135">
        <ele>905.54</ele>
        <time>2017-10-10T09:59:50.000Z</time>
      </trkpt>
      <trkpt lat="44.74404" lon="5.35135">
        <ele>906.23</ele>
        <time>2017-10-10T10:00:00.000Z</time>
      </trkpt>
      <trkpt lat="44.74402" lon="5.35135">
        <ele>906.66</ele>
        <time>2017-10-10T10:00:10.000Z</time>
      </trkpt>
      <trkpt lat="44.74401" lon="5.35135">
        <ele>906.44</ele>
        <time>2017-10-10T10:00:21.000Z</time>
      </trkpt>
      <trkpt lat="44.744" lon="5.35136">
        <ele>906.06</ele>
        <time>2017-10-10T10:00:31.000Z</time>
      </trkpt>
      <trkpt lat="44.74399" lon="5.35136">
        <ele>906.02</ele>
        <time>2017-10-10T10:00:44.000Z</time>
      </trkpt>
      <trkpt lat="44.74398" lon="5.35137">
        <ele>905.65</ele>
        <time>2017-10-10T10:00:58.000Z</time>
      </trkpt>
      <trkpt lat="44.74393" lon="5.3514">
        <ele>903.93</ele>
        <time>2017-10-10T10:01:31.000Z</time>
      </trkpt>
      <trkpt lat="44.74389" lon="5.35141">
        <ele>903.9</ele>
        <time>2017-10-10T10:01:41.000Z</time>
      </trkpt>
      <trkpt lat="44.74387" lon="5.35141">
        <ele>903.84</ele>
        <time>2017-10-10T10:01:51.000Z</time>
      </trkpt>
      <trkpt lat="44.74386" lon="5.35141">
        <ele>903.82</ele>
        <time>2017-10-10T10:02:01.000Z</time>
      </trkpt>
      <trkpt lat="44.74384" lon="5.35142">
        <ele>903.6</ele>
        <time>2017-10-10T10:02:41.000Z</time>
      </trkpt>
      <trkpt lat="44.74383" lon="5.35141">
        <ele>904.28</ele>
        <time>2017-10-10T10:03:00.000Z</time>
      </trkpt>
      <trkpt lat="44.74382" lon="5.3514">
        <ele>904.74</ele>
        <time>2017-10-10T10:03:41.000Z</time>
      </trkpt>
      <trkpt lat="44.7438" lon="5.35141">
        <ele>904.33</ele>
        <time>2017-10-10T10:03:53.000Z</time>
      </trkpt>
      <trkpt lat="44.74373" lon="5.35147">
        <ele>900.47</ele>
        <time>2017-10-10T10:05:29.000Z</time>
      </trkpt>
      <trkpt lat="44.74371" lon="5.35148">
        <ele>900.21</ele>
        <time>2017-10-10T10:05:40.000Z</time>
      </trkpt>
      <trkpt lat="44.7437" lon="5.35148">
        <ele>899.98</ele>
        <time>2017-10-10T10:05:50.000Z</time>
      </trkpt>
      <trkpt lat="44.74369" lon="5.35149">
        <ele>899.88</ele>
        <time>2017-10-10T10:06:01.000Z</time>
      </trkpt>
      <trkpt lat="44.74367" lon="5.35149">
        <ele>899.72</ele>
        <time>2017-10-10T10:06:11.000Z</time>
      </trkpt>
      <trkpt lat="44.74079" lon="5.35336">
        <ele>908.4</ele>
        <time>2017-10-10T10:07:32.000Z</time>
      </trkpt>
      <trkpt lat="44.74049" lon="5.35334">
        <ele>927.14</ele>
        <time>2017-10-10T10:07:42.000Z</time>
      </trkpt>
      <trkpt lat="44.74038" lon="5.35329">
        <ele>935.47</ele>
        <time>2017-10-10T10:07:58.000Z</time>
      </trkpt>
      <trkpt lat="44.74038" lon="5.35328">
        <ele>936.16</ele>
        <time>2017-10-10T10:08:11.000Z</time>
      </trkpt>
      <trkpt lat="44.74037" lon="5.35328">
        <ele>936.92</ele>
        <time>2017-10-10T10:10:05.000Z</time>
      </trkpt>
      <trkpt lat="44.7404" lon="5.35332">
        <ele>933.84</ele>
        <time>2017-10-10T10:10:15.000Z</time>
      </trkpt>
      <trkpt lat="44.74039" lon="5.35331">
        <ele>934.49</ele>
        <time>2017-10-10T10:11:00.000Z</time>
      </trkpt>
      <trkpt lat="44.74039" lon="5.35326">
        <ele>935.9</ele>
        <time>2017-10-10T10:11:14.000Z</time>
      </trkpt>
      <trkpt lat="44.74027" lon="5.35291">
        <ele>952.16</ele>
        <time>2017-10-10T10:11:25.000Z</time>
      </trkpt>
      <trkpt lat="44.74048" lon="5.35264">
        <ele>946.17</ele>
        <time>2017-10-10T10:11:41.000Z</time>
      </trkpt>
      <trkpt lat="44.74048" lon="5.3526">
        <ele>947.41</ele>
        <time>2017-10-10T10:11:51.000Z</time>
      </trkpt>
      <trkpt lat="44.74045" lon="5.35251">
        <ele>951.43</ele>
        <time>2017-10-10T10:12:01.000Z</time>
      </trkpt>
      <trkpt lat="44.74052" lon="5.35235">
        <ele>952.37</ele>
        <time>2017-10-10T10:12:12.000Z</time>
      </trkpt>
      <trkpt lat="44.74053" lon="5.35234">
        <ele>951.77</ele>
        <time>2017-10-10T10:12:22.000Z</time>
      </trkpt>
      <trkpt lat="44.74054" lon="5.35232">
        <ele>951.78</ele>
        <time>2017-10-10T10:12:32.000Z</time>
      </trkpt>
      <trkpt lat="44.74054" lon="5.35225">
        <ele>954.6</ele>
        <time>2017-10-10T10:13:22.000Z</time>
      </trkpt>
      <trkpt lat="44.74063" lon="5.35189">
        <ele>963.88</ele>
        <time>2017-10-10T10:13:32.000Z</time>
      </trkpt>
      <trkpt lat="44.74068" lon="5.35172">
        <ele>966.69</ele>
        <time>2017-10-10T10:13:42.000Z</time>
      </trkpt>
      <trkpt lat="44.74077" lon="5.35161">
        <ele>965.65</ele>
        <time>2017-10-10T10:13:52.000Z</time>
      </trkpt>
      <trkpt lat="44.74075" lon="5.35154">
        <ele>967.2</ele>
        <time>2017-10-10T10:14:02.000Z</time>
      </trkpt>
      <trkpt lat="44.74075" lon="5.35152">
        <ele>967.55</ele>
        <time>2017-10-10T10:14:12.000Z</time>
      </trkpt>
      <trkpt lat="44.74078" lon="5.3515">
        <ele>966.86</ele>
        <time>2017-10-10T10:14:32.000Z</time>
      </trkpt>
      <trkpt lat="44.74097" lon="5.35133">
        <ele>962.99</ele>
        <time>2017-10-10T10:14:42.000Z</time>
      </trkpt>
      <trkpt lat="44.74098" lon="5.35134">
        <ele>962.6</ele>
        <time>2017-10-10T10:14:53.000Z</time>
      </trkpt>
      <trkpt lat="44.74103" lon="5.35132">
        <ele>961.39</ele>
        <time>2017-10-10T10:15:12.000Z</time>
      </trkpt>
      <trkpt lat="44.74115" lon="5.35127">
        <ele>958.32</ele>
        <time>2017-10-10T10:15:23.000Z</time>
      </trkpt>
      <trkpt lat="44.74116" lon="5.35115">
        <ele>960.43</ele>
        <time>2017-10-10T10:15:33.000Z</time>
      </trkpt>
      <trkpt lat="44.74129" lon="5.35102">
        <ele>959.94</ele>
        <time>2017-10-10T10:15:43.000Z</time>
      </trkpt>
      <trkpt lat="44.74135" lon="5.35091">
        <ele>960.9</ele>
        <time>2017-10-10T10:15:53.000Z</time>
      </trkpt>
      <trkpt lat="44.74137" lon="5.35084">
        <ele>961.41</ele>
        <time>2017-10-10T10:16:03.000Z</time>
      </trkpt>
      <trkpt lat="44.74145" lon="5.35078">
        <ele>961.37</ele>
        <time>2017-10-10T10:16:13.000Z</time>
      </trkpt>
      <trkpt lat="44.74155" lon="5.35074">
        <ele>961.14</ele>
        <time>2017-10-10T10:16:24.000Z</time>
      </trkpt>
      <trkpt lat="44.74161" lon="5.35065">
        <ele>961.62</ele>
        <time>2017-10-10T10:16:34.000Z</time>
      </trkpt>
      <trkpt lat="44.74165" lon="5.35062">
        <ele>961.69</ele>
        <time>2017-10-10T10:16:44.000Z</time>
      </trkpt>
      <trkpt lat="44.74172" lon="5.35053">
        <ele>961.91</ele>
        <time>2017-10-10T10:16:54.000Z</time>
      </trkpt>
      <trkpt lat="44.7418" lon="5.35048">
        <ele>961.84</ele>
        <time>2017-10-10T10:17:04.000Z</time>
      </trkpt>
      <trkpt lat="44.74191" lon="5.35043">
        <ele>961.55</ele>
        <time>2017-10-10T10:17:14.000Z</time>
      </trkpt>
      <trkpt lat="44.74199" lon="5.35035">
        <ele>960.89</ele>
        <time>2017-10-10T10:17:24.000Z</time>
      </trkpt>
      <trkpt lat="44.74201" lon="5.35031">
        <ele>960.46</ele>
        <time>2017-10-10T10:17:34.000Z</time>
      </trkpt>
      <trkpt lat="44.74209" lon="5.35028">
        <ele>959.83</ele>
        <time>2017-10-10T10:17:44.000Z</time>
      </trkpt>
      <trkpt lat="44.74211" lon="5.35029">
        <ele>959.93</ele>
        <time>2017-10-10T10:17:54.000Z</time>
      </trkpt>
      <trkpt lat="44.74214" lon="5.35032">
        <ele>960.17</ele>
        <time>2017-10-10T10:18:04.000Z</time>
      </trkpt>
      <trkpt lat="44.7422" lon="5.35037">
        <ele>960.43</ele>
        <time>2017-10-10T10:18:14.000Z</time>
      </trkpt>
      <trkpt lat="44.74239" lon="5.35044">
        <ele>960.51</ele>
        <time>2017-10-10T10:18:24.000Z</time>
      </trkpt>
      <trkpt lat="44.74247" lon="5.35043">
        <ele>960.53</ele>
        <time>2017-10-10T10:18:34.000Z</time>
      </trkpt>
      <trkpt lat="44.74257" lon="5.35021">
        <ele>959.79</ele>
        <time>2017-10-10T10:18:44.000Z</time>
      </trkpt>
      <trkpt lat="44.74263" lon="5.35017">
        <ele>960.19</ele>
        <time>2017-10-10T10:18:54.000Z</time>
      </trkpt>
      <trkpt lat="44.7427" lon="5.35006">
        <ele>960.3</ele>
        <time>2017-10-10T10:19:04.000Z</time>
      </trkpt>
      <trkpt lat="44.7427" lon="5.34992">
        <ele>958.21</ele>
        <time>2017-10-10T10:19:14.000Z</time>
      </trkpt>
      <trkpt lat="44.74274" lon="5.34988">
        <ele>958.33</ele>
        <time>2017-10-10T10:19:24.000Z</time>
      </trkpt>
      <trkpt lat="44.74274" lon="5.34984">
        <ele>957.31</ele>
        <time>2017-10-10T10:19:34.000Z</time>
      </trkpt>
      <trkpt lat="44.74275" lon="5.34987">
        <ele>958.22</ele>
        <time>2017-10-10T10:19:44.000Z</time>
      </trkpt>
      <trkpt lat="44.74274" lon="5.34987">
        <ele>957.95</ele>
        <time>2017-10-10T10:20:26.000Z</time>
      </trkpt>
      <trkpt lat="44.74282" lon="5.34993">
        <ele>961.57</ele>
        <time>2017-10-10T10:20:36.000Z</time>
      </trkpt>
      <trkpt lat="44.74284" lon="5.34995">
        <ele>962.61</ele>
        <time>2017-10-10T10:20:46.000Z</time>
      </trkpt>
      <trkpt lat="44.74283" lon="5.34997">
        <ele>962.37</ele>
        <time>2017-10-10T10:21:35.000Z</time>
      </trkpt>
      <trkpt lat="44.74282" lon="5.34997">
        <ele>962.14</ele>
        <time>2017-10-10T10:22:02.000Z</time>
      </trkpt>
      <trkpt lat="44.74291" lon="5.34989">
        <ele>963.29</ele>
        <time>2017-10-10T10:28:35.000Z</time>
      </trkpt>
      <trkpt lat="44.74305" lon="5.34987">
        <ele>966.73</ele>
        <time>2017-10-10T10:28:45.000Z</time>
      </trkpt>
      <trkpt lat="44.74335" lon="5.34975">
        <ele>970.6</ele>
        <time>2017-10-10T10:28:55.000Z</time>
      </trkpt>
      <trkpt lat="44.74352" lon="5.3497">
        <ele>972.01</ele>
        <time>2017-10-10T10:29:05.000Z</time>
      </trkpt>
      <trkpt lat="44.74358" lon="5.34966">
        <ele>971.99</ele>
        <time>2017-10-10T10:29:16.000Z</time>
      </trkpt>
      <trkpt lat="44.74362" lon="5.34966">
        <ele>972.65</ele>
        <time>2017-10-10T10:29:26.000Z</time>
      </trkpt>
      <trkpt lat="44.7437" lon="5.34968">
        <ele>974.28</ele>
        <time>2017-10-10T10:29:36.000Z</time>
      </trkpt>
      <trkpt lat="44.74373" lon="5.34971">
        <ele>975.13</ele>
        <time>2017-10-10T10:29:46.000Z</time>
      </trkpt>
      <trkpt lat="44.74376" lon="5.34977">
        <ele>976.26</ele>
        <time>2017-10-10T10:29:56.000Z</time>
      </trkpt>
      <trkpt lat="44.74375" lon="5.34984">
        <ele>976.83</ele>
        <time>2017-10-10T10:30:06.000Z</time>
      </trkpt>
      <trkpt lat="44.74376" lon="5.34994">
        <ele>977</ele>
        <time>2017-10-10T10:30:16.000Z</time>
      </trkpt>
      <trkpt lat="44.74384" lon="5.34988">
        <ele>977.13</ele>
        <time>2017-10-10T10:30:26.000Z</time>
      </trkpt>
      <trkpt lat="44.74385" lon="5.34988">
        <ele>977.12</ele>
        <time>2017-10-10T10:30:55.000Z</time>
      </trkpt>
      <trkpt lat="44.74387" lon="5.34992">
        <ele>976.97</ele>
        <time>2017-10-10T10:31:34.000Z</time>
      </trkpt>
      <trkpt lat="44.74393" lon="5.35011">
        <ele>973.74</ele>
        <time>2017-10-10T10:31:45.000Z</time>
      </trkpt>
      <trkpt lat="44.74402" lon="5.35015">
        <ele>971.25</ele>
        <time>2017-10-10T10:31:56.000Z</time>
      </trkpt>
      <trkpt lat="44.74405" lon="5.35027">
        <ele>966.31</ele>
        <time>2017-10-10T10:32:06.000Z</time>
      </trkpt>
      <trkpt lat="44.74413" lon="5.35033">
        <ele>962.18</ele>
        <time>2017-10-10T10:32:16.000Z</time>
      </trkpt>
      <trkpt lat="44.74414" lon="5.35028">
        <ele>964.31</ele>
        <time>2017-10-10T10:32:26.000Z</time>
      </trkpt>
      <trkpt lat="44.74415" lon="5.35027">
        <ele>964.16</ele>
        <time>2017-10-10T10:32:36.000Z</time>
      </trkpt>
      <trkpt lat="44.74411" lon="5.35028">
        <ele>964.76</ele>
        <time>2017-10-10T10:32:46.000Z</time>
      </trkpt>
      <trkpt lat="44.74416" lon="5.35028">
        <ele>963.34</ele>
        <time>2017-10-10T10:32:56.000Z</time>
      </trkpt>
      <trkpt lat="44.74419" lon="5.35028">
        <ele>962.86</ele>
        <time>2017-10-10T10:33:16.000Z</time>
      </trkpt>
      <trkpt lat="44.74418" lon="5.35027">
        <ele>963.45</ele>
        <time>2017-10-10T10:35:10.000Z</time>
      </trkpt>
      <trkpt lat="44.7442" lon="5.35029">
        <ele>962.06</ele>
        <time>2017-10-10T10:35:39.000Z</time>
      </trkpt>
      <trkpt lat="44.74419" lon="5.35027">
        <ele>963.07</ele>
        <time>2017-10-10T10:35:49.000Z</time>
      </trkpt>
      <trkpt lat="44.74418" lon="5.35026">
        <ele>963.68</ele>
        <time>2017-10-10T10:36:26.000Z</time>
      </trkpt>
      <trkpt lat="44.74417" lon="5.35025">
        <ele>964.41</ele>
        <time>2017-10-10T10:36:36.000Z</time>
      </trkpt>
      <trkpt lat="44.74416" lon="5.35025">
        <ele>964.81</ele>
        <time>2017-10-10T10:36:48.000Z</time>
      </trkpt>
      <trkpt lat="44.74418" lon="5.35025">
        <ele>964.15</ele>
        <time>2017-10-10T10:36:58.000Z</time>
      </trkpt>
      <trkpt lat="44.74418" lon="5.35028">
        <ele>963.18</ele>
        <time>2017-10-10T10:37:31.000Z</time>
      </trkpt>
      <trkpt lat="44.74419" lon="5.35028">
        <ele>962.56</ele>
        <time>2017-10-10T10:37:44.000Z</time>
      </trkpt>
      <trkpt lat="44.74418" lon="5.35027">
        <ele>963.34</ele>
        <time>2017-10-10T10:38:53.000Z</time>
      </trkpt>
      <trkpt lat="44.74414" lon="5.35026">
        <ele>965.05</ele>
        <time>2017-10-10T10:39:03.000Z</time>
      </trkpt>
      <trkpt lat="44.74413" lon="5.35028">
        <ele>964.36</ele>
        <time>2017-10-10T10:39:13.000Z</time>
      </trkpt>
      <trkpt lat="44.74412" lon="5.35028">
        <ele>964.59</ele>
        <time>2017-10-10T10:39:23.000Z</time>
      </trkpt>
      <trkpt lat="44.74411" lon="5.35025">
        <ele>965.89</ele>
        <time>2017-10-10T10:40:13.000Z</time>
      </trkpt>
      <trkpt lat="44.74401" lon="5.35012">
        <ele>972.37</ele>
        <time>2017-10-10T10:40:27.000Z</time>
      </trkpt>
      <trkpt lat="44.74391" lon="5.35004">
        <ele>975.45</ele>
        <time>2017-10-10T10:40:37.000Z</time>
      </trkpt>
      <trkpt lat="44.74386" lon="5.34998">
        <ele>976.51</ele>
        <time>2017-10-10T10:40:47.000Z</time>
      </trkpt>
      <trkpt lat="44.74378" lon="5.34994">
        <ele>977</ele>
        <time>2017-10-10T10:40:57.000Z</time>
      </trkpt>
      <trkpt lat="44.74377" lon="5.34987">
        <ele>977.03</ele>
        <time>2017-10-10T10:41:07.000Z</time>
      </trkpt>
      <trkpt lat="44.74378" lon="5.34977">
        <ele>976.37</ele>
        <time>2017-10-10T10:41:18.000Z</time>
      </trkpt>
      <trkpt lat="44.74375" lon="5.34973">
        <ele>975.65</ele>
        <time>2017-10-10T10:41:28.000Z</time>
      </trkpt>
      <trkpt lat="44.74375" lon="5.34971">
        <ele>975.27</ele>
        <time>2017-10-10T10:41:38.000Z</time>
      </trkpt>
      <trkpt lat="44.74375" lon="5.3497">
        <ele>975.05</ele>
        <time>2017-10-10T10:41:48.000Z</time>
      </trkpt>
      <trkpt lat="44.74367" lon="5.34972">
        <ele>974.67</ele>
        <time>2017-10-10T10:42:03.000Z</time>
      </trkpt>
      <trkpt lat="44.74351" lon="5.34977">
        <ele>973.49</ele>
        <time>2017-10-10T10:42:17.000Z</time>
      </trkpt>
      <trkpt lat="44.74352" lon="5.34982">
        <ele>974.58</ele>
        <time>2017-10-10T10:42:28.000Z</time>
      </trkpt>
      <trkpt lat="44.7435" lon="5.34979">
        <ele>973.78</ele>
        <time>2017-10-10T10:42:38.000Z</time>
      </trkpt>
      <trkpt lat="44.7435" lon="5.34977">
        <ele>973.55</ele>
        <time>2017-10-10T10:45:10.000Z</time>
      </trkpt>
      <trkpt lat="44.7435" lon="5.34975">
        <ele>973.09</ele>
        <time>2017-10-10T10:48:43.000Z</time>
      </trkpt>
      <trkpt lat="44.7435" lon="5.34971">
        <ele>972.14</ele>
        <time>2017-10-10T11:11:08.000Z</time>
      </trkpt>
      <trkpt lat="44.74333" lon="5.34967">
        <ele>968.12</ele>
        <time>2017-10-10T11:11:21.000Z</time>
      </trkpt>
      <trkpt lat="44.74328" lon="5.34965">
        <ele>966.32</ele>
        <time>2017-10-10T11:11:39.000Z</time>
      </trkpt>
      <trkpt lat="44.74329" lon="5.34971">
        <ele>968.49</ele>
        <time>2017-10-10T11:11:50.000Z</time>
      </trkpt>
      <trkpt lat="44.7433" lon="5.34971">
        <ele>968.87</ele>
        <time>2017-10-10T11:12:04.000Z</time>
      </trkpt>
      <trkpt lat="44.74331" lon="5.34971">
        <ele>969.01</ele>
        <time>2017-10-10T11:20:24.000Z</time>
      </trkpt>
      <trkpt lat="44.74338" lon="5.34971">
        <ele>970.14</ele>
        <time>2017-10-10T11:22:09.000Z</time>
      </trkpt>
      <trkpt lat="44.74343" lon="5.34968">
        <ele>969.92</ele>
        <time>2017-10-10T11:22:19.000Z</time>
      </trkpt>
      <trkpt lat="44.7435" lon="5.34969">
        <ele>971.38</ele>
        <time>2017-10-10T11:22:29.000Z</time>
      </trkpt>
      <trkpt lat="44.74351" lon="5.34968">
        <ele>971.48</ele>
        <time>2017-10-10T11:22:39.000Z</time>
      </trkpt>
      <trkpt lat="44.74349" lon="5.34971">
        <ele>971.91</ele>
        <time>2017-10-10T11:30:30.000Z</time>
      </trkpt>
      <trkpt lat="44.7435" lon="5.34977">
        <ele>973.5</ele>
        <time>2017-10-10T11:30:43.000Z</time>
      </trkpt>
      <trkpt lat="44.74339" lon="5.34971">
        <ele>970.2</ele>
        <time>2017-10-10T11:31:27.000Z</time>
      </trkpt>
      <trkpt lat="44.7434" lon="5.34973">
        <ele>971.03</ele>
        <time>2017-10-10T11:31:37.000Z</time>
      </trkpt>
      <trkpt lat="44.74342" lon="5.34973">
        <ele>971.31</ele>
        <time>2017-10-10T11:31:55.000Z</time>
      </trkpt>
      <trkpt lat="44.74343" lon="5.34973">
        <ele>971.52</ele>
        <time>2017-10-10T11:33:19.000Z</time>
      </trkpt>
      <trkpt lat="44.74344" lon="5.34973">
        <ele>971.56</ele>
        <time>2017-10-10T11:33:29.000Z</time>
      </trkpt>
      <trkpt lat="44.74345" lon="5.34973">
        <ele>971.73</ele>
        <time>2017-10-10T11:35:14.000Z</time>
      </trkpt>
      <trkpt lat="44.74346" lon="5.34973">
        <ele>972.02</ele>
        <time>2017-10-10T11:35:58.000Z</time>
      </trkpt>
      <trkpt lat="44.74344" lon="5.34981">
        <ele>973.43</ele>
        <time>2017-10-10T11:36:08.000Z</time>
      </trkpt>
      <trkpt lat="44.74343" lon="5.34981">
        <ele>973.24</ele>
        <time>2017-10-10T11:36:18.000Z</time>
      </trkpt>
      <trkpt lat="44.74342" lon="5.34978">
        <ele>972.62</ele>
        <time>2017-10-10T11:36:28.000Z</time>
      </trkpt>
      <trkpt lat="44.74341" lon="5.34976">
        <ele>971.89</ele>
        <time>2017-10-10T11:36:54.000Z</time>
      </trkpt>
      <trkpt lat="44.7434" lon="5.34984">
        <ele>973.39</ele>
        <time>2017-10-10T11:37:27.000Z</time>
      </trkpt>
      <trkpt lat="44.74335" lon="5.34992">
        <ele>973.83</ele>
        <time>2017-10-10T11:37:38.000Z</time>
      </trkpt>
      <trkpt lat="44.74335" lon="5.34994">
        <ele>974.04</ele>
        <time>2017-10-10T11:37:49.000Z</time>
      </trkpt>
      <trkpt lat="44.7433" lon="5.34994">
        <ele>973.41</ele>
        <time>2017-10-10T11:38:03.000Z</time>
      </trkpt>
      <trkpt lat="44.74316" lon="5.35005">
        <ele>971.27</ele>
        <time>2017-10-10T11:38:14.000Z</time>
      </trkpt>
      <trkpt lat="44.74301" lon="5.35011">
        <ele>967.84</ele>
        <time>2017-10-10T11:38:24.000Z</time>
      </trkpt>
      <trkpt lat="44.74293" lon="5.35027">
        <ele>965.38</ele>
        <time>2017-10-10T11:38:36.000Z</time>
      </trkpt>
      <trkpt lat="44.74281" lon="5.35028">
        <ele>963.38</ele>
        <time>2017-10-10T11:38:49.000Z</time>
      </trkpt>
      <trkpt lat="44.7427" lon="5.35029">
        <ele>961.82</ele>
        <time>2017-10-10T11:38:59.000Z</time>
      </trkpt>
      <trkpt lat="44.74263" lon="5.35034">
        <ele>961.16</ele>
        <time>2017-10-10T11:39:09.000Z</time>
      </trkpt>
      <trkpt lat="44.74253" lon="5.35036">
        <ele>960.55</ele>
        <time>2017-10-10T11:39:19.000Z</time>
      </trkpt>
      <trkpt lat="44.74246" lon="5.35047">
        <ele>960.51</ele>
        <time>2017-10-10T11:39:29.000Z</time>
      </trkpt>
      <trkpt lat="44.74237" lon="5.35054">
        <ele>960.38</ele>
        <time>2017-10-10T11:39:39.000Z</time>
      </trkpt>
      <trkpt lat="44.74225" lon="5.35049">
        <ele>960.76</ele>
        <time>2017-10-10T11:39:49.000Z</time>
      </trkpt>
      <trkpt lat="44.74215" lon="5.35054">
        <ele>960.91</ele>
        <time>2017-10-10T11:39:59.000Z</time>
      </trkpt>
      <trkpt lat="44.74215" lon="5.35056">
        <ele>960.82</ele>
        <time>2017-10-10T11:40:16.000Z</time>
      </trkpt>
      <trkpt lat="44.74202" lon="5.35057">
        <ele>961.11</ele>
        <time>2017-10-10T11:40:26.000Z</time>
      </trkpt>
      <trkpt lat="44.74182" lon="5.35052">
        <ele>961.77</ele>
        <time>2017-10-10T11:40:37.000Z</time>
      </trkpt>
      <trkpt lat="44.74177" lon="5.35053">
        <ele>961.84</ele>
        <time>2017-10-10T11:40:47.000Z</time>
      </trkpt>
      <trkpt lat="44.74176" lon="5.35053">
        <ele>961.86</ele>
        <time>2017-10-10T11:40:59.000Z</time>
      </trkpt>
      <trkpt lat="44.74159" lon="5.35058">
        <ele>961.97</ele>
        <time>2017-10-10T11:41:09.000Z</time>
      </trkpt>
      <trkpt lat="44.74144" lon="5.35066">
        <ele>962.12</ele>
        <time>2017-10-10T11:41:19.000Z</time>
      </trkpt>
      <trkpt lat="44.74133" lon="5.35074">
        <ele>962.42</ele>
        <time>2017-10-10T11:41:29.000Z</time>
      </trkpt>
      <trkpt lat="44.74123" lon="5.35082">
        <ele>962.9</ele>
        <time>2017-10-10T11:41:39.000Z</time>
      </trkpt>
      <trkpt lat="44.74113" lon="5.35093">
        <ele>963.46</ele>
        <time>2017-10-10T11:41:49.000Z</time>
      </trkpt>
      <trkpt lat="44.74109" lon="5.35096">
        <ele>963.73</ele>
        <time>2017-10-10T11:42:00.000Z</time>
      </trkpt>
      <trkpt lat="44.74093" lon="5.35102">
        <ele>965.87</ele>
        <time>2017-10-10T11:42:10.000Z</time>
      </trkpt>
      <trkpt lat="44.74075" lon="5.35105">
        <ele>968.29</ele>
        <time>2017-10-10T11:42:20.000Z</time>
      </trkpt>
      <trkpt lat="44.74066" lon="5.35099">
        <ele>968.78</ele>
        <time>2017-10-10T11:42:30.000Z</time>
      </trkpt>
      <trkpt lat="44.74051" lon="5.35104">
        <ele>970.81</ele>
        <time>2017-10-10T11:42:40.000Z</time>
      </trkpt>
      <trkpt lat="44.74038" lon="5.35103">
        <ele>971.81</ele>
        <time>2017-10-10T11:42:50.000Z</time>
      </trkpt>
      <trkpt lat="44.74024" lon="5.3511">
        <ele>974.39</ele>
        <time>2017-10-10T11:43:00.000Z</time>
      </trkpt>
      <trkpt lat="44.74008" lon="5.35098">
        <ele>972.64</ele>
        <time>2017-10-10T11:43:10.000Z</time>
      </trkpt>
      <trkpt lat="44.73997" lon="5.35096">
        <ele>972.63</ele>
        <time>2017-10-10T11:43:20.000Z</time>
      </trkpt>
      <trkpt lat="44.73986" lon="5.35095">
        <ele>972.45</ele>
        <time>2017-10-10T11:43:30.000Z</time>
      </trkpt>
      <trkpt lat="44.7397" lon="5.35108">
        <ele>976.87</ele>
        <time>2017-10-10T11:43:40.000Z</time>
      </trkpt>
      <trkpt lat="44.73961" lon="5.35103">
        <ele>975.52</ele>
        <time>2017-10-10T11:43:50.000Z</time>
      </trkpt>
      <trkpt lat="44.73956" lon="5.35106">
        <ele>976.61</ele>
        <time>2017-10-10T11:44:00.000Z</time>
      </trkpt>
      <trkpt lat="44.73955" lon="5.35107">
        <ele>977.09</ele>
        <time>2017-10-10T11:44:10.000Z</time>
      </trkpt>
      <trkpt lat="44.73944" lon="5.35109">
        <ele>977.93</ele>
        <time>2017-10-10T11:44:39.000Z</time>
      </trkpt>
      <trkpt lat="44.73929" lon="5.35108">
        <ele>978.18</ele>
        <time>2017-10-10T11:44:49.000Z</time>
      </trkpt>
      <trkpt lat="44.73919" lon="5.351">
        <ele>975.69</ele>
        <time>2017-10-10T11:44:59.000Z</time>
      </trkpt>
      <trkpt lat="44.73909" lon="5.35115">
        <ele>981.95</ele>
        <time>2017-10-10T11:45:09.000Z</time>
      </trkpt>
      <trkpt lat="44.73903" lon="5.3512">
        <ele>984.38</ele>
        <time>2017-10-10T11:45:19.000Z</time>
      </trkpt>
      <trkpt lat="44.73888" lon="5.35106">
        <ele>980.59</ele>
        <time>2017-10-10T11:45:29.000Z</time>
      </trkpt>
      <trkpt lat="44.73879" lon="5.35104">
        <ele>980.67</ele>
        <time>2017-10-10T11:45:40.000Z</time>
      </trkpt>
      <trkpt lat="44.73873" lon="5.3511">
        <ele>983.88</ele>
        <time>2017-10-10T11:45:50.000Z</time>
      </trkpt>
      <trkpt lat="44.73864" lon="5.35111">
        <ele>985.1</ele>
        <time>2017-10-10T11:46:00.000Z</time>
      </trkpt>
      <trkpt lat="44.73857" lon="5.35117">
        <ele>988.71</ele>
        <time>2017-10-10T11:46:10.000Z</time>
      </trkpt>
      <trkpt lat="44.73847" lon="5.35114">
        <ele>988.64</ele>
        <time>2017-10-10T11:46:20.000Z</time>
      </trkpt>
      <trkpt lat="44.73839" lon="5.35109">
        <ele>987.43</ele>
        <time>2017-10-10T11:46:30.000Z</time>
      </trkpt>
      <trkpt lat="44.73829" lon="5.35109">
        <ele>988.56</ele>
        <time>2017-10-10T11:46:40.000Z</time>
      </trkpt>
      <trkpt lat="44.73822" lon="5.35109">
        <ele>989.33</ele>
        <time>2017-10-10T11:46:50.000Z</time>
      </trkpt>
      <trkpt lat="44.73813" lon="5.35108">
        <ele>989.85</ele>
        <time>2017-10-10T11:47:00.000Z</time>
      </trkpt>
      <trkpt lat="44.73807" lon="5.35107">
        <ele>990.17</ele>
        <time>2017-10-10T11:47:10.000Z</time>
      </trkpt>
      <trkpt lat="44.73801" lon="5.35123">
        <ele>998.02</ele>
        <time>2017-10-10T11:47:20.000Z</time>
      </trkpt>
      <trkpt lat="44.73791" lon="5.35112">
        <ele>994.02</ele>
        <time>2017-10-10T11:47:30.000Z</time>
      </trkpt>
      <trkpt lat="44.73782" lon="5.35108">
        <ele>993.71</ele>
        <time>2017-10-10T11:47:40.000Z</time>
      </trkpt>
      <trkpt lat="44.73776" lon="5.35113">
        <ele>996.41</ele>
        <time>2017-10-10T11:47:50.000Z</time>
      </trkpt>
      <trkpt lat="44.73765" lon="5.35112">
        <ele>997.12</ele>
        <time>2017-10-10T11:48:00.000Z</time>
      </trkpt>
      <trkpt lat="44.73754" lon="5.35116">
        <ele>1000.16</ele>
        <time>2017-10-10T11:48:10.000Z</time>
      </trkpt>
      <trkpt lat="44.73746" lon="5.35107">
        <ele>996.94</ele>
        <time>2017-10-10T11:48:20.000Z</time>
      </trkpt>
      <trkpt lat="44.73743" lon="5.35117">
        <ele>1001.24</ele>
        <time>2017-10-10T11:48:30.000Z</time>
      </trkpt>
      <trkpt lat="44.73738" lon="5.35129">
        <ele>1006.61</ele>
        <time>2017-10-10T11:48:40.000Z</time>
      </trkpt>
      <trkpt lat="44.73732" lon="5.35117">
        <ele>1002.1</ele>
        <time>2017-10-10T11:48:50.000Z</time>
      </trkpt>
      <trkpt lat="44.73722" lon="5.35109">
        <ele>999.31</ele>
        <time>2017-10-10T11:49:00.000Z</time>
      </trkpt>
      <trkpt lat="44.73713" lon="5.35113">
        <ele>1001.46</ele>
        <time>2017-10-10T11:49:10.000Z</time>
      </trkpt>
      <trkpt lat="44.737" lon="5.35104">
        <ele>998.01</ele>
        <time>2017-10-10T11:49:20.000Z</time>
      </trkpt>
      <trkpt lat="44.73693" lon="5.35103">
        <ele>997.75</ele>
        <time>2017-10-10T11:49:30.000Z</time>
      </trkpt>
      <trkpt lat="44.73685" lon="5.351">
        <ele>996.78</ele>
        <time>2017-10-10T11:49:40.000Z</time>
      </trkpt>
      <trkpt lat="44.73677" lon="5.351">
        <ele>997.2</ele>
        <time>2017-10-10T11:49:50.000Z</time>
      </trkpt>
      <trkpt lat="44.73669" lon="5.35101">
        <ele>997.61</ele>
        <time>2017-10-10T11:50:00.000Z</time>
      </trkpt>
      <trkpt lat="44.73662" lon="5.35099">
        <ele>997.26</ele>
        <time>2017-10-10T11:50:10.000Z</time>
      </trkpt>
      <trkpt lat="44.73652" lon="5.35098">
        <ele>997.59</ele>
        <time>2017-10-10T11:50:20.000Z</time>
      </trkpt>
      <trkpt lat="44.73644" lon="5.351">
        <ele>998.84</ele>
        <time>2017-10-10T11:50:30.000Z</time>
      </trkpt>
      <trkpt lat="44.73636" lon="5.35092">
        <ele>996.69</ele>
        <time>2017-10-10T11:50:42.000Z</time>
      </trkpt>
      <trkpt lat="44.73635" lon="5.35091">
        <ele>996.53</ele>
        <time>2017-10-10T11:50:52.000Z</time>
      </trkpt>
      <trkpt lat="44.73634" lon="5.35092">
        <ele>996.81</ele>
        <time>2017-10-10T11:51:05.000Z</time>
      </trkpt>
      <trkpt lat="44.73635" lon="5.35093">
        <ele>997.06</ele>
        <time>2017-10-10T11:51:15.000Z</time>
      </trkpt>
      <trkpt lat="44.73633" lon="5.35093">
        <ele>997.21</ele>
        <time>2017-10-10T11:51:57.000Z</time>
      </trkpt>
      <trkpt lat="44.73621" lon="5.35092">
        <ele>997.69</ele>
        <time>2017-10-10T11:52:07.000Z</time>
      </trkpt>
      <trkpt lat="44.73622" lon="5.3509">
        <ele>997.23</ele>
        <time>2017-10-10T11:52:25.000Z</time>
      </trkpt>
      <trkpt lat="44.73617" lon="5.35089">
        <ele>997.27</ele>
        <time>2017-10-10T11:52:35.000Z</time>
      </trkpt>
      <trkpt lat="44.73608" lon="5.35091">
        <ele>998.23</ele>
        <time>2017-10-10T11:52:45.000Z</time>
      </trkpt>
      <trkpt lat="44.73604" lon="5.35097">
        <ele>999.82</ele>
        <time>2017-10-10T11:52:55.000Z</time>
      </trkpt>
      <trkpt lat="44.73612" lon="5.35114">
        <ele>1003.49</ele>
        <time>2017-10-10T11:53:05.000Z</time>
      </trkpt>
      <trkpt lat="44.73612" lon="5.3513">
        <ele>1007.05</ele>
        <time>2017-10-10T11:53:17.000Z</time>
      </trkpt>
      <trkpt lat="44.73605" lon="5.35144">
        <ele>1009.23</ele>
        <time>2017-10-10T11:53:27.000Z</time>
      </trkpt>
      <trkpt lat="44.73606" lon="5.35153">
        <ele>1010.92</ele>
        <time>2017-10-10T11:53:37.000Z</time>
      </trkpt>
      <trkpt lat="44.73604" lon="5.35168">
        <ele>1013.32</ele>
        <time>2017-10-10T11:53:47.000Z</time>
      </trkpt>
      <trkpt lat="44.73611" lon="5.3518">
        <ele>1016.35</ele>
        <time>2017-10-10T11:53:57.000Z</time>
      </trkpt>
      <trkpt lat="44.73601" lon="5.35196">
        <ele>1016.69</ele>
        <time>2017-10-10T11:54:11.000Z</time>
      </trkpt>
      <trkpt lat="44.73607" lon="5.35209">
        <ele>1019.31</ele>
        <time>2017-10-10T11:54:22.000Z</time>
      </trkpt>
      <trkpt lat="44.73608" lon="5.35221">
        <ele>1020.95</ele>
        <time>2017-10-10T11:54:33.000Z</time>
      </trkpt>
      <trkpt lat="44.73606" lon="5.35235">
        <ele>1022.19</ele>
        <time>2017-10-10T11:54:43.000Z</time>
      </trkpt>
      <trkpt lat="44.73601" lon="5.35247">
        <ele>1023.02</ele>
        <time>2017-10-10T11:54:53.000Z</time>
      </trkpt>
      <trkpt lat="44.73598" lon="5.35258">
        <ele>1024.49</ele>
        <time>2017-10-10T11:55:03.000Z</time>
      </trkpt>
      <trkpt lat="44.73599" lon="5.35265">
        <ele>1025.73</ele>
        <time>2017-10-10T11:55:13.000Z</time>
      </trkpt>
      <trkpt lat="44.73596" lon="5.35275">
        <ele>1027.26</ele>
        <time>2017-10-10T11:55:23.000Z</time>
      </trkpt>
      <trkpt lat="44.73598" lon="5.35292">
        <ele>1030.69</ele>
        <time>2017-10-10T11:55:33.000Z</time>
      </trkpt>
      <trkpt lat="44.73587" lon="5.35306">
        <ele>1032.05</ele>
        <time>2017-10-10T11:55:43.000Z</time>
      </trkpt>
      <trkpt lat="44.73584" lon="5.35315">
        <ele>1033.53</ele>
        <time>2017-10-10T11:55:53.000Z</time>
      </trkpt>
      <trkpt lat="44.73578" lon="5.35322">
        <ele>1034.44</ele>
        <time>2017-10-10T11:56:03.000Z</time>
      </trkpt>
      <trkpt lat="44.73574" lon="5.35327">
        <ele>1035.24</ele>
        <time>2017-10-10T11:56:13.000Z</time>
      </trkpt>
      <trkpt lat="44.73565" lon="5.3533">
        <ele>1035.53</ele>
        <time>2017-10-10T11:56:23.000Z</time>
      </trkpt>
      <trkpt lat="44.73557" lon="5.35327">
        <ele>1035.06</ele>
        <time>2017-10-10T11:56:33.000Z</time>
      </trkpt>
      <trkpt lat="44.73551" lon="5.35325">
        <ele>1034.76</ele>
        <time>2017-10-10T11:56:43.000Z</time>
      </trkpt>
      <trkpt lat="44.73542" lon="5.35328">
        <ele>1035.53</ele>
        <time>2017-10-10T11:56:53.000Z</time>
      </trkpt>
      <trkpt lat="44.73535" lon="5.35321">
        <ele>1034.77</ele>
        <time>2017-10-10T11:57:03.000Z</time>
      </trkpt>
      <trkpt lat="44.73523" lon="5.35312">
        <ele>1033.72</ele>
        <time>2017-10-10T11:57:13.000Z</time>
      </trkpt>
      <trkpt lat="44.73517" lon="5.35316">
        <ele>1034.89</ele>
        <time>2017-10-10T11:57:23.000Z</time>
      </trkpt>
      <trkpt lat="44.73514" lon="5.35314">
        <ele>1034.59</ele>
        <time>2017-10-10T11:57:33.000Z</time>
      </trkpt>
      <trkpt lat="44.73504" lon="5.35322">
        <ele>1036.42</ele>
        <time>2017-10-10T11:57:44.000Z</time>
      </trkpt>
      <trkpt lat="44.73499" lon="5.35326">
        <ele>1037</ele>
        <time>2017-10-10T11:57:54.000Z</time>
      </trkpt>
      <trkpt lat="44.73492" lon="5.35329">
        <ele>1037.51</ele>
        <time>2017-10-10T11:58:04.000Z</time>
      </trkpt>
      <trkpt lat="44.73488" lon="5.35339">
        <ele>1038.73</ele>
        <time>2017-10-10T11:58:14.000Z</time>
      </trkpt>
      <trkpt lat="44.73482" lon="5.35352">
        <ele>1039.89</ele>
        <time>2017-10-10T11:58:24.000Z</time>
      </trkpt>
      <trkpt lat="44.73482" lon="5.3536">
        <ele>1040.41</ele>
        <time>2017-10-10T11:58:34.000Z</time>
      </trkpt>
      <trkpt lat="44.73482" lon="5.35363">
        <ele>1040.57</ele>
        <time>2017-10-10T11:58:44.000Z</time>
      </trkpt>
      <trkpt lat="44.73485" lon="5.35365">
        <ele>1040.67</ele>
        <time>2017-10-10T11:58:54.000Z</time>
      </trkpt>
      <trkpt lat="44.73486" lon="5.35363">
        <ele>1040.59</ele>
        <time>2017-10-10T11:59:04.000Z</time>
      </trkpt>
      <trkpt lat="44.73483" lon="5.35366">
        <ele>1040.72</ele>
        <time>2017-10-10T12:00:04.000Z</time>
      </trkpt>
      <trkpt lat="44.73482" lon="5.35376">
        <ele>1041.07</ele>
        <time>2017-10-10T12:00:14.000Z</time>
      </trkpt>
      <trkpt lat="44.73481" lon="5.35391">
        <ele>1041.09</ele>
        <time>2017-10-10T12:00:24.000Z</time>
      </trkpt>
      <trkpt lat="44.73481" lon="5.354">
        <ele>1040.82</ele>
        <time>2017-10-10T12:00:34.000Z</time>
      </trkpt>
      <trkpt lat="44.73478" lon="5.35408">
        <ele>1040.4</ele>
        <time>2017-10-10T12:00:44.000Z</time>
      </trkpt>
      <trkpt lat="44.73477" lon="5.35409">
        <ele>1040.33</ele>
        <time>2017-10-10T12:00:54.000Z</time>
      </trkpt>
      <trkpt lat="44.73476" lon="5.35411">
        <ele>1040.22</ele>
        <time>2017-10-10T12:01:04.000Z</time>
      </trkpt>
      <trkpt lat="44.73466" lon="5.35426">
        <ele>1038.98</ele>
        <time>2017-10-10T12:01:14.000Z</time>
      </trkpt>
      <trkpt lat="44.73452" lon="5.35446">
        <ele>1036.27</ele>
        <time>2017-10-10T12:01:24.000Z</time>
      </trkpt>
      <trkpt lat="44.73444" lon="5.35463">
        <ele>1033.22</ele>
        <time>2017-10-10T12:01:34.000Z</time>
      </trkpt>
      <trkpt lat="44.7344" lon="5.35474">
        <ele>1031.11</ele>
        <time>2017-10-10T12:01:44.000Z</time>
      </trkpt>
      <trkpt lat="44.73434" lon="5.35482">
        <ele>1030.25</ele>
        <time>2017-10-10T12:01:54.000Z</time>
      </trkpt>
      <trkpt lat="44.73429" lon="5.35495">
        <ele>1028.47</ele>
        <time>2017-10-10T12:02:04.000Z</time>
      </trkpt>
      <trkpt lat="44.73426" lon="5.35508">
        <ele>1026.68</ele>
        <time>2017-10-10T12:02:14.000Z</time>
      </trkpt>
      <trkpt lat="44.73425" lon="5.35522">
        <ele>1024.66</ele>
        <time>2017-10-10T12:02:24.000Z</time>
      </trkpt>
      <trkpt lat="44.73424" lon="5.35521">
        <ele>1024.95</ele>
        <time>2017-10-10T12:02:36.000Z</time>
      </trkpt>
      <trkpt lat="44.73422" lon="5.35523">
        <ele>1025.14</ele>
        <time>2017-10-10T12:03:19.000Z</time>
      </trkpt>
      <trkpt lat="44.7341" lon="5.35534">
        <ele>1026.35</ele>
        <time>2017-10-10T12:03:29.000Z</time>
      </trkpt>
      <trkpt lat="44.73407" lon="5.35554">
        <ele>1024.12</ele>
        <time>2017-10-10T12:03:39.000Z</time>
      </trkpt>
      <trkpt lat="44.73409" lon="5.35571">
        <ele>1021.04</ele>
        <time>2017-10-10T12:03:49.000Z</time>
      </trkpt>
      <trkpt lat="44.7341" lon="5.35583">
        <ele>1018.95</ele>
        <time>2017-10-10T12:03:59.000Z</time>
      </trkpt>
      <trkpt lat="44.73412" lon="5.35589">
        <ele>1017.48</ele>
        <time>2017-10-10T12:04:09.000Z</time>
      </trkpt>
      <trkpt lat="44.73406" lon="5.35604">
        <ele>1017.29</ele>
        <time>2017-10-10T12:04:19.000Z</time>
      </trkpt>
      <trkpt lat="44.73405" lon="5.35621">
        <ele>1015.31</ele>
        <time>2017-10-10T12:04:31.000Z</time>
      </trkpt>
      <trkpt lat="44.73405" lon="5.35627">
        <ele>1014.43</ele>
        <time>2017-10-10T12:04:41.000Z</time>
      </trkpt>
      <trkpt lat="44.73399" lon="5.35636">
        <ele>1014.83</ele>
        <time>2017-10-10T12:04:51.000Z</time>
      </trkpt>
      <trkpt lat="44.73397" lon="5.35653">
        <ele>1013.47</ele>
        <time>2017-10-10T12:05:01.000Z</time>
      </trkpt>
      <trkpt lat="44.73396" lon="5.3566">
        <ele>1012.85</ele>
        <time>2017-10-10T12:05:11.000Z</time>
      </trkpt>
      <trkpt lat="44.73397" lon="5.35663">
        <ele>1012.08</ele>
        <time>2017-10-10T12:05:21.000Z</time>
      </trkpt>
      <trkpt lat="44.73398" lon="5.35664">
        <ele>1011.55</ele>
        <time>2017-10-10T12:05:31.000Z</time>
      </trkpt>
      <trkpt lat="44.73397" lon="5.35665">
        <ele>1011.85</ele>
        <time>2017-10-10T12:05:41.000Z</time>
      </trkpt>
      <trkpt lat="44.73402" lon="5.35684">
        <ele>1008.34</ele>
        <time>2017-10-10T12:05:51.000Z</time>
      </trkpt>
      <trkpt lat="44.73402" lon="5.35701">
        <ele>1006.6</ele>
        <time>2017-10-10T12:06:03.000Z</time>
      </trkpt>
      <trkpt lat="44.73402" lon="5.3571">
        <ele>1005.94</ele>
        <time>2017-10-10T12:06:14.000Z</time>
      </trkpt>
      <trkpt lat="44.73403" lon="5.35716">
        <ele>1005.06</ele>
        <time>2017-10-10T12:06:25.000Z</time>
      </trkpt>
      <trkpt lat="44.73405" lon="5.35728">
        <ele>1003.69</ele>
        <time>2017-10-10T12:06:37.000Z</time>
      </trkpt>
      <trkpt lat="44.73404" lon="5.35748">
        <ele>1002.25</ele>
        <time>2017-10-10T12:06:47.000Z</time>
      </trkpt>
      <trkpt lat="44.73402" lon="5.35762">
        <ele>1001.41</ele>
        <time>2017-10-10T12:06:57.000Z</time>
      </trkpt>
      <trkpt lat="44.73401" lon="5.35768">
        <ele>1000.92</ele>
        <time>2017-10-10T12:07:07.000Z</time>
      </trkpt>
      <trkpt lat="44.734" lon="5.35784">
        <ele>999.61</ele>
        <time>2017-10-10T12:07:17.000Z</time>
      </trkpt>
      <trkpt lat="44.73396" lon="5.35796">
        <ele>999.4</ele>
        <time>2017-10-10T12:07:27.000Z</time>
      </trkpt>
      <trkpt lat="44.73393" lon="5.35808">
        <ele>998.9</ele>
        <time>2017-10-10T12:07:37.000Z</time>
      </trkpt>
      <trkpt lat="44.73391" lon="5.35815">
        <ele>998.59</ele>
        <time>2017-10-10T12:07:47.000Z</time>
      </trkpt>
      <trkpt lat="44.73388" lon="5.35816">
        <ele>999.1</ele>
        <time>2017-10-10T12:07:57.000Z</time>
      </trkpt>
      <trkpt lat="44.73388" lon="5.35818">
        <ele>998.7</ele>
        <time>2017-10-10T12:08:17.000Z</time>
      </trkpt>
      <trkpt lat="44.73392" lon="5.35835">
        <ele>996.28</ele>
        <time>2017-10-10T12:08:27.000Z</time>
      </trkpt>
      <trkpt lat="44.73393" lon="5.3584">
        <ele>995.7</ele>
        <time>2017-10-10T12:08:37.000Z</time>
      </trkpt>
      <trkpt lat="44.73393" lon="5.35841">
        <ele>995.78</ele>
        <time>2017-10-10T12:08:57.000Z</time>
      </trkpt>
      <trkpt lat="44.73392" lon="5.35845">
        <ele>995.56</ele>
        <time>2017-10-10T12:09:09.000Z</time>
      </trkpt>
      <trkpt lat="44.73393" lon="5.35857">
        <ele>994.74</ele>
        <time>2017-10-10T12:09:19.000Z</time>
      </trkpt>
      <trkpt lat="44.7339" lon="5.35857">
        <ele>995.11</ele>
        <time>2017-10-10T12:09:29.000Z</time>
      </trkpt>
      <trkpt lat="44.73392" lon="5.35858">
        <ele>994.81</ele>
        <time>2017-10-10T12:09:39.000Z</time>
      </trkpt>
      <trkpt lat="44.73394" lon="5.35876">
        <ele>993.55</ele>
        <time>2017-10-10T12:09:49.000Z</time>
      </trkpt>
      <trkpt lat="44.73392" lon="5.35889">
        <ele>992.81</ele>
        <time>2017-10-10T12:09:59.000Z</time>
      </trkpt>
      <trkpt lat="44.73394" lon="5.35905">
        <ele>990.89</ele>
        <time>2017-10-10T12:10:09.000Z</time>
      </trkpt>
      <trkpt lat="44.73387" lon="5.35915">
        <ele>989.65</ele>
        <time>2017-10-10T12:10:19.000Z</time>
      </trkpt>
      <trkpt lat="44.73385" lon="5.35925">
        <ele>987.71</ele>
        <time>2017-10-10T12:10:29.000Z</time>
      </trkpt>
      <trkpt lat="44.7338" lon="5.3594">
        <ele>984.27</ele>
        <time>2017-10-10T12:10:39.000Z</time>
      </trkpt>
      <trkpt lat="44.73369" lon="5.35946">
        <ele>982.59</ele>
        <time>2017-10-10T12:10:49.000Z</time>
      </trkpt>
      <trkpt lat="44.73355" lon="5.35945">
        <ele>982.52</ele>
        <time>2017-10-10T12:10:59.000Z</time>
      </trkpt>
      <trkpt lat="44.73348" lon="5.3594">
        <ele>983.77</ele>
        <time>2017-10-10T12:11:09.000Z</time>
      </trkpt>
      <trkpt lat="44.73341" lon="5.35938">
        <ele>984.47</ele>
        <time>2017-10-10T12:11:19.000Z</time>
      </trkpt>
      <trkpt lat="44.73329" lon="5.35932">
        <ele>985.74</ele>
        <time>2017-10-10T12:11:29.000Z</time>
      </trkpt>
      <trkpt lat="44.73316" lon="5.35926">
        <ele>987.11</ele>
        <time>2017-10-10T12:11:39.000Z</time>
      </trkpt>
      <trkpt lat="44.73307" lon="5.35918">
        <ele>988.83</ele>
        <time>2017-10-10T12:11:49.000Z</time>
      </trkpt>
      <trkpt lat="44.73296" lon="5.35926">
        <ele>985.82</ele>
        <time>2017-10-10T12:11:59.000Z</time>
      </trkpt>
      <trkpt lat="44.73277" lon="5.35932">
        <ele>982.59</ele>
        <time>2017-10-10T12:12:09.000Z</time>
      </trkpt>
      <trkpt lat="44.73273" lon="5.35932">
        <ele>982.23</ele>
        <time>2017-10-10T12:12:19.000Z</time>
      </trkpt>
      <trkpt lat="44.73267" lon="5.35929">
        <ele>982.28</ele>
        <time>2017-10-10T12:12:29.000Z</time>
      </trkpt>
      <trkpt lat="44.73255" lon="5.3593">
        <ele>980.7</ele>
        <time>2017-10-10T12:12:39.000Z</time>
      </trkpt>
      <trkpt lat="44.73245" lon="5.3593">
        <ele>979.3</ele>
        <time>2017-10-10T12:12:49.000Z</time>
      </trkpt>
      <trkpt lat="44.73244" lon="5.35944">
        <ele>975.27</ele>
        <time>2017-10-10T12:12:59.000Z</time>
      </trkpt>
      <trkpt lat="44.73222" lon="5.35939">
        <ele>973.71</ele>
        <time>2017-10-10T12:13:09.000Z</time>
      </trkpt>
      <trkpt lat="44.73215" lon="5.35931">
        <ele>975.01</ele>
        <time>2017-10-10T12:13:19.000Z</time>
      </trkpt>
      <trkpt lat="44.73219" lon="5.35933">
        <ele>975.02</ele>
        <time>2017-10-10T12:13:29.000Z</time>
      </trkpt>
      <trkpt lat="44.73217" lon="5.35932">
        <ele>975.07</ele>
        <time>2017-10-10T12:14:08.000Z</time>
      </trkpt>
      <trkpt lat="44.73213" lon="5.35932">
        <ele>974.55</ele>
        <time>2017-10-10T12:14:19.000Z</time>
      </trkpt>
      <trkpt lat="44.73217" lon="5.35932">
        <ele>975.15</ele>
        <time>2017-10-10T12:15:30.000Z</time>
      </trkpt>
      <trkpt lat="44.73231" lon="5.35948">
        <ele>972.31</ele>
        <time>2017-10-10T12:15:40.000Z</time>
      </trkpt>
      <trkpt lat="44.73239" lon="5.3595">
        <ele>972.82</ele>
        <time>2017-10-10T12:16:39.000Z</time>
      </trkpt>
      <trkpt lat="44.73258" lon="5.35948">
        <ele>975.52</ele>
        <time>2017-10-10T12:16:49.000Z</time>
      </trkpt>
      <trkpt lat="44.73277" lon="5.35946">
        <ele>978.29</ele>
        <time>2017-10-10T12:16:59.000Z</time>
      </trkpt>
      <trkpt lat="44.73285" lon="5.35954">
        <ele>976.29</ele>
        <time>2017-10-10T12:17:09.000Z</time>
      </trkpt>
      <trkpt lat="44.73275" lon="5.35961">
        <ele>973.52</ele>
        <time>2017-10-10T12:17:19.000Z</time>
      </trkpt>
      <trkpt lat="44.73263" lon="5.35966">
        <ele>970.79</ele>
        <time>2017-10-10T12:17:29.000Z</time>
      </trkpt>
      <trkpt lat="44.7325" lon="5.3597">
        <ele>968.15</ele>
        <time>2017-10-10T12:17:39.000Z</time>
      </trkpt>
      <trkpt lat="44.7324" lon="5.35973">
        <ele>966.24</ele>
        <time>2017-10-10T12:17:49.000Z</time>
      </trkpt>
      <trkpt lat="44.73227" lon="5.35965">
        <ele>966.99</ele>
        <time>2017-10-10T12:17:59.000Z</time>
      </trkpt>
      <trkpt lat="44.7321" lon="5.35952">
        <ele>968.23</ele>
        <time>2017-10-10T12:18:09.000Z</time>
      </trkpt>
      <trkpt lat="44.73199" lon="5.35962">
        <ele>963.78</ele>
        <time>2017-10-10T12:18:19.000Z</time>
      </trkpt>
      <trkpt lat="44.73196" lon="5.35977">
        <ele>959.33</ele>
        <time>2017-10-10T12:18:29.000Z</time>
      </trkpt>
      <trkpt lat="44.73204" lon="5.35982">
        <ele>959.39</ele>
        <time>2017-10-10T12:18:39.000Z</time>
      </trkpt>
      <trkpt lat="44.7321" lon="5.35984">
        <ele>959.75</ele>
        <time>2017-10-10T12:18:49.000Z</time>
      </trkpt>
      <trkpt lat="44.73217" lon="5.35987">
        <ele>959.9</ele>
        <time>2017-10-10T12:18:59.000Z</time>
      </trkpt>
      <trkpt lat="44.73231" lon="5.35995">
        <ele>959.33</ele>
        <time>2017-10-10T12:19:10.000Z</time>
      </trkpt>
      <trkpt lat="44.73242" lon="5.35995">
        <ele>960.39</ele>
        <time>2017-10-10T12:19:20.000Z</time>
      </trkpt>
      <trkpt lat="44.73251" lon="5.36001">
        <ele>959.93</ele>
        <time>2017-10-10T12:19:30.000Z</time>
      </trkpt>
      <trkpt lat="44.73264" lon="5.3601">
        <ele>958.63</ele>
        <time>2017-10-10T12:19:40.000Z</time>
      </trkpt>
      <trkpt lat="44.73275" lon="5.36019">
        <ele>956.94</ele>
        <time>2017-10-10T12:19:50.000Z</time>
      </trkpt>
      <trkpt lat="44.73285" lon="5.36035">
        <ele>953.46</ele>
        <time>2017-10-10T12:20:00.000Z</time>
      </trkpt>
      <trkpt lat="44.73294" lon="5.36042">
        <ele>951.66</ele>
        <time>2017-10-10T12:20:10.000Z</time>
      </trkpt>
      <trkpt lat="44.733" lon="5.36053">
        <ele>949.15</ele>
        <time>2017-10-10T12:20:20.000Z</time>
      </trkpt>
      <trkpt lat="44.73301" lon="5.3607">
        <ele>945.36</ele>
        <time>2017-10-10T12:20:30.000Z</time>
      </trkpt>
      <trkpt lat="44.733" lon="5.36084">
        <ele>942.75</ele>
        <time>2017-10-10T12:20:40.000Z</time>
      </trkpt>
      <trkpt lat="44.73303" lon="5.36083">
        <ele>942.75</ele>
        <time>2017-10-10T12:20:50.000Z</time>
      </trkpt>
      <trkpt lat="44.73302" lon="5.36086">
        <ele>942.4</ele>
        <time>2017-10-10T12:21:00.000Z</time>
      </trkpt>
      <trkpt lat="44.73303" lon="5.36087">
        <ele>942.19</ele>
        <time>2017-10-10T12:21:46.000Z</time>
      </trkpt>
      <trkpt lat="44.73314" lon="5.36088">
        <ele>941.19</ele>
        <time>2017-10-10T12:21:58.000Z</time>
      </trkpt>
      <trkpt lat="44.73318" lon="5.3609">
        <ele>940.42</ele>
        <time>2017-10-10T12:22:08.000Z</time>
      </trkpt>
      <trkpt lat="44.73321" lon="5.3609">
        <ele>940.24</ele>
        <time>2017-10-10T12:22:20.000Z</time>
      </trkpt>
      <trkpt lat="44.73322" lon="5.3609">
        <ele>940.13</ele>
        <time>2017-10-10T12:22:34.000Z</time>
      </trkpt>
      <trkpt lat="44.7334" lon="5.3609">
        <ele>937.77</ele>
        <time>2017-10-10T12:22:44.000Z</time>
      </trkpt>
      <trkpt lat="44.73356" lon="5.36094">
        <ele>933.72</ele>
        <time>2017-10-10T12:22:54.000Z</time>
      </trkpt>
      <trkpt lat="44.73366" lon="5.36086">
        <ele>933.21</ele>
        <time>2017-10-10T12:23:05.000Z</time>
      </trkpt>
      <trkpt lat="44.7337" lon="5.36091">
        <ele>930.83</ele>
        <time>2017-10-10T12:23:16.000Z</time>
      </trkpt>
      <trkpt lat="44.73378" lon="5.36096">
        <ele>927.28</ele>
        <time>2017-10-10T12:23:30.000Z</time>
      </trkpt>
      <trkpt lat="44.73384" lon="5.36095">
        <ele>925.82</ele>
        <time>2017-10-10T12:23:40.000Z</time>
      </trkpt>
      <trkpt lat="44.73393" lon="5.36094">
        <ele>923.58</ele>
        <time>2017-10-10T12:23:50.000Z</time>
      </trkpt>
      <trkpt lat="44.73401" lon="5.361">
        <ele>919.7</ele>
        <time>2017-10-10T12:24:00.000Z</time>
      </trkpt>
      <trkpt lat="44.73402" lon="5.36101">
        <ele>918.79</ele>
        <time>2017-10-10T12:24:10.000Z</time>
      </trkpt>
      <trkpt lat="44.73403" lon="5.361">
        <ele>918.77</ele>
        <time>2017-10-10T12:24:20.000Z</time>
      </trkpt>
      <trkpt lat="44.73408" lon="5.36097">
        <ele>918.61</ele>
        <time>2017-10-10T12:24:41.000Z</time>
      </trkpt>
      <trkpt lat="44.73427" lon="5.36096">
        <ele>913.6</ele>
        <time>2017-10-10T12:24:51.000Z</time>
      </trkpt>
      <trkpt lat="44.73442" lon="5.36086">
        <ele>912.93</ele>
        <time>2017-10-10T12:25:01.000Z</time>
      </trkpt>
      <trkpt lat="44.73453" lon="5.36083">
        <ele>910.8</ele>
        <time>2017-10-10T12:25:11.000Z</time>
      </trkpt>
      <trkpt lat="44.7346" lon="5.36083">
        <ele>908.7</ele>
        <time>2017-10-10T12:25:21.000Z</time>
      </trkpt>
      <trkpt lat="44.73465" lon="5.36097">
        <ele>901.89</ele>
        <time>2017-10-10T12:25:31.000Z</time>
      </trkpt>
      <trkpt lat="44.73476" lon="5.36095">
        <ele>899.59</ele>
        <time>2017-10-10T12:25:41.000Z</time>
      </trkpt>
      <trkpt lat="44.73488" lon="5.36086">
        <ele>899.92</ele>
        <time>2017-10-10T12:25:51.000Z</time>
      </trkpt>
      <trkpt lat="44.73496" lon="5.36086">
        <ele>897.7</ele>
        <time>2017-10-10T12:26:01.000Z</time>
      </trkpt>
      <trkpt lat="44.73499" lon="5.36085">
        <ele>897.36</ele>
        <time>2017-10-10T12:26:11.000Z</time>
      </trkpt>
      <trkpt lat="44.73507" lon="5.36085">
        <ele>895.73</ele>
        <time>2017-10-10T12:26:21.000Z</time>
      </trkpt>
      <trkpt lat="44.73509" lon="5.36089">
        <ele>893.87</ele>
        <time>2017-10-10T12:26:32.000Z</time>
      </trkpt>
      <trkpt lat="44.7352" lon="5.36098">
        <ele>889.02</ele>
        <time>2017-10-10T12:26:42.000Z</time>
      </trkpt>
      <trkpt lat="44.73515" lon="5.361">
        <ele>889.14</ele>
        <time>2017-10-10T12:26:52.000Z</time>
      </trkpt>
      <trkpt lat="44.73506" lon="5.36102">
        <ele>889.8</ele>
        <time>2017-10-10T12:27:02.000Z</time>
      </trkpt>
      <trkpt lat="44.73504" lon="5.36112">
        <ele>886.9</ele>
        <time>2017-10-10T12:27:12.000Z</time>
      </trkpt>
      <trkpt lat="44.73503" lon="5.36116">
        <ele>885.82</ele>
        <time>2017-10-10T12:27:22.000Z</time>
      </trkpt>
      <trkpt lat="44.73504" lon="5.36119">
        <ele>884.71</ele>
        <time>2017-10-10T12:27:32.000Z</time>
      </trkpt>
      <trkpt lat="44.73507" lon="5.36119">
        <ele>884.08</ele>
        <time>2017-10-10T12:27:42.000Z</time>
      </trkpt>
      <trkpt lat="44.73511" lon="5.36118">
        <ele>883.89</ele>
        <time>2017-10-10T12:27:52.000Z</time>
      </trkpt>
      <trkpt lat="44.73516" lon="5.3613">
        <ele>879.3</ele>
        <time>2017-10-10T12:28:11.000Z</time>
      </trkpt>
      <trkpt lat="44.73535" lon="5.3613">
        <ele>876.47</ele>
        <time>2017-10-10T12:28:21.000Z</time>
      </trkpt>
      <trkpt lat="44.73552" lon="5.36132">
        <ele>873.71</ele>
        <time>2017-10-10T12:28:31.000Z</time>
      </trkpt>
      <trkpt lat="44.73562" lon="5.36139">
        <ele>868.93</ele>
        <time>2017-10-10T12:28:41.000Z</time>
      </trkpt>
      <trkpt lat="44.73573" lon="5.36147">
        <ele>863.42</ele>
        <time>2017-10-10T12:28:51.000Z</time>
      </trkpt>
      <trkpt lat="44.7358" lon="5.3615">
        <ele>860.14</ele>
        <time>2017-10-10T12:29:01.000Z</time>
      </trkpt>
      <trkpt lat="44.73592" lon="5.36155">
        <ele>855.05</ele>
        <time>2017-10-10T12:29:11.000Z</time>
      </trkpt>
      <trkpt lat="44.736" lon="5.36161">
        <ele>850.18</ele>
        <time>2017-10-10T12:29:21.000Z</time>
      </trkpt>
      <trkpt lat="44.73606" lon="5.36154">
        <ele>851.39</ele>
        <time>2017-10-10T12:29:31.000Z</time>
      </trkpt>
      <trkpt lat="44.73619" lon="5.36145">
        <ele>850.22</ele>
        <time>2017-10-10T12:29:42.000Z</time>
      </trkpt>
      <trkpt lat="44.7362" lon="5.36141">
        <ele>850.99</ele>
        <time>2017-10-10T12:29:52.000Z</time>
      </trkpt>
      <trkpt lat="44.73621" lon="5.36141">
        <ele>850.7</ele>
        <time>2017-10-10T12:30:02.000Z</time>
      </trkpt>
      <trkpt lat="44.73631" lon="5.36129">
        <ele>849.49</ele>
        <time>2017-10-10T12:30:12.000Z</time>
      </trkpt>
      <trkpt lat="44.73642" lon="5.36118">
        <ele>845.53</ele>
        <time>2017-10-10T12:30:22.000Z</time>
      </trkpt>
      <trkpt lat="44.73639" lon="5.36104">
        <ele>849.02</ele>
        <time>2017-10-10T12:30:33.000Z</time>
      </trkpt>
      <trkpt lat="44.73642" lon="5.36112">
        <ele>846.36</ele>
        <time>2017-10-10T12:30:43.000Z</time>
      </trkpt>
      <trkpt lat="44.73648" lon="5.36118">
        <ele>842.37</ele>
        <time>2017-10-10T12:30:53.000Z</time>
      </trkpt>
      <trkpt lat="44.7365" lon="5.36125">
        <ele>840.6</ele>
        <time>2017-10-10T12:31:03.000Z</time>
      </trkpt>
      <trkpt lat="44.73655" lon="5.36136">
        <ele>836.89</ele>
        <time>2017-10-10T12:31:13.000Z</time>
      </trkpt>
      <trkpt lat="44.73661" lon="5.36142">
        <ele>833.98</ele>
        <time>2017-10-10T12:31:23.000Z</time>
      </trkpt>
      <trkpt lat="44.73661" lon="5.36144">
        <ele>833.56</ele>
        <time>2017-10-10T12:31:33.000Z</time>
      </trkpt>
      <trkpt lat="44.73665" lon="5.36142">
        <ele>831.96</ele>
        <time>2017-10-10T12:31:57.000Z</time>
      </trkpt>
      <trkpt lat="44.73674" lon="5.36127">
        <ele>827.76</ele>
        <time>2017-10-10T12:32:08.000Z</time>
      </trkpt>
      <trkpt lat="44.7368" lon="5.3613">
        <ele>824.84</ele>
        <time>2017-10-10T12:32:18.000Z</time>
      </trkpt>
      <trkpt lat="44.7368" lon="5.36127">
        <ele>824.73</ele>
        <time>2017-10-10T12:32:30.000Z</time>
      </trkpt>
      <trkpt lat="44.73679" lon="5.36128">
        <ele>825.25</ele>
        <time>2017-10-10T12:32:58.000Z</time>
      </trkpt>
      <trkpt lat="44.73652" lon="5.36161">
        <ele>834.88</ele>
        <time>2017-10-10T12:33:10.000Z</time>
      </trkpt>
      <trkpt lat="44.73669" lon="5.36176">
        <ele>826.82</ele>
        <time>2017-10-10T12:33:22.000Z</time>
      </trkpt>
      <trkpt lat="44.73676" lon="5.36177">
        <ele>824.46</ele>
        <time>2017-10-10T12:33:32.000Z</time>
      </trkpt>
      <trkpt lat="44.73677" lon="5.36178">
        <ele>824.11</ele>
        <time>2017-10-10T12:33:52.000Z</time>
      </trkpt>
      <trkpt lat="44.73676" lon="5.36179">
        <ele>824.09</ele>
        <time>2017-10-10T12:34:02.000Z</time>
      </trkpt>
      <trkpt lat="44.73676" lon="5.36181">
        <ele>823.67</ele>
        <time>2017-10-10T12:34:39.000Z</time>
      </trkpt>
      <trkpt lat="44.73689" lon="5.36198">
        <ele>818.2</ele>
        <time>2017-10-10T12:34:49.000Z</time>
      </trkpt>
      <trkpt lat="44.73695" lon="5.36214">
        <ele>815.62</ele>
        <time>2017-10-10T12:34:59.000Z</time>
      </trkpt>
      <trkpt lat="44.73707" lon="5.36227">
        <ele>815.17</ele>
        <time>2017-10-10T12:35:09.000Z</time>
      </trkpt>
      <trkpt lat="44.73716" lon="5.36246">
        <ele>817.16</ele>
        <time>2017-10-10T12:35:23.000Z</time>
      </trkpt>
      <trkpt lat="44.73722" lon="5.36261">
        <ele>820.23</ele>
        <time>2017-10-10T12:35:33.000Z</time>
      </trkpt>
      <trkpt lat="44.73726" lon="5.36272">
        <ele>822.97</ele>
        <time>2017-10-10T12:35:43.000Z</time>
      </trkpt>
      <trkpt lat="44.73733" lon="5.36286">
        <ele>827.74</ele>
        <time>2017-10-10T12:35:53.000Z</time>
      </trkpt>
      <trkpt lat="44.7374" lon="5.36295">
        <ele>831.09</ele>
        <time>2017-10-10T12:36:03.000Z</time>
      </trkpt>
      <trkpt lat="44.73749" lon="5.36299">
        <ele>832.99</ele>
        <time>2017-10-10T12:36:13.000Z</time>
      </trkpt>
      <trkpt lat="44.73756" lon="5.36299">
        <ele>833.11</ele>
        <time>2017-10-10T12:36:23.000Z</time>
      </trkpt>
      <trkpt lat="44.73761" lon="5.36306">
        <ele>834.23</ele>
        <time>2017-10-10T12:36:33.000Z</time>
      </trkpt>
      <trkpt lat="44.73764" lon="5.36312">
        <ele>835.25</ele>
        <time>2017-10-10T12:36:43.000Z</time>
      </trkpt>
      <trkpt lat="44.73768" lon="5.3632">
        <ele>836.09</ele>
        <time>2017-10-10T12:36:53.000Z</time>
      </trkpt>
      <trkpt lat="44.73775" lon="5.36325">
        <ele>835.62</ele>
        <time>2017-10-10T12:37:03.000Z</time>
      </trkpt>
      <trkpt lat="44.73778" lon="5.36329">
        <ele>835.55</ele>
        <time>2017-10-10T12:37:13.000Z</time>
      </trkpt>
      <trkpt lat="44.73779" lon="5.36329">
        <ele>835.39</ele>
        <time>2017-10-10T12:37:23.000Z</time>
      </trkpt>
      <trkpt lat="44.73779" lon="5.36331">
        <ele>835.41</ele>
        <time>2017-10-10T12:37:53.000Z</time>
      </trkpt>
      <trkpt lat="44.73779" lon="5.36333">
        <ele>835.48</ele>
        <time>2017-10-10T12:38:13.000Z</time>
      </trkpt>
      <trkpt lat="44.73782" lon="5.36334">
        <ele>834.97</ele>
        <time>2017-10-10T12:38:38.000Z</time>
      </trkpt>
      <trkpt lat="44.73791" lon="5.36349">
        <ele>833.17</ele>
        <time>2017-10-10T12:38:49.000Z</time>
      </trkpt>
      <trkpt lat="44.73792" lon="5.36352">
        <ele>832.7</ele>
        <time>2017-10-10T12:39:00.000Z</time>
      </trkpt>
      <trkpt lat="44.73793" lon="5.36353">
        <ele>832.41</ele>
        <time>2017-10-10T12:43:05.000Z</time>
      </trkpt>
      <trkpt lat="44.73794" lon="5.36356">
        <ele>832.12</ele>
        <time>2017-10-10T12:43:15.000Z</time>
      </trkpt>
      <trkpt lat="44.73795" lon="5.36357">
        <ele>831.92</ele>
        <time>2017-10-10T12:43:25.000Z</time>
      </trkpt>
      <trkpt lat="44.73795" lon="5.36359">
        <ele>831.63</ele>
        <time>2017-10-10T12:43:35.000Z</time>
      </trkpt>
      <trkpt lat="44.73797" lon="5.36367">
        <ele>830.64</ele>
        <time>2017-10-10T12:43:56.000Z</time>
      </trkpt>
      <trkpt lat="44.73799" lon="5.36371">
        <ele>829.79</ele>
        <time>2017-10-10T12:44:06.000Z</time>
      </trkpt>
      <trkpt lat="44.73802" lon="5.36371">
        <ele>829.19</ele>
        <time>2017-10-10T12:44:16.000Z</time>
      </trkpt>
      <trkpt lat="44.73799" lon="5.36373">
        <ele>829.46</ele>
        <time>2017-10-10T12:44:26.000Z</time>
      </trkpt>
      <trkpt lat="44.738" lon="5.36373">
        <ele>829.26</ele>
        <time>2017-10-10T12:46:06.000Z</time>
      </trkpt>
      <trkpt lat="44.73802" lon="5.36373">
        <ele>828.96</ele>
        <time>2017-10-10T12:47:04.000Z</time>
      </trkpt>
      <trkpt lat="44.73801" lon="5.36372">
        <ele>829.3</ele>
        <time>2017-10-10T12:47:16.000Z</time>
      </trkpt>
      <trkpt lat="44.73786" lon="5.36354">
        <ele>833.86</ele>
        <time>2017-10-10T12:52:03.000Z</time>
      </trkpt>
      <trkpt lat="44.73773" lon="5.36339">
        <ele>836.44</ele>
        <time>2017-10-10T12:52:15.000Z</time>
      </trkpt>
      <trkpt lat="44.73769" lon="5.3634">
        <ele>836.84</ele>
        <time>2017-10-10T12:52:26.000Z</time>
      </trkpt>
      <trkpt lat="44.7376" lon="5.36325">
        <ele>837.17</ele>
        <time>2017-10-10T12:52:37.000Z</time>
      </trkpt>
      <trkpt lat="44.73742" lon="5.36307">
        <ele>833.78</ele>
        <time>2017-10-10T12:52:48.000Z</time>
      </trkpt>
      <trkpt lat="44.73733" lon="5.36294">
        <ele>829.18</ele>
        <time>2017-10-10T12:52:58.000Z</time>
      </trkpt>
      <trkpt lat="44.73725" lon="5.36278">
        <ele>824.09</ele>
        <time>2017-10-10T12:53:08.000Z</time>
      </trkpt>
      <trkpt lat="44.73718" lon="5.36265">
        <ele>819.81</ele>
        <time>2017-10-10T12:53:18.000Z</time>
      </trkpt>
      <trkpt lat="44.73709" lon="5.36256">
        <ele>816.29</ele>
        <time>2017-10-10T12:53:28.000Z</time>
      </trkpt>
      <trkpt lat="44.73699" lon="5.36235">
        <ele>814.16</ele>
        <time>2017-10-10T12:53:38.000Z</time>
      </trkpt>
      <trkpt lat="44.73697" lon="5.36227">
        <ele>814.47</ele>
        <time>2017-10-10T12:53:48.000Z</time>
      </trkpt>
      <trkpt lat="44.73689" lon="5.36209">
        <ele>816.58</ele>
        <time>2017-10-10T12:53:58.000Z</time>
      </trkpt>
      <trkpt lat="44.73684" lon="5.36196">
        <ele>819.24</ele>
        <time>2017-10-10T12:54:08.000Z</time>
      </trkpt>
      <trkpt lat="44.73679" lon="5.36194">
        <ele>820.49</ele>
        <time>2017-10-10T12:54:18.000Z</time>
      </trkpt>
      <trkpt lat="44.73677" lon="5.36192">
        <ele>821.41</ele>
        <time>2017-10-10T12:54:28.000Z</time>
      </trkpt>
      <trkpt lat="44.73676" lon="5.3619">
        <ele>821.97</ele>
        <time>2017-10-10T12:54:38.000Z</time>
      </trkpt>
      <trkpt lat="44.73674" lon="5.36194">
        <ele>821.65</ele>
        <time>2017-10-10T12:54:48.000Z</time>
      </trkpt>
      <trkpt lat="44.73669" lon="5.36185">
        <ele>824.83</ele>
        <time>2017-10-10T12:54:58.000Z</time>
      </trkpt>
      <trkpt lat="44.7367" lon="5.36182">
        <ele>825.14</ele>
        <time>2017-10-10T12:55:08.000Z</time>
      </trkpt>
      <trkpt lat="44.7367" lon="5.36179">
        <ele>825.96</ele>
        <time>2017-10-10T12:55:18.000Z</time>
      </trkpt>
      <trkpt lat="44.7367" lon="5.36177">
        <ele>826.38</ele>
        <time>2017-10-10T12:55:36.000Z</time>
      </trkpt>
      <trkpt lat="44.7367" lon="5.3618">
        <ele>825.67</ele>
        <time>2017-10-10T12:56:18.000Z</time>
      </trkpt>
      <trkpt lat="44.7367" lon="5.36183">
        <ele>825.03</ele>
        <time>2017-10-10T12:56:28.000Z</time>
      </trkpt>
      <trkpt lat="44.73666" lon="5.36182">
        <ele>826.13</ele>
        <time>2017-10-10T12:57:01.000Z</time>
      </trkpt>
      <trkpt lat="44.73642" lon="5.36184">
        <ele>831.06</ele>
        <time>2017-10-10T12:57:13.000Z</time>
      </trkpt>
      <trkpt lat="44.73625" lon="5.36181">
        <ele>836.1</ele>
        <time>2017-10-10T12:57:27.000Z</time>
      </trkpt>
      <trkpt lat="44.73617" lon="5.36182">
        <ele>837.42</ele>
        <time>2017-10-10T12:57:38.000Z</time>
      </trkpt>
      <trkpt lat="44.73604" lon="5.36188">
        <ele>837.06</ele>
        <time>2017-10-10T12:57:48.000Z</time>
      </trkpt>
      <trkpt lat="44.73596" lon="5.362">
        <ele>831.76</ele>
        <time>2017-10-10T12:57:58.000Z</time>
      </trkpt>
      <trkpt lat="44.73581" lon="5.36195">
        <ele>837.55</ele>
        <time>2017-10-10T12:58:08.000Z</time>
      </trkpt>
      <trkpt lat="44.73577" lon="5.36203">
        <ele>833.73</ele>
        <time>2017-10-10T12:58:18.000Z</time>
      </trkpt>
      <trkpt lat="44.73571" lon="5.36203">
        <ele>834.79</ele>
        <time>2017-10-10T12:58:28.000Z</time>
      </trkpt>
      <trkpt lat="44.73558" lon="5.36217">
        <ele>829.19</ele>
        <time>2017-10-10T12:58:38.000Z</time>
      </trkpt>
      <trkpt lat="44.73549" lon="5.36232">
        <ele>823.16</ele>
        <time>2017-10-10T12:58:48.000Z</time>
      </trkpt>
      <trkpt lat="44.73542" lon="5.36242">
        <ele>819.67</ele>
        <time>2017-10-10T12:58:58.000Z</time>
      </trkpt>
      <trkpt lat="44.73536" lon="5.36257">
        <ele>814.81</ele>
        <time>2017-10-10T12:59:08.000Z</time>
      </trkpt>
      <trkpt lat="44.73531" lon="5.36269">
        <ele>812.19</ele>
        <time>2017-10-10T12:59:18.000Z</time>
      </trkpt>
      <trkpt lat="44.73523" lon="5.36274">
        <ele>813.29</ele>
        <time>2017-10-10T12:59:28.000Z</time>
      </trkpt>
      <trkpt lat="44.73508" lon="5.36282">
        <ele>816.15</ele>
        <time>2017-10-10T12:59:38.000Z</time>
      </trkpt>
      <trkpt lat="44.73497" lon="5.36291">
        <ele>817.8</ele>
        <time>2017-10-10T12:59:48.000Z</time>
      </trkpt>
      <trkpt lat="44.73487" lon="5.36293">
        <ele>821.77</ele>
        <time>2017-10-10T12:59:58.000Z</time>
      </trkpt>
      <trkpt lat="44.73478" lon="5.36294">
        <ele>826.1</ele>
        <time>2017-10-10T13:00:08.000Z</time>
      </trkpt>
      <trkpt lat="44.73471" lon="5.36311">
        <ele>826.07</ele>
        <time>2017-10-10T13:00:19.000Z</time>
      </trkpt>
      <trkpt lat="44.73477" lon="5.3632">
        <ele>821.08</ele>
        <time>2017-10-10T13:00:29.000Z</time>
      </trkpt>
      <trkpt lat="44.73486" lon="5.36338">
        <ele>813.59</ele>
        <time>2017-10-10T13:00:39.000Z</time>
      </trkpt>
      <trkpt lat="44.735" lon="5.36345">
        <ele>805.19</ele>
        <time>2017-10-10T13:00:49.000Z</time>
      </trkpt>
      <trkpt lat="44.73507" lon="5.36355">
        <ele>800.91</ele>
        <time>2017-10-10T13:00:59.000Z</time>
      </trkpt>
      <trkpt lat="44.73501" lon="5.36371">
        <ele>802.72</ele>
        <time>2017-10-10T13:01:09.000Z</time>
      </trkpt>
      <trkpt lat="44.73503" lon="5.36385">
        <ele>801.31</ele>
        <time>2017-10-10T13:01:19.000Z</time>
      </trkpt>
      <trkpt lat="44.73502" lon="5.36395">
        <ele>801.31</ele>
        <time>2017-10-10T13:01:29.000Z</time>
      </trkpt>
      <trkpt lat="44.73492" lon="5.3641">
        <ele>805.37</ele>
        <time>2017-10-10T13:01:40.000Z</time>
      </trkpt>
      <trkpt lat="44.73484" lon="5.36422">
        <ele>809.01</ele>
        <time>2017-10-10T13:01:50.000Z</time>
      </trkpt>
      <trkpt lat="44.7348" lon="5.36438">
        <ele>809.22</ele>
        <time>2017-10-10T13:02:00.000Z</time>
      </trkpt>
      <trkpt lat="44.73477" lon="5.3645">
        <ele>808.7</ele>
        <time>2017-10-10T13:02:10.000Z</time>
      </trkpt>
      <trkpt lat="44.73473" lon="5.36465">
        <ele>807.95</ele>
        <time>2017-10-10T13:02:20.000Z</time>
      </trkpt>
      <trkpt lat="44.7347" lon="5.36477">
        <ele>806.85</ele>
        <time>2017-10-10T13:02:30.000Z</time>
      </trkpt>
      <trkpt lat="44.73471" lon="5.36495">
        <ele>801.79</ele>
        <time>2017-10-10T13:02:40.000Z</time>
      </trkpt>
      <trkpt lat="44.73472" lon="5.3651">
        <ele>797.87</ele>
        <time>2017-10-10T13:02:50.000Z</time>
      </trkpt>
      <trkpt lat="44.73463" lon="5.3652">
        <ele>800.75</ele>
        <time>2017-10-10T13:03:00.000Z</time>
      </trkpt>
      <trkpt lat="44.73459" lon="5.36536">
        <ele>798.9</ele>
        <time>2017-10-10T13:03:10.000Z</time>
      </trkpt>
      <trkpt lat="44.73458" lon="5.36553">
        <ele>794.69</ele>
        <time>2017-10-10T13:03:20.000Z</time>
      </trkpt>
      <trkpt lat="44.73452" lon="5.36565">
        <ele>794.92</ele>
        <time>2017-10-10T13:03:30.000Z</time>
      </trkpt>
      <trkpt lat="44.73451" lon="5.36575">
        <ele>792.57</ele>
        <time>2017-10-10T13:03:40.000Z</time>
      </trkpt>
      <trkpt lat="44.73454" lon="5.36576">
        <ele>790.68</ele>
        <time>2017-10-10T13:03:50.000Z</time>
      </trkpt>
      <trkpt lat="44.73453" lon="5.36578">
        <ele>790.71</ele>
        <time>2017-10-10T13:04:00.000Z</time>
      </trkpt>
      <trkpt lat="44.73455" lon="5.36574">
        <ele>790.67</ele>
        <time>2017-10-10T13:04:32.000Z</time>
      </trkpt>
      <trkpt lat="44.73457" lon="5.3658">
        <ele>788.08</ele>
        <time>2017-10-10T13:04:43.000Z</time>
      </trkpt>
      <trkpt lat="44.73455" lon="5.36585">
        <ele>787.74</ele>
        <time>2017-10-10T13:04:55.000Z</time>
      </trkpt>
      <trkpt lat="44.7344" lon="5.36592">
        <ele>792.89</ele>
        <time>2017-10-10T13:05:09.000Z</time>
      </trkpt>
      <trkpt lat="44.73434" lon="5.36608">
        <ele>790.52</ele>
        <time>2017-10-10T13:05:20.000Z</time>
      </trkpt>
      <trkpt lat="44.73433" lon="5.36621">
        <ele>786.59</ele>
        <time>2017-10-10T13:05:30.000Z</time>
      </trkpt>
      <trkpt lat="44.73424" lon="5.36624">
        <ele>788.92</ele>
        <time>2017-10-10T13:05:40.000Z</time>
      </trkpt>
      <trkpt lat="44.73417" lon="5.36628">
        <ele>790.57</ele>
        <time>2017-10-10T13:05:50.000Z</time>
      </trkpt>
      <trkpt lat="44.73403" lon="5.3663">
        <ele>794.95</ele>
        <time>2017-10-10T13:06:00.000Z</time>
      </trkpt>
      <trkpt lat="44.73397" lon="5.36638">
        <ele>793.79</ele>
        <time>2017-10-10T13:06:10.000Z</time>
      </trkpt>
      <trkpt lat="44.73384" lon="5.36654">
        <ele>791.38</ele>
        <time>2017-10-10T13:06:20.000Z</time>
      </trkpt>
      <trkpt lat="44.73385" lon="5.36668">
        <ele>784.6</ele>
        <time>2017-10-10T13:06:30.000Z</time>
      </trkpt>
      <trkpt lat="44.73371" lon="5.36677">
        <ele>784.73</ele>
        <time>2017-10-10T13:06:40.000Z</time>
      </trkpt>
      <trkpt lat="44.7336" lon="5.36688">
        <ele>782.74</ele>
        <time>2017-10-10T13:06:50.000Z</time>
      </trkpt>
      <trkpt lat="44.73355" lon="5.367">
        <ele>777.83</ele>
        <time>2017-10-10T13:07:00.000Z</time>
      </trkpt>
      <trkpt lat="44.73346" lon="5.36703">
        <ele>779.49</ele>
        <time>2017-10-10T13:07:10.000Z</time>
      </trkpt>
      <trkpt lat="44.73331" lon="5.36703">
        <ele>784.8</ele>
        <time>2017-10-10T13:07:20.000Z</time>
      </trkpt>
      <trkpt lat="44.73334" lon="5.36704">
        <ele>783.44</ele>
        <time>2017-10-10T13:07:30.000Z</time>
      </trkpt>
      <trkpt lat="44.73322" lon="5.36707">
        <ele>786.23</ele>
        <time>2017-10-10T13:07:40.000Z</time>
      </trkpt>
      <trkpt lat="44.73313" lon="5.36724">
        <ele>782.28</ele>
        <time>2017-10-10T13:07:50.000Z</time>
      </trkpt>
      <trkpt lat="44.73305" lon="5.36739">
        <ele>779.37</ele>
        <time>2017-10-10T13:08:00.000Z</time>
      </trkpt>
      <trkpt lat="44.733" lon="5.36753">
        <ele>776.92</ele>
        <time>2017-10-10T13:08:10.000Z</time>
      </trkpt>
      <trkpt lat="44.73307" lon="5.36748">
        <ele>775.56</ele>
        <time>2017-10-10T13:08:20.000Z</time>
      </trkpt>
      <trkpt lat="44.7331" lon="5.36728">
        <ele>781.6</ele>
        <time>2017-10-10T13:08:31.000Z</time>
      </trkpt>
      <trkpt lat="44.73316" lon="5.36721">
        <ele>782.15</ele>
        <time>2017-10-10T13:08:41.000Z</time>
      </trkpt>
      <trkpt lat="44.73329" lon="5.36722">
        <ele>776.28</ele>
        <time>2017-10-10T13:08:51.000Z</time>
      </trkpt>
      <trkpt lat="44.7334" lon="5.36723">
        <ele>771.31</ele>
        <time>2017-10-10T13:09:01.000Z</time>
      </trkpt>
      <trkpt lat="44.73354" lon="5.36724">
        <ele>765.97</ele>
        <time>2017-10-10T13:09:11.000Z</time>
      </trkpt>
      <trkpt lat="44.73362" lon="5.36707">
        <ele>772.1</ele>
        <time>2017-10-10T13:09:21.000Z</time>
      </trkpt>
      <trkpt lat="44.73373" lon="5.36698">
        <ele>773.55</ele>
        <time>2017-10-10T13:09:31.000Z</time>
      </trkpt>
      <trkpt lat="44.73382" lon="5.36685">
        <ele>777.48</ele>
        <time>2017-10-10T13:09:41.000Z</time>
      </trkpt>
      <trkpt lat="44.73392" lon="5.36681">
        <ele>776.27</ele>
        <time>2017-10-10T13:09:51.000Z</time>
      </trkpt>
      <trkpt lat="44.73403" lon="5.36671">
        <ele>777.37</ele>
        <time>2017-10-10T13:10:01.000Z</time>
      </trkpt>
      <trkpt lat="44.73415" lon="5.36674">
        <ele>772.33</ele>
        <time>2017-10-10T13:10:11.000Z</time>
      </trkpt>
      <trkpt lat="44.73425" lon="5.36667">
        <ele>772.39</ele>
        <time>2017-10-10T13:10:21.000Z</time>
      </trkpt>
      <trkpt lat="44.73438" lon="5.36658">
        <ele>771.7</ele>
        <time>2017-10-10T13:10:31.000Z</time>
      </trkpt>
      <trkpt lat="44.73448" lon="5.36654">
        <ele>769.62</ele>
        <time>2017-10-10T13:10:41.000Z</time>
      </trkpt>
      <trkpt lat="44.73456" lon="5.36648">
        <ele>769.35</ele>
        <time>2017-10-10T13:10:51.000Z</time>
      </trkpt>
      <trkpt lat="44.73465" lon="5.36641">
        <ele>767.93</ele>
        <time>2017-10-10T13:11:01.000Z</time>
      </trkpt>
      <trkpt lat="44.73477" lon="5.36633">
        <ele>765.09</ele>
        <time>2017-10-10T13:11:11.000Z</time>
      </trkpt>
      <trkpt lat="44.73484" lon="5.3662">
        <ele>764.93</ele>
        <time>2017-10-10T13:11:21.000Z</time>
      </trkpt>
      <trkpt lat="44.73489" lon="5.36608">
        <ele>765.2</ele>
        <time>2017-10-10T13:11:31.000Z</time>
      </trkpt>
      <trkpt lat="44.73494" lon="5.36596">
        <ele>764.82</ele>
        <time>2017-10-10T13:11:41.000Z</time>
      </trkpt>
      <trkpt lat="44.73502" lon="5.36583">
        <ele>763.14</ele>
        <time>2017-10-10T13:11:51.000Z</time>
      </trkpt>
      <trkpt lat="44.73509" lon="5.36573">
        <ele>760.82</ele>
        <time>2017-10-10T13:12:01.000Z</time>
      </trkpt>
      <trkpt lat="44.73513" lon="5.3657">
        <ele>759.02</ele>
        <time>2017-10-10T13:12:11.000Z</time>
      </trkpt>
      <trkpt lat="44.73526" lon="5.36546">
        <ele>754.68</ele>
        <time>2017-10-10T13:12:21.000Z</time>
      </trkpt>
      <trkpt lat="44.73535" lon="5.36531">
        <ele>750.91</ele>
        <time>2017-10-10T13:12:31.000Z</time>
      </trkpt>
      <trkpt lat="44.7354" lon="5.36514">
        <ele>751.23</ele>
        <time>2017-10-10T13:12:41.000Z</time>
      </trkpt>
      <trkpt lat="44.73544" lon="5.36499">
        <ele>752.36</ele>
        <time>2017-10-10T13:12:51.000Z</time>
      </trkpt>
      <trkpt lat="44.73549" lon="5.36484">
        <ele>752.05</ele>
        <time>2017-10-10T13:13:01.000Z</time>
      </trkpt>
      <trkpt lat="44.73551" lon="5.36468">
        <ele>755.26</ele>
        <time>2017-10-10T13:13:11.000Z</time>
      </trkpt>
      <trkpt lat="44.73557" lon="5.36453">
        <ele>756.43</ele>
        <time>2017-10-10T13:13:22.000Z</time>
      </trkpt>
      <trkpt lat="44.73568" lon="5.36442">
        <ele>754.22</ele>
        <time>2017-10-10T13:13:32.000Z</time>
      </trkpt>
      <trkpt lat="44.73568" lon="5.36447">
        <ele>752.39</ele>
        <time>2017-10-10T13:13:42.000Z</time>
      </trkpt>
      <trkpt lat="44.73568" lon="5.36463">
        <ele>747.76</ele>
        <time>2017-10-10T13:13:52.000Z</time>
      </trkpt>
      <trkpt lat="44.73566" lon="5.36472">
        <ele>746.15</ele>
        <time>2017-10-10T13:14:02.000Z</time>
      </trkpt>
      <trkpt lat="44.73559" lon="5.36485">
        <ele>745.76</ele>
        <time>2017-10-10T13:14:12.000Z</time>
      </trkpt>
      <trkpt lat="44.7356" lon="5.365">
        <ele>741.53</ele>
        <time>2017-10-10T13:14:22.000Z</time>
      </trkpt>
      <trkpt lat="44.73555" lon="5.36515">
        <ele>741.07</ele>
        <time>2017-10-10T13:14:32.000Z</time>
      </trkpt>
      <trkpt lat="44.73552" lon="5.36529">
        <ele>739.04</ele>
        <time>2017-10-10T13:14:42.000Z</time>
      </trkpt>
      <trkpt lat="44.73553" lon="5.36548">
        <ele>734.07</ele>
        <time>2017-10-10T13:14:52.000Z</time>
      </trkpt>
      <trkpt lat="44.73548" lon="5.36565">
        <ele>733.92</ele>
        <time>2017-10-10T13:15:02.000Z</time>
      </trkpt>
      <trkpt lat="44.73544" lon="5.36576">
        <ele>734.32</ele>
        <time>2017-10-10T13:15:12.000Z</time>
      </trkpt>
      <trkpt lat="44.73541" lon="5.3659">
        <ele>733.87</ele>
        <time>2017-10-10T13:15:22.000Z</time>
      </trkpt>
      <trkpt lat="44.73538" lon="5.36601">
        <ele>734.92</ele>
        <time>2017-10-10T13:15:32.000Z</time>
      </trkpt>
      <trkpt lat="44.73532" lon="5.36616">
        <ele>736.61</ele>
        <time>2017-10-10T13:15:42.000Z</time>
      </trkpt>
      <trkpt lat="44.73523" lon="5.36633">
        <ele>740.42</ele>
        <time>2017-10-10T13:15:52.000Z</time>
      </trkpt>
      <trkpt lat="44.73521" lon="5.36645">
        <ele>739.25</ele>
        <time>2017-10-10T13:16:02.000Z</time>
      </trkpt>
      <trkpt lat="44.73521" lon="5.3666">
        <ele>735.73</ele>
        <time>2017-10-10T13:16:12.000Z</time>
      </trkpt>
      <trkpt lat="44.7351" lon="5.36671">
        <ele>738.48</ele>
        <time>2017-10-10T13:16:22.000Z</time>
      </trkpt>
      <trkpt lat="44.73501" lon="5.36678">
        <ele>739.97</ele>
        <time>2017-10-10T13:16:32.000Z</time>
      </trkpt>
      <trkpt lat="44.73497" lon="5.36694">
        <ele>735.1</ele>
        <time>2017-10-10T13:16:42.000Z</time>
      </trkpt>
      <trkpt lat="44.73489" lon="5.36712">
        <ele>728.49</ele>
        <time>2017-10-10T13:16:53.000Z</time>
      </trkpt>
      <trkpt lat="44.73482" lon="5.36718">
        <ele>728.6</ele>
        <time>2017-10-10T13:17:03.000Z</time>
      </trkpt>
      <trkpt lat="44.73472" lon="5.36726">
        <ele>727.13</ele>
        <time>2017-10-10T13:17:13.000Z</time>
      </trkpt>
      <trkpt lat="44.73464" lon="5.36735">
        <ele>725</ele>
        <time>2017-10-10T13:17:23.000Z</time>
      </trkpt>
      <trkpt lat="44.73455" lon="5.3675">
        <ele>720.53</ele>
        <time>2017-10-10T13:17:33.000Z</time>
      </trkpt>
      <trkpt lat="44.73449" lon="5.36748">
        <ele>722.76</ele>
        <time>2017-10-10T13:17:43.000Z</time>
      </trkpt>
      <trkpt lat="44.7344" lon="5.36759">
        <ele>720.44</ele>
        <time>2017-10-10T13:17:53.000Z</time>
      </trkpt>
      <trkpt lat="44.73431" lon="5.3677">
        <ele>717.46</ele>
        <time>2017-10-10T13:18:03.000Z</time>
      </trkpt>
      <trkpt lat="44.73424" lon="5.36781">
        <ele>714.39</ele>
        <time>2017-10-10T13:18:13.000Z</time>
      </trkpt>
      <trkpt lat="44.73417" lon="5.36794">
        <ele>710.31</ele>
        <time>2017-10-10T13:18:23.000Z</time>
      </trkpt>
      <trkpt lat="44.73407" lon="5.36796">
        <ele>713.82</ele>
        <time>2017-10-10T13:18:33.000Z</time>
      </trkpt>
      <trkpt lat="44.73385" lon="5.36771">
        <ele>732.96</ele>
        <time>2017-10-10T13:18:43.000Z</time>
      </trkpt>
      <trkpt lat="44.73381" lon="5.36785">
        <ele>728.73</ele>
        <time>2017-10-10T13:18:53.000Z</time>
      </trkpt>
      <trkpt lat="44.73372" lon="5.36798">
        <ele>727.61</ele>
        <time>2017-10-10T13:19:03.000Z</time>
      </trkpt>
      <trkpt lat="44.73377" lon="5.36825">
        <ele>715.82</ele>
        <time>2017-10-10T13:19:13.000Z</time>
      </trkpt>
      <trkpt lat="44.73379" lon="5.36841">
        <ele>710.21</ele>
        <time>2017-10-10T13:19:23.000Z</time>
      </trkpt>
      <trkpt lat="44.7337" lon="5.3685">
        <ele>712.23</ele>
        <time>2017-10-10T13:19:33.000Z</time>
      </trkpt>
      <trkpt lat="44.7336" lon="5.36859">
        <ele>714.37</ele>
        <time>2017-10-10T13:19:43.000Z</time>
      </trkpt>
      <trkpt lat="44.73355" lon="5.36874">
        <ele>712.77</ele>
        <time>2017-10-10T13:19:53.000Z</time>
      </trkpt>
      <trkpt lat="44.73348" lon="5.36884">
        <ele>713.2</ele>
        <time>2017-10-10T13:20:03.000Z</time>
      </trkpt>
      <trkpt lat="44.73353" lon="5.3691">
        <ele>707.2</ele>
        <time>2017-10-10T13:20:13.000Z</time>
      </trkpt>
      <trkpt lat="44.73341" lon="5.36921">
        <ele>710.9</ele>
        <time>2017-10-10T13:20:23.000Z</time>
      </trkpt>
      <trkpt lat="44.73337" lon="5.36933">
        <ele>712.61</ele>
        <time>2017-10-10T13:20:33.000Z</time>
      </trkpt>
      <trkpt lat="44.7334" lon="5.36948">
        <ele>713.26</ele>
        <time>2017-10-10T13:20:43.000Z</time>
      </trkpt>
      <trkpt lat="44.73346" lon="5.36959">
        <ele>713.54</ele>
        <time>2017-10-10T13:20:53.000Z</time>
      </trkpt>
      <trkpt lat="44.7336" lon="5.36961">
        <ele>710.57</ele>
        <time>2017-10-10T13:21:03.000Z</time>
      </trkpt>
      <trkpt lat="44.73365" lon="5.3695">
        <ele>706.91</ele>
        <time>2017-10-10T13:21:13.000Z</time>
      </trkpt>
      <trkpt lat="44.73379" lon="5.3695">
        <ele>703.74</ele>
        <time>2017-10-10T13:21:23.000Z</time>
      </trkpt>
      <trkpt lat="44.73386" lon="5.36948">
        <ele>701.67</ele>
        <time>2017-10-10T13:21:33.000Z</time>
      </trkpt>
      <trkpt lat="44.73399" lon="5.36945">
        <ele>697.8</ele>
        <time>2017-10-10T13:21:43.000Z</time>
      </trkpt>
      <trkpt lat="44.73414" lon="5.36952">
        <ele>696.55</ele>
        <time>2017-10-10T13:21:53.000Z</time>
      </trkpt>
      <trkpt lat="44.73418" lon="5.36949">
        <ele>694.72</ele>
        <time>2017-10-10T13:22:03.000Z</time>
      </trkpt>
      <trkpt lat="44.73432" lon="5.3695">
        <ele>691.44</ele>
        <time>2017-10-10T13:22:13.000Z</time>
      </trkpt>
      <trkpt lat="44.73442" lon="5.36957">
        <ele>691.34</ele>
        <time>2017-10-10T13:22:23.000Z</time>
      </trkpt>
      <trkpt lat="44.73451" lon="5.36949">
        <ele>686.51</ele>
        <time>2017-10-10T13:22:33.000Z</time>
      </trkpt>
      <trkpt lat="44.73467" lon="5.3696">
        <ele>686.66</ele>
        <time>2017-10-10T13:22:43.000Z</time>
      </trkpt>
      <trkpt lat="44.73478" lon="5.36967">
        <ele>687</ele>
        <time>2017-10-10T13:22:53.000Z</time>
      </trkpt>
      <trkpt lat="44.73482" lon="5.36963">
        <ele>684.21</ele>
        <time>2017-10-10T13:23:03.000Z</time>
      </trkpt>
      <trkpt lat="44.73486" lon="5.36964">
        <ele>684.11</ele>
        <time>2017-10-10T13:23:21.000Z</time>
      </trkpt>
      <trkpt lat="44.73517" lon="5.36976">
        <ele>683.04</ele>
        <time>2017-10-10T13:23:32.000Z</time>
      </trkpt>
      <trkpt lat="44.73534" lon="5.36996">
        <ele>688.03</ele>
        <time>2017-10-10T13:23:43.000Z</time>
      </trkpt>
      <trkpt lat="44.73545" lon="5.36997">
        <ele>686.36</ele>
        <time>2017-10-10T13:23:53.000Z</time>
      </trkpt>
      <trkpt lat="44.73545" lon="5.36974">
        <ele>678.55</ele>
        <time>2017-10-10T13:24:03.000Z</time>
      </trkpt>
      <trkpt lat="44.73532" lon="5.36954">
        <ele>672.52</ele>
        <time>2017-10-10T13:24:13.000Z</time>
      </trkpt>
      <trkpt lat="44.73525" lon="5.3694">
        <ele>668.78</ele>
        <time>2017-10-10T13:24:23.000Z</time>
      </trkpt>
      <trkpt lat="44.73518" lon="5.36928">
        <ele>666.21</ele>
        <time>2017-10-10T13:24:33.000Z</time>
      </trkpt>
      <trkpt lat="44.73502" lon="5.36917">
        <ele>666.62</ele>
        <time>2017-10-10T13:24:44.000Z</time>
      </trkpt>
      <trkpt lat="44.73486" lon="5.36906">
        <ele>668.76</ele>
        <time>2017-10-10T13:24:54.000Z</time>
      </trkpt>
      <trkpt lat="44.73479" lon="5.36909">
        <ele>670.81</ele>
        <time>2017-10-10T13:25:04.000Z</time>
      </trkpt>
      <trkpt lat="44.73463" lon="5.369">
        <ele>674.11</ele>
        <time>2017-10-10T13:25:14.000Z</time>
      </trkpt>
      <trkpt lat="44.73461" lon="5.36888">
        <ele>674.74</ele>
        <time>2017-10-10T13:25:24.000Z</time>
      </trkpt>
      <trkpt lat="44.73469" lon="5.369">
        <ele>672.61</ele>
        <time>2017-10-10T13:25:34.000Z</time>
      </trkpt>
      <trkpt lat="44.73483" lon="5.36911">
        <ele>669.88</ele>
        <time>2017-10-10T13:25:44.000Z</time>
      </trkpt>
      <trkpt lat="44.73492" lon="5.3692">
        <ele>669.13</ele>
        <time>2017-10-10T13:25:54.000Z</time>
      </trkpt>
      <trkpt lat="44.73503" lon="5.36923">
        <ele>667.52</ele>
        <time>2017-10-10T13:26:04.000Z</time>
      </trkpt>
      <trkpt lat="44.73502" lon="5.36917">
        <ele>666.6</ele>
        <time>2017-10-10T13:26:14.000Z</time>
      </trkpt>
      <trkpt lat="44.73505" lon="5.36921">
        <ele>666.71</ele>
        <time>2017-10-10T13:26:24.000Z</time>
      </trkpt>
      <trkpt lat="44.73509" lon="5.36921">
        <ele>666.05</ele>
        <time>2017-10-10T13:26:35.000Z</time>
      </trkpt>
      <trkpt lat="44.73525" lon="5.36923">
        <ele>664.25</ele>
        <time>2017-10-10T13:26:45.000Z</time>
      </trkpt>
      <trkpt lat="44.7354" lon="5.36924">
        <ele>662.64</ele>
        <time>2017-10-10T13:26:55.000Z</time>
      </trkpt>
      <trkpt lat="44.73552" lon="5.36922">
        <ele>661.06</ele>
        <time>2017-10-10T13:27:05.000Z</time>
      </trkpt>
      <trkpt lat="44.73565" lon="5.3692">
        <ele>659.03</ele>
        <time>2017-10-10T13:27:15.000Z</time>
      </trkpt>
      <trkpt lat="44.73594" lon="5.36925">
        <ele>656.13</ele>
        <time>2017-10-10T13:27:25.000Z</time>
      </trkpt>
      <trkpt lat="44.73597" lon="5.36924">
        <ele>655.48</ele>
        <time>2017-10-10T13:27:35.000Z</time>
      </trkpt>
      <trkpt lat="44.73604" lon="5.36921">
        <ele>653.79</ele>
        <time>2017-10-10T13:27:45.000Z</time>
      </trkpt>
      <trkpt lat="44.73612" lon="5.36919">
        <ele>652.12</ele>
        <time>2017-10-10T13:27:55.000Z</time>
      </trkpt>
      <trkpt lat="44.73625" lon="5.36918">
        <ele>650.07</ele>
        <time>2017-10-10T13:28:05.000Z</time>
      </trkpt>
      <trkpt lat="44.73637" lon="5.36918">
        <ele>647.78</ele>
        <time>2017-10-10T13:28:15.000Z</time>
      </trkpt>
      <trkpt lat="44.7365" lon="5.36923">
        <ele>646.37</ele>
        <time>2017-10-10T13:28:25.000Z</time>
      </trkpt>
      <trkpt lat="44.73664" lon="5.36933">
        <ele>644.71</ele>
        <time>2017-10-10T13:28:35.000Z</time>
      </trkpt>
      <trkpt lat="44.73679" lon="5.3694">
        <ele>641.49</ele>
        <time>2017-10-10T13:28:45.000Z</time>
      </trkpt>
      <trkpt lat="44.7369" lon="5.3695">
        <ele>639.13</ele>
        <time>2017-10-10T13:28:55.000Z</time>
      </trkpt>
      <trkpt lat="44.73694" lon="5.36957">
        <ele>638.82</ele>
        <time>2017-10-10T13:29:05.000Z</time>
      </trkpt>
      <trkpt lat="44.73701" lon="5.36982">
        <ele>639.67</ele>
        <time>2017-10-10T13:29:15.000Z</time>
      </trkpt>
      <trkpt lat="44.73702" lon="5.37002">
        <ele>641.7</ele>
        <time>2017-10-10T13:29:25.000Z</time>
      </trkpt>
      <trkpt lat="44.73704" lon="5.37018">
        <ele>642.6</ele>
        <time>2017-10-10T13:29:35.000Z</time>
      </trkpt>
      <trkpt lat="44.73704" lon="5.37036">
        <ele>644.78</ele>
        <time>2017-10-10T13:29:45.000Z</time>
      </trkpt>
      <trkpt lat="44.73713" lon="5.37054">
        <ele>641.21</ele>
        <time>2017-10-10T13:29:55.000Z</time>
      </trkpt>
      <trkpt lat="44.7371" lon="5.3707">
        <ele>643.92</ele>
        <time>2017-10-10T13:30:05.000Z</time>
      </trkpt>
      <trkpt lat="44.73717" lon="5.37085">
        <ele>641.32</ele>
        <time>2017-10-10T13:30:15.000Z</time>
      </trkpt>
      <trkpt lat="44.73718" lon="5.37106">
        <ele>641.96</ele>
        <time>2017-10-10T13:30:25.000Z</time>
      </trkpt>
      <trkpt lat="44.73726" lon="5.37117">
        <ele>638.02</ele>
        <time>2017-10-10T13:30:35.000Z</time>
      </trkpt>
      <trkpt lat="44.73727" lon="5.37097">
        <ele>635.5</ele>
        <time>2017-10-10T13:30:45.000Z</time>
      </trkpt>
      <trkpt lat="44.73724" lon="5.37085">
        <ele>636.68</ele>
        <time>2017-10-10T13:30:55.000Z</time>
      </trkpt>
      <trkpt lat="44.73722" lon="5.37069">
        <ele>636.57</ele>
        <time>2017-10-10T13:31:05.000Z</time>
      </trkpt>
      <trkpt lat="44.73727" lon="5.37053">
        <ele>633.5</ele>
        <time>2017-10-10T13:31:15.000Z</time>
      </trkpt>
      <trkpt lat="44.73727" lon="5.37038">
        <ele>632.48</ele>
        <time>2017-10-10T13:31:25.000Z</time>
      </trkpt>
      <trkpt lat="44.73727" lon="5.37021">
        <ele>632.01</ele>
        <time>2017-10-10T13:31:35.000Z</time>
      </trkpt>
      <trkpt lat="44.73728" lon="5.37005">
        <ele>630.29</ele>
        <time>2017-10-10T13:31:45.000Z</time>
      </trkpt>
      <trkpt lat="44.73736" lon="5.36995">
        <ele>625.97</ele>
        <time>2017-10-10T13:31:55.000Z</time>
      </trkpt>
      <trkpt lat="44.73741" lon="5.36976">
        <ele>622.2</ele>
        <time>2017-10-10T13:32:05.000Z</time>
      </trkpt>
      <trkpt lat="44.73746" lon="5.36962">
        <ele>618.7</ele>
        <time>2017-10-10T13:32:15.000Z</time>
      </trkpt>
      <trkpt lat="44.73752" lon="5.3695">
        <ele>615.11</ele>
        <time>2017-10-10T13:32:25.000Z</time>
      </trkpt>
      <trkpt lat="44.73756" lon="5.36944">
        <ele>612.87</ele>
        <time>2017-10-10T13:32:35.000Z</time>
      </trkpt>
      <trkpt lat="44.73757" lon="5.36947">
        <ele>612.82</ele>
        <time>2017-10-10T13:32:45.000Z</time>
      </trkpt>
      <trkpt lat="44.73755" lon="5.36959">
        <ele>614.98</ele>
        <time>2017-10-10T13:32:55.000Z</time>
      </trkpt>
      <trkpt lat="44.73751" lon="5.36975">
        <ele>618.58</ele>
        <time>2017-10-10T13:33:05.000Z</time>
      </trkpt>
      <trkpt lat="44.73749" lon="5.36997">
        <ele>621.33</ele>
        <time>2017-10-10T13:33:15.000Z</time>
      </trkpt>
      <trkpt lat="44.73751" lon="5.37015">
        <ele>621.14</ele>
        <time>2017-10-10T13:33:25.000Z</time>
      </trkpt>
      <trkpt lat="44.73751" lon="5.3704">
        <ele>621.27</ele>
        <time>2017-10-10T13:33:35.000Z</time>
      </trkpt>
      <trkpt lat="44.73764" lon="5.37046">
        <ele>616.19</ele>
        <time>2017-10-10T13:33:45.000Z</time>
      </trkpt>
      <trkpt lat="44.73768" lon="5.37027">
        <ele>615.22</ele>
        <time>2017-10-10T13:33:55.000Z</time>
      </trkpt>
      <trkpt lat="44.7377" lon="5.37014">
        <ele>614.63</ele>
        <time>2017-10-10T13:34:05.000Z</time>
      </trkpt>
      <trkpt lat="44.73782" lon="5.36998">
        <ele>610.16</ele>
        <time>2017-10-10T13:34:16.000Z</time>
      </trkpt>
      <trkpt lat="44.73784" lon="5.36985">
        <ele>608.61</ele>
        <time>2017-10-10T13:34:26.000Z</time>
      </trkpt>
      <trkpt lat="44.73789" lon="5.36974">
        <ele>605.85</ele>
        <time>2017-10-10T13:34:36.000Z</time>
      </trkpt>
      <trkpt lat="44.73798" lon="5.36963">
        <ele>601.46</ele>
        <time>2017-10-10T13:34:46.000Z</time>
      </trkpt>
      <trkpt lat="44.73794" lon="5.36951">
        <ele>600.88</ele>
        <time>2017-10-10T13:34:56.000Z</time>
      </trkpt>
      <trkpt lat="44.73792" lon="5.36941">
        <ele>600.02</ele>
        <time>2017-10-10T13:35:06.000Z</time>
      </trkpt>
      <trkpt lat="44.73787" lon="5.36924">
        <ele>599.2</ele>
        <time>2017-10-10T13:35:16.000Z</time>
      </trkpt>
      <trkpt lat="44.73784" lon="5.36921">
        <ele>599.93</ele>
        <time>2017-10-10T13:35:26.000Z</time>
      </trkpt>
      <trkpt lat="44.73776" lon="5.36906">
        <ele>600.56</ele>
        <time>2017-10-10T13:35:36.000Z</time>
      </trkpt>
      <trkpt lat="44.73765" lon="5.36888">
        <ele>600.94</ele>
        <time>2017-10-10T13:35:46.000Z</time>
      </trkpt>
      <trkpt lat="44.73763" lon="5.36872">
        <ele>598.7</ele>
        <time>2017-10-10T13:35:56.000Z</time>
      </trkpt>
      <trkpt lat="44.73747" lon="5.36866">
        <ele>602.22</ele>
        <time>2017-10-10T13:36:06.000Z</time>
      </trkpt>
      <trkpt lat="44.73737" lon="5.36848">
        <ele>602.64</ele>
        <time>2017-10-10T13:36:16.000Z</time>
      </trkpt>
      <trkpt lat="44.73732" lon="5.36833">
        <ele>603.27</ele>
        <time>2017-10-10T13:36:26.000Z</time>
      </trkpt>
      <trkpt lat="44.73733" lon="5.36825">
        <ele>603</ele>
        <time>2017-10-10T13:36:36.000Z</time>
      </trkpt>
      <trkpt lat="44.73739" lon="5.36834">
        <ele>601.12</ele>
        <time>2017-10-10T13:36:46.000Z</time>
      </trkpt>
      <trkpt lat="44.73741" lon="5.36836">
        <ele>600.59</ele>
        <time>2017-10-10T13:36:56.000Z</time>
      </trkpt>
      <trkpt lat="44.73741" lon="5.36833">
        <ele>600.59</ele>
        <time>2017-10-10T13:37:06.000Z</time>
      </trkpt>
      <trkpt lat="44.7374" lon="5.36832">
        <ele>600.67</ele>
        <time>2017-10-10T13:37:17.000Z</time>
      </trkpt>
      <trkpt lat="44.7374" lon="5.36831">
        <ele>600.82</ele>
        <time>2017-10-10T13:37:34.000Z</time>
      </trkpt>
      <trkpt lat="44.73743" lon="5.36838">
        <ele>599.92</ele>
        <time>2017-10-10T13:37:45.000Z</time>
      </trkpt>
      <trkpt lat="44.73758" lon="5.36855">
        <ele>597.63</ele>
        <time>2017-10-10T13:37:55.000Z</time>
      </trkpt>
      <trkpt lat="44.73781" lon="5.36877">
        <ele>594.59</ele>
        <time>2017-10-10T13:38:06.000Z</time>
      </trkpt>
      <trkpt lat="44.7379" lon="5.36877">
        <ele>592.17</ele>
        <time>2017-10-10T13:38:16.000Z</time>
      </trkpt>
      <trkpt lat="44.73804" lon="5.36882">
        <ele>588.8</ele>
        <time>2017-10-10T13:38:26.000Z</time>
      </trkpt>
      <trkpt lat="44.73818" lon="5.369">
        <ele>586.51</ele>
        <time>2017-10-10T13:38:36.000Z</time>
      </trkpt>
      <trkpt lat="44.73829" lon="5.36912">
        <ele>583.94</ele>
        <time>2017-10-10T13:38:46.000Z</time>
      </trkpt>
      <trkpt lat="44.73843" lon="5.36931">
        <ele>581.08</ele>
        <time>2017-10-10T13:38:56.000Z</time>
      </trkpt>
      <trkpt lat="44.73853" lon="5.36945">
        <ele>579.38</ele>
        <time>2017-10-10T13:39:06.000Z</time>
      </trkpt>
      <trkpt lat="44.73865" lon="5.36955">
        <ele>576.15</ele>
        <time>2017-10-10T13:39:16.000Z</time>
      </trkpt>
      <trkpt lat="44.73873" lon="5.3696">
        <ele>573.71</ele>
        <time>2017-10-10T13:39:26.000Z</time>
      </trkpt>
      <trkpt lat="44.73876" lon="5.36978">
        <ele>574.99</ele>
        <time>2017-10-10T13:39:36.000Z</time>
      </trkpt>
      <trkpt lat="44.73879" lon="5.36992">
        <ele>574.9</ele>
        <time>2017-10-10T13:39:46.000Z</time>
      </trkpt>
      <trkpt lat="44.73885" lon="5.37016">
        <ele>572.41</ele>
        <time>2017-10-10T13:39:56.000Z</time>
      </trkpt>
      <trkpt lat="44.73886" lon="5.37028">
        <ele>571.46</ele>
        <time>2017-10-10T13:40:06.000Z</time>
      </trkpt>
      <trkpt lat="44.73886" lon="5.37039">
        <ele>570.85</ele>
        <time>2017-10-10T13:40:16.000Z</time>
      </trkpt>
      <trkpt lat="44.7388" lon="5.37057">
        <ele>571.53</ele>
        <time>2017-10-10T13:40:26.000Z</time>
      </trkpt>
      <trkpt lat="44.7388" lon="5.37072">
        <ele>570.31</ele>
        <time>2017-10-10T13:40:37.000Z</time>
      </trkpt>
      <trkpt lat="44.73889" lon="5.37087">
        <ele>564.62</ele>
        <time>2017-10-10T13:40:47.000Z</time>
      </trkpt>
      <trkpt lat="44.73897" lon="5.37086">
        <ele>561.48</ele>
        <time>2017-10-10T13:40:57.000Z</time>
      </trkpt>
      <trkpt lat="44.73904" lon="5.37074">
        <ele>560.32</ele>
        <time>2017-10-10T13:41:07.000Z</time>
      </trkpt>
      <trkpt lat="44.73915" lon="5.3707">
        <ele>557.21</ele>
        <time>2017-10-10T13:41:17.000Z</time>
      </trkpt>
      <trkpt lat="44.73924" lon="5.37052">
        <ele>555.99</ele>
        <time>2017-10-10T13:41:27.000Z</time>
      </trkpt>
      <trkpt lat="44.7393" lon="5.37038">
        <ele>555.26</ele>
        <time>2017-10-10T13:41:37.000Z</time>
      </trkpt>
      <trkpt lat="44.73933" lon="5.37018">
        <ele>555.24</ele>
        <time>2017-10-10T13:41:47.000Z</time>
      </trkpt>
      <trkpt lat="44.73933" lon="5.37">
        <ele>555.68</ele>
        <time>2017-10-10T13:41:57.000Z</time>
      </trkpt>
      <trkpt lat="44.73942" lon="5.36988">
        <ele>553.13</ele>
        <time>2017-10-10T13:42:07.000Z</time>
      </trkpt>
      <trkpt lat="44.73951" lon="5.36995">
        <ele>550.38</ele>
        <time>2017-10-10T13:42:17.000Z</time>
      </trkpt>
      <trkpt lat="44.7395" lon="5.37015">
        <ele>549.79</ele>
        <time>2017-10-10T13:42:27.000Z</time>
      </trkpt>
      <trkpt lat="44.73948" lon="5.37031">
        <ele>549.83</ele>
        <time>2017-10-10T13:42:37.000Z</time>
      </trkpt>
      <trkpt lat="44.73935" lon="5.37047">
        <ele>552.81</ele>
        <time>2017-10-10T13:42:47.000Z</time>
      </trkpt>
      <trkpt lat="44.73937" lon="5.37061">
        <ele>551.37</ele>
        <time>2017-10-10T13:42:57.000Z</time>
      </trkpt>
      <trkpt lat="44.73941" lon="5.37078">
        <ele>548.53</ele>
        <time>2017-10-10T13:43:07.000Z</time>
      </trkpt>
      <trkpt lat="44.73947" lon="5.37093">
        <ele>545.45</ele>
        <time>2017-10-10T13:43:17.000Z</time>
      </trkpt>
      <trkpt lat="44.7394" lon="5.37104">
        <ele>545.74</ele>
        <time>2017-10-10T13:43:27.000Z</time>
      </trkpt>
      <trkpt lat="44.73935" lon="5.37111">
        <ele>546.03</ele>
        <time>2017-10-10T13:43:37.000Z</time>
      </trkpt>
      <trkpt lat="44.73922" lon="5.37123">
        <ele>547.11</ele>
        <time>2017-10-10T13:43:47.000Z</time>
      </trkpt>
      <trkpt lat="44.73912" lon="5.37131">
        <ele>548.25</ele>
        <time>2017-10-10T13:43:57.000Z</time>
      </trkpt>
      <trkpt lat="44.73921" lon="5.37143">
        <ele>543.56</ele>
        <time>2017-10-10T13:44:07.000Z</time>
      </trkpt>
      <trkpt lat="44.73935" lon="5.3714">
        <ele>541.08</ele>
        <time>2017-10-10T13:44:17.000Z</time>
      </trkpt>
      <trkpt lat="44.73944" lon="5.37134">
        <ele>540.59</ele>
        <time>2017-10-10T13:44:27.000Z</time>
      </trkpt>
      <trkpt lat="44.73954" lon="5.3712">
        <ele>540.9</ele>
        <time>2017-10-10T13:44:37.000Z</time>
      </trkpt>
      <trkpt lat="44.73961" lon="5.37114">
        <ele>540.56</ele>
        <time>2017-10-10T13:44:47.000Z</time>
      </trkpt>
      <trkpt lat="44.73968" lon="5.37102">
        <ele>540.59</ele>
        <time>2017-10-10T13:44:57.000Z</time>
      </trkpt>
      <trkpt lat="44.73978" lon="5.3709">
        <ele>540.06</ele>
        <time>2017-10-10T13:45:07.000Z</time>
      </trkpt>
      <trkpt lat="44.73986" lon="5.3708">
        <ele>539.61</ele>
        <time>2017-10-10T13:45:17.000Z</time>
      </trkpt>
      <trkpt lat="44.73993" lon="5.37067">
        <ele>539.51</ele>
        <time>2017-10-10T13:45:27.000Z</time>
      </trkpt>
      <trkpt lat="44.73997" lon="5.37058">
        <ele>539.42</ele>
        <time>2017-10-10T13:45:37.000Z</time>
      </trkpt>
      <trkpt lat="44.74" lon="5.37039">
        <ele>539.46</ele>
        <time>2017-10-10T13:45:47.000Z</time>
      </trkpt>
      <trkpt lat="44.74001" lon="5.37038">
        <ele>539.44</ele>
        <time>2017-10-10T13:45:57.000Z</time>
      </trkpt>
      <trkpt lat="44.74003" lon="5.37037">
        <ele>539.44</ele>
        <time>2017-10-10T13:46:07.000Z</time>
      </trkpt>
      <trkpt lat="44.74004" lon="5.37039">
        <ele>539.42</ele>
        <time>2017-10-10T13:46:17.000Z</time>
      </trkpt>
      <trkpt lat="44.74008" lon="5.37061">
        <ele>539.61</ele>
        <time>2017-10-10T13:46:27.000Z</time>
      </trkpt>
      <trkpt lat="44.74005" lon="5.37076">
        <ele>539.34</ele>
        <time>2017-10-10T13:46:37.000Z</time>
      </trkpt>
      <trkpt lat="44.74002" lon="5.37089">
        <ele>538.95</ele>
        <time>2017-10-10T13:46:47.000Z</time>
      </trkpt>
      <trkpt lat="44.73998" lon="5.37108">
        <ele>538.71</ele>
        <time>2017-10-10T13:46:57.000Z</time>
      </trkpt>
      <trkpt lat="44.73995" lon="5.37133">
        <ele>538.31</ele>
        <time>2017-10-10T13:47:07.000Z</time>
      </trkpt>
      <trkpt lat="44.73991" lon="5.37148">
        <ele>537.39</ele>
        <time>2017-10-10T13:47:17.000Z</time>
      </trkpt>
      <trkpt lat="44.73985" lon="5.37161">
        <ele>535.94</ele>
        <time>2017-10-10T13:47:27.000Z</time>
      </trkpt>
      <trkpt lat="44.73988" lon="5.37178">
        <ele>534.26</ele>
        <time>2017-10-10T13:47:37.000Z</time>
      </trkpt>
      <trkpt lat="44.73986" lon="5.37191">
        <ele>531.85</ele>
        <time>2017-10-10T13:47:47.000Z</time>
      </trkpt>
      <trkpt lat="44.73985" lon="5.37208">
        <ele>528.68</ele>
        <time>2017-10-10T13:47:57.000Z</time>
      </trkpt>
      <trkpt lat="44.73985" lon="5.37224">
        <ele>525.54</ele>
        <time>2017-10-10T13:48:07.000Z</time>
      </trkpt>
      <trkpt lat="44.7398" lon="5.37238">
        <ele>522.42</ele>
        <time>2017-10-10T13:48:18.000Z</time>
      </trkpt>
      <trkpt lat="44.73975" lon="5.37254">
        <ele>519.31</ele>
        <time>2017-10-10T13:48:28.000Z</time>
      </trkpt>
      <trkpt lat="44.73976" lon="5.37273">
        <ele>516.44</ele>
        <time>2017-10-10T13:48:38.000Z</time>
      </trkpt>
      <trkpt lat="44.73972" lon="5.37298">
        <ele>512.41</ele>
        <time>2017-10-10T13:48:48.000Z</time>
      </trkpt>
      <trkpt lat="44.73976" lon="5.37311">
        <ele>510.93</ele>
        <time>2017-10-10T13:48:58.000Z</time>
      </trkpt>
      <trkpt lat="44.73983" lon="5.37322">
        <ele>510.1</ele>
        <time>2017-10-10T13:49:08.000Z</time>
      </trkpt>
      <trkpt lat="44.7399" lon="5.37331">
        <ele>509.45</ele>
        <time>2017-10-10T13:49:18.000Z</time>
      </trkpt>
      <trkpt lat="44.73992" lon="5.37349">
        <ele>507.02</ele>
        <time>2017-10-10T13:49:28.000Z</time>
      </trkpt>
      <trkpt lat="44.74" lon="5.37364">
        <ele>504.79</ele>
        <time>2017-10-10T13:49:38.000Z</time>
      </trkpt>
      <trkpt lat="44.74009" lon="5.37379">
        <ele>502.31</ele>
        <time>2017-10-10T13:49:48.000Z</time>
      </trkpt>
      <trkpt lat="44.74018" lon="5.37392">
        <ele>499.98</ele>
        <time>2017-10-10T13:49:58.000Z</time>
      </trkpt>
      <trkpt lat="44.74027" lon="5.37399">
        <ele>498.73</ele>
        <time>2017-10-10T13:50:08.000Z</time>
      </trkpt>
      <trkpt lat="44.74038" lon="5.37401">
        <ele>498.74</ele>
        <time>2017-10-10T13:50:18.000Z</time>
      </trkpt>
      <trkpt lat="44.74047" lon="5.37409">
        <ele>497.29</ele>
        <time>2017-10-10T13:50:28.000Z</time>
      </trkpt>
      <trkpt lat="44.74055" lon="5.37421">
        <ele>494.63</ele>
        <time>2017-10-10T13:50:38.000Z</time>
      </trkpt>
      <trkpt lat="44.74065" lon="5.3743">
        <ele>493.12</ele>
        <time>2017-10-10T13:50:48.000Z</time>
      </trkpt>
      <trkpt lat="44.74073" lon="5.37435">
        <ele>492</ele>
        <time>2017-10-10T13:50:58.000Z</time>
      </trkpt>
      <trkpt lat="44.74083" lon="5.37441">
        <ele>491.08</ele>
        <time>2017-10-10T13:51:08.000Z</time>
      </trkpt>
      <trkpt lat="44.74093" lon="5.37445">
        <ele>490.88</ele>
        <time>2017-10-10T13:51:18.000Z</time>
      </trkpt>
      <trkpt lat="44.74105" lon="5.37445">
        <ele>492.22</ele>
        <time>2017-10-10T13:51:28.000Z</time>
      </trkpt>
      <trkpt lat="44.74116" lon="5.37459">
        <ele>489.3</ele>
        <time>2017-10-10T13:51:38.000Z</time>
      </trkpt>
      <trkpt lat="44.74125" lon="5.37468">
        <ele>487.09</ele>
        <time>2017-10-10T13:51:48.000Z</time>
      </trkpt>
      <trkpt lat="44.74139" lon="5.37472">
        <ele>487.09</ele>
        <time>2017-10-10T13:51:59.000Z</time>
      </trkpt>
      <trkpt lat="44.74147" lon="5.37478">
        <ele>485.74</ele>
        <time>2017-10-10T13:52:09.000Z</time>
      </trkpt>
      <trkpt lat="44.74157" lon="5.3749">
        <ele>481.8</ele>
        <time>2017-10-10T13:52:19.000Z</time>
      </trkpt>
      <trkpt lat="44.74167" lon="5.37496">
        <ele>480.33</ele>
        <time>2017-10-10T13:52:29.000Z</time>
      </trkpt>
      <trkpt lat="44.74174" lon="5.37506">
        <ele>477.68</ele>
        <time>2017-10-10T13:52:39.000Z</time>
      </trkpt>
      <trkpt lat="44.74188" lon="5.37512">
        <ele>476.93</ele>
        <time>2017-10-10T13:52:49.000Z</time>
      </trkpt>
      <trkpt lat="44.74198" lon="5.37519">
        <ele>475.64</ele>
        <time>2017-10-10T13:52:59.000Z</time>
      </trkpt>
      <trkpt lat="44.74205" lon="5.37534">
        <ele>472.33</ele>
        <time>2017-10-10T13:53:09.000Z</time>
      </trkpt>
      <trkpt lat="44.74215" lon="5.37539">
        <ele>471.24</ele>
        <time>2017-10-10T13:53:19.000Z</time>
      </trkpt>
      <trkpt lat="44.74226" lon="5.37549">
        <ele>468.48</ele>
        <time>2017-10-10T13:53:29.000Z</time>
      </trkpt>
      <trkpt lat="44.74236" lon="5.37556">
        <ele>466.29</ele>
        <time>2017-10-10T13:53:39.000Z</time>
      </trkpt>
      <trkpt lat="44.74241" lon="5.37555">
        <ele>465.98</ele>
        <time>2017-10-10T13:53:49.000Z</time>
      </trkpt>
      <trkpt lat="44.74254" lon="5.37557">
        <ele>463.85</ele>
        <time>2017-10-10T13:53:59.000Z</time>
      </trkpt>
      <trkpt lat="44.74261" lon="5.37562">
        <ele>461.38</ele>
        <time>2017-10-10T13:54:09.000Z</time>
      </trkpt>
      <trkpt lat="44.74267" lon="5.37565">
        <ele>459.69</ele>
        <time>2017-10-10T13:54:19.000Z</time>
      </trkpt>
      <trkpt lat="44.74269" lon="5.37567">
        <ele>458.79</ele>
        <time>2017-10-10T13:54:29.000Z</time>
      </trkpt>
      <trkpt lat="44.74271" lon="5.3756">
        <ele>459.99</ele>
        <time>2017-10-10T13:54:39.000Z</time>
      </trkpt>
      <trkpt lat="44.74269" lon="5.37559">
        <ele>460.68</ele>
        <time>2017-10-10T13:54:49.000Z</time>
      </trkpt>
      <trkpt lat="44.74266" lon="5.37557">
        <ele>461.53</ele>
        <time>2017-10-10T13:54:59.000Z</time>
      </trkpt>
      <trkpt lat="44.74265" lon="5.37558">
        <ele>461.59</ele>
        <time>2017-10-10T13:55:09.000Z</time>
      </trkpt>
      <trkpt lat="44.74264" lon="5.3756">
        <ele>461.3</ele>
        <time>2017-10-10T13:55:59.000Z</time>
      </trkpt>
      <trkpt lat="44.74274" lon="5.37558">
        <ele>459.51</ele>
        <time>2017-10-10T13:56:09.000Z</time>
      </trkpt>
      <trkpt lat="44.74292" lon="5.37557">
        <ele>455.37</ele>
        <time>2017-10-10T13:56:19.000Z</time>
      </trkpt>
      <trkpt lat="44.74302" lon="5.37553">
        <ele>453.54</ele>
        <time>2017-10-10T13:56:29.000Z</time>
      </trkpt>
      <trkpt lat="44.7431" lon="5.37544">
        <ele>452.47</ele>
        <time>2017-10-10T13:56:39.000Z</time>
      </trkpt>
      <trkpt lat="44.74324" lon="5.37539">
        <ele>449.13</ele>
        <time>2017-10-10T13:56:49.000Z</time>
      </trkpt>
      <trkpt lat="44.74325" lon="5.37526">
        <ele>450</ele>
        <time>2017-10-10T13:56:59.000Z</time>
      </trkpt>
      <trkpt lat="44.74339" lon="5.37523">
        <ele>446.92</ele>
        <time>2017-10-10T13:57:09.000Z</time>
      </trkpt>
      <trkpt lat="44.74351" lon="5.37516">
        <ele>444.75</ele>
        <time>2017-10-10T13:57:19.000Z</time>
      </trkpt>
      <trkpt lat="44.74358" lon="5.37512">
        <ele>443.41</ele>
        <time>2017-10-10T13:57:29.000Z</time>
      </trkpt>
      <trkpt lat="44.74364" lon="5.37508">
        <ele>442.48</ele>
        <time>2017-10-10T13:57:39.000Z</time>
      </trkpt>
      <trkpt lat="44.74364" lon="5.37511">
        <ele>442.28</ele>
        <time>2017-10-10T13:57:49.000Z</time>
      </trkpt>
      <trkpt lat="44.74373" lon="5.37503">
        <ele>440.9</ele>
        <time>2017-10-10T13:57:59.000Z</time>
      </trkpt>
      <trkpt lat="44.74388" lon="5.37494">
        <ele>438.42</ele>
        <time>2017-10-10T13:58:09.000Z</time>
      </trkpt>
      <trkpt lat="44.74402" lon="5.37488">
        <ele>435.96</ele>
        <time>2017-10-10T13:58:19.000Z</time>
      </trkpt>
      <trkpt lat="44.74414" lon="5.37493">
        <ele>433.62</ele>
        <time>2017-10-10T13:58:29.000Z</time>
      </trkpt>
      <trkpt lat="44.74426" lon="5.37503">
        <ele>431.64</ele>
        <time>2017-10-10T13:58:39.000Z</time>
      </trkpt>
      <trkpt lat="44.74432" lon="5.37514">
        <ele>430.78</ele>
        <time>2017-10-10T13:58:50.000Z</time>
      </trkpt>
      <trkpt lat="44.74435" lon="5.37535">
        <ele>430.29</ele>
        <time>2017-10-10T13:59:00.000Z</time>
      </trkpt>
      <trkpt lat="44.74444" lon="5.37548">
        <ele>429.57</ele>
        <time>2017-10-10T13:59:10.000Z</time>
      </trkpt>
      <trkpt lat="44.74464" lon="5.37551">
        <ele>428.28</ele>
        <time>2017-10-10T13:59:20.000Z</time>
      </trkpt>
      <trkpt lat="44.74473" lon="5.37554">
        <ele>427.77</ele>
        <time>2017-10-10T13:59:30.000Z</time>
      </trkpt>
      <trkpt lat="44.74484" lon="5.37559">
        <ele>427.08</ele>
        <time>2017-10-10T13:59:40.000Z</time>
      </trkpt>
      <trkpt lat="44.74493" lon="5.37563">
        <ele>426.35</ele>
        <time>2017-10-10T13:59:50.000Z</time>
      </trkpt>
      <trkpt lat="44.74508" lon="5.37564">
        <ele>424.72</ele>
        <time>2017-10-10T14:00:00.000Z</time>
      </trkpt>
      <trkpt lat="44.74518" lon="5.37569">
        <ele>423.44</ele>
        <time>2017-10-10T14:00:10.000Z</time>
      </trkpt>
      <trkpt lat="44.74525" lon="5.37572">
        <ele>422.46</ele>
        <time>2017-10-10T14:00:20.000Z</time>
      </trkpt>
      <trkpt lat="44.74538" lon="5.37564">
        <ele>420.07</ele>
        <time>2017-10-10T14:00:30.000Z</time>
      </trkpt>
      <trkpt lat="44.74552" lon="5.37558">
        <ele>417.56</ele>
        <time>2017-10-10T14:00:40.000Z</time>
      </trkpt>
      <trkpt lat="44.74565" lon="5.37553">
        <ele>415.2</ele>
        <time>2017-10-10T14:00:50.000Z</time>
      </trkpt>
      <trkpt lat="44.74579" lon="5.3755">
        <ele>413.1</ele>
        <time>2017-10-10T14:01:00.000Z</time>
      </trkpt>
      <trkpt lat="44.74592" lon="5.37551">
        <ele>411.62</ele>
        <time>2017-10-10T14:01:10.000Z</time>
      </trkpt>
      <trkpt lat="44.74605" lon="5.37543">
        <ele>409.85</ele>
        <time>2017-10-10T14:01:20.000Z</time>
      </trkpt>
      <trkpt lat="44.74618" lon="5.37542">
        <ele>408.58</ele>
        <time>2017-10-10T14:01:30.000Z</time>
      </trkpt>
      <trkpt lat="44.74631" lon="5.37536">
        <ele>407.16</ele>
        <time>2017-10-10T14:01:40.000Z</time>
      </trkpt>
      <trkpt lat="44.74645" lon="5.37533">
        <ele>405.8</ele>
        <time>2017-10-10T14:01:50.000Z</time>
      </trkpt>
      <trkpt lat="44.74657" lon="5.37539">
        <ele>405.13</ele>
        <time>2017-10-10T14:02:00.000Z</time>
      </trkpt>
      <trkpt lat="44.74673" lon="5.37541">
        <ele>404.14</ele>
        <time>2017-10-10T14:02:11.000Z</time>
      </trkpt>
      <trkpt lat="44.74685" lon="5.37546">
        <ele>403.63</ele>
        <time>2017-10-10T14:02:21.000Z</time>
      </trkpt>
      <trkpt lat="44.74694" lon="5.37555">
        <ele>403.49</ele>
        <time>2017-10-10T14:02:31.000Z</time>
      </trkpt>
      <trkpt lat="44.74711" lon="5.37559">
        <ele>402.83</ele>
        <time>2017-10-10T14:02:41.000Z</time>
      </trkpt>
      <trkpt lat="44.74725" lon="5.37569">
        <ele>402.54</ele>
        <time>2017-10-10T14:02:51.000Z</time>
      </trkpt>
      <trkpt lat="44.74736" lon="5.37583">
        <ele>402.45</ele>
        <time>2017-10-10T14:03:01.000Z</time>
      </trkpt>
      <trkpt lat="44.74746" lon="5.3759">
        <ele>402.19</ele>
        <time>2017-10-10T14:03:11.000Z</time>
      </trkpt>
      <trkpt lat="44.74753" lon="5.37598">
        <ele>402.03</ele>
        <time>2017-10-10T14:03:21.000Z</time>
      </trkpt>
      <trkpt lat="44.74769" lon="5.37593">
        <ele>401.52</ele>
        <time>2017-10-10T14:03:31.000Z</time>
      </trkpt>
      <trkpt lat="44.7478" lon="5.37588">
        <ele>401.22</ele>
        <time>2017-10-10T14:03:41.000Z</time>
      </trkpt>
      <trkpt lat="44.74789" lon="5.37583">
        <ele>400.97</ele>
        <time>2017-10-10T14:03:51.000Z</time>
      </trkpt>
      <trkpt lat="44.748" lon="5.37593">
        <ele>400.88</ele>
        <time>2017-10-10T14:04:01.000Z</time>
      </trkpt>
      <trkpt lat="44.74811" lon="5.37596">
        <ele>400.83</ele>
        <time>2017-10-10T14:04:11.000Z</time>
      </trkpt>
      <trkpt lat="44.74826" lon="5.37604">
        <ele>400.94</ele>
        <time>2017-10-10T14:04:22.000Z</time>
      </trkpt>
      <trkpt lat="44.74834" lon="5.37602">
        <ele>401.07</ele>
        <time>2017-10-10T14:04:32.000Z</time>
      </trkpt>
      <trkpt lat="44.74833" lon="5.37607">
        <ele>401.07</ele>
        <time>2017-10-10T14:04:50.000Z</time>
      </trkpt>
      <trkpt lat="44.7483" lon="5.376">
        <ele>401</ele>
        <time>2017-10-10T14:05:00.000Z</time>
      </trkpt>
      <trkpt lat="44.74834" lon="5.37604">
        <ele>401.08</ele>
        <time>2017-10-10T14:05:11.000Z</time>
      </trkpt>
      <trkpt lat="44.74849" lon="5.37604">
        <ele>401.58</ele>
        <time>2017-10-10T14:05:21.000Z</time>
      </trkpt>
      <trkpt lat="44.74859" lon="5.3761">
        <ele>401.96</ele>
        <time>2017-10-10T14:05:31.000Z</time>
      </trkpt>
      <trkpt lat="44.74869" lon="5.37606">
        <ele>402.51</ele>
        <time>2017-10-10T14:05:41.000Z</time>
      </trkpt>
      <trkpt lat="44.74878" lon="5.37592">
        <ele>403.19</ele>
        <time>2017-10-10T14:05:52.000Z</time>
      </trkpt>
      <trkpt lat="44.74877" lon="5.37578">
        <ele>402.97</ele>
        <time>2017-10-10T14:06:02.000Z</time>
      </trkpt>
      <trkpt lat="44.7488" lon="5.37561">
        <ele>402.78</ele>
        <time>2017-10-10T14:06:12.000Z</time>
      </trkpt>
      <trkpt lat="44.74881" lon="5.37548">
        <ele>402.45</ele>
        <time>2017-10-10T14:06:22.000Z</time>
      </trkpt>
      <trkpt lat="44.74877" lon="5.37531">
        <ele>401.6</ele>
        <time>2017-10-10T14:06:32.000Z</time>
      </trkpt>
      <trkpt lat="44.74885" lon="5.37512">
        <ele>401.13</ele>
        <time>2017-10-10T14:06:42.000Z</time>
      </trkpt>
      <trkpt lat="44.74879" lon="5.37495">
        <ele>400.43</ele>
        <time>2017-10-10T14:06:52.000Z</time>
      </trkpt>
      <trkpt lat="44.74884" lon="5.37474">
        <ele>399.9</ele>
        <time>2017-10-10T14:07:02.000Z</time>
      </trkpt>
      <trkpt lat="44.74891" lon="5.37463">
        <ele>399.77</ele>
        <time>2017-10-10T14:07:12.000Z</time>
      </trkpt>
      <trkpt lat="44.74893" lon="5.3745">
        <ele>399.49</ele>
        <time>2017-10-10T14:07:22.000Z</time>
      </trkpt>
      <trkpt lat="44.74894" lon="5.37431">
        <ele>399.18</ele>
        <time>2017-10-10T14:07:32.000Z</time>
      </trkpt>
      <trkpt lat="44.74898" lon="5.37421">
        <ele>399.16</ele>
        <time>2017-10-10T14:07:42.000Z</time>
      </trkpt>
      <trkpt lat="44.74901" lon="5.37408">
        <ele>399.18</ele>
        <time>2017-10-10T14:07:52.000Z</time>
      </trkpt>
      <trkpt lat="44.74902" lon="5.37392">
        <ele>399.2</ele>
        <time>2017-10-10T14:08:02.000Z</time>
      </trkpt>
      <trkpt lat="44.74897" lon="5.37374">
        <ele>399.14</ele>
        <time>2017-10-10T14:08:13.000Z</time>
      </trkpt>
      <trkpt lat="44.74899" lon="5.37356">
        <ele>399.34</ele>
        <time>2017-10-10T14:08:23.000Z</time>
      </trkpt>
      <trkpt lat="44.74896" lon="5.37339">
        <ele>399.46</ele>
        <time>2017-10-10T14:08:33.000Z</time>
      </trkpt>
      <trkpt lat="44.74899" lon="5.37315">
        <ele>399.82</ele>
        <time>2017-10-10T14:08:43.000Z</time>
      </trkpt>
      <trkpt lat="44.74905" lon="5.373">
        <ele>400.21</ele>
        <time>2017-10-10T14:08:53.000Z</time>
      </trkpt>
      <trkpt lat="44.74898" lon="5.37284">
        <ele>400.36</ele>
        <time>2017-10-10T14:09:03.000Z</time>
      </trkpt>
      <trkpt lat="44.749" lon="5.37269">
        <ele>400.59</ele>
        <time>2017-10-10T14:09:13.000Z</time>
      </trkpt>
      <trkpt lat="44.74904" lon="5.37253">
        <ele>400.75</ele>
        <time>2017-10-10T14:09:23.000Z</time>
      </trkpt>
      <trkpt lat="44.749" lon="5.37234">
        <ele>400.46</ele>
        <time>2017-10-10T14:09:33.000Z</time>
      </trkpt>
      <trkpt lat="44.74896" lon="5.37219">
        <ele>400.05</ele>
        <time>2017-10-10T14:09:43.000Z</time>
      </trkpt>
      <trkpt lat="44.74897" lon="5.37213">
        <ele>399.94</ele>
        <time>2017-10-10T14:09:53.000Z</time>
      </trkpt>
      <trkpt lat="44.74894" lon="5.37205">
        <ele>399.64</ele>
        <time>2017-10-10T14:10:03.000Z</time>
      </trkpt>
      <trkpt lat="44.74888" lon="5.37192">
        <ele>399.19</ele>
        <time>2017-10-10T14:10:13.000Z</time>
      </trkpt>
      <trkpt lat="44.74883" lon="5.37176">
        <ele>398.73</ele>
        <time>2017-10-10T14:10:23.000Z</time>
      </trkpt>
      <trkpt lat="44.7488" lon="5.37157">
        <ele>398.35</ele>
        <time>2017-10-10T14:10:33.000Z</time>
      </trkpt>
      <trkpt lat="44.74883" lon="5.37138">
        <ele>398.12</ele>
        <time>2017-10-10T14:10:43.000Z</time>
      </trkpt>
      <trkpt lat="44.74878" lon="5.37119">
        <ele>397.83</ele>
        <time>2017-10-10T14:10:53.000Z</time>
      </trkpt>
      <trkpt lat="44.74874" lon="5.37106">
        <ele>397.63</ele>
        <time>2017-10-10T14:11:03.000Z</time>
      </trkpt>
      <trkpt lat="44.74872" lon="5.37096">
        <ele>397.5</ele>
        <time>2017-10-10T14:11:13.000Z</time>
      </trkpt>
      <trkpt lat="44.74866" lon="5.37082">
        <ele>397.24</ele>
        <time>2017-10-10T14:11:23.000Z</time>
      </trkpt>
      <trkpt lat="44.74865" lon="5.37065">
        <ele>397.01</ele>
        <time>2017-10-10T14:11:33.000Z</time>
      </trkpt>
      <trkpt lat="44.74862" lon="5.37046">
        <ele>396.7</ele>
        <time>2017-10-10T14:11:43.000Z</time>
      </trkpt>
      <trkpt lat="44.74859" lon="5.37031">
        <ele>396.44</ele>
        <time>2017-10-10T14:11:53.000Z</time>
      </trkpt>
      <trkpt lat="44.74857" lon="5.37014">
        <ele>396.21</ele>
        <time>2017-10-10T14:12:03.000Z</time>
      </trkpt>
      <trkpt lat="44.74854" lon="5.36998">
        <ele>396.04</ele>
        <time>2017-10-10T14:12:13.000Z</time>
      </trkpt>
      <trkpt lat="44.74848" lon="5.36976">
        <ele>395.86</ele>
        <time>2017-10-10T14:12:23.000Z</time>
      </trkpt>
      <trkpt lat="44.74846" lon="5.36958">
        <ele>395.78</ele>
        <time>2017-10-10T14:12:33.000Z</time>
      </trkpt>
      <trkpt lat="44.7485" lon="5.36944">
        <ele>395.83</ele>
        <time>2017-10-10T14:12:43.000Z</time>
      </trkpt>
      <trkpt lat="44.74856" lon="5.36927">
        <ele>396.06</ele>
        <time>2017-10-10T14:12:53.000Z</time>
      </trkpt>
      <trkpt lat="44.74866" lon="5.36918">
        <ele>396.44</ele>
        <time>2017-10-10T14:13:03.000Z</time>
      </trkpt>
      <trkpt lat="44.74873" lon="5.36903">
        <ele>396.8</ele>
        <time>2017-10-10T14:13:13.000Z</time>
      </trkpt>
      <trkpt lat="44.74879" lon="5.36888">
        <ele>397.07</ele>
        <time>2017-10-10T14:13:23.000Z</time>
      </trkpt>
      <trkpt lat="44.74877" lon="5.36885">
        <ele>397</ele>
        <time>2017-10-10T14:13:33.000Z</time>
      </trkpt>
      <trkpt lat="44.7488" lon="5.36879">
        <ele>397.17</ele>
        <time>2017-10-10T14:13:43.000Z</time>
      </trkpt>
      <trkpt lat="44.74881" lon="5.36878">
        <ele>397.2</ele>
        <time>2017-10-10T14:13:53.000Z</time>
      </trkpt>
      <trkpt lat="44.74884" lon="5.36868">
        <ele>397.37</ele>
        <time>2017-10-10T14:14:03.000Z</time>
      </trkpt>
      <trkpt lat="44.74891" lon="5.36845">
        <ele>397.76</ele>
        <time>2017-10-10T14:14:13.000Z</time>
      </trkpt>
      <trkpt lat="44.749" lon="5.36836">
        <ele>397.99</ele>
        <time>2017-10-10T14:14:23.000Z</time>
      </trkpt>
      <trkpt lat="44.74915" lon="5.36829">
        <ele>397.96</ele>
        <time>2017-10-10T14:14:33.000Z</time>
      </trkpt>
      <trkpt lat="44.7492" lon="5.36817">
        <ele>397.58</ele>
        <time>2017-10-10T14:14:43.000Z</time>
      </trkpt>
      <trkpt lat="44.74924" lon="5.36802">
        <ele>397.01</ele>
        <time>2017-10-10T14:14:54.000Z</time>
      </trkpt>
      <trkpt lat="44.74935" lon="5.36786">
        <ele>396.23</ele>
        <time>2017-10-10T14:15:04.000Z</time>
      </trkpt>
      <trkpt lat="44.74936" lon="5.36778">
        <ele>395.92</ele>
        <time>2017-10-10T14:15:14.000Z</time>
      </trkpt>
      <trkpt lat="44.74941" lon="5.36764">
        <ele>395.52</ele>
        <time>2017-10-10T14:15:24.000Z</time>
      </trkpt>
      <trkpt lat="44.74951" lon="5.36754">
        <ele>395.57</ele>
        <time>2017-10-10T14:15:34.000Z</time>
      </trkpt>
      <trkpt lat="44.74959" lon="5.36749">
        <ele>395.82</ele>
        <time>2017-10-10T14:15:44.000Z</time>
      </trkpt>
      <trkpt lat="44.74956" lon="5.3674">
        <ele>395.57</ele>
        <time>2017-10-10T14:15:54.000Z</time>
      </trkpt>
      <trkpt lat="44.74958" lon="5.36742">
        <ele>395.68</ele>
        <time>2017-10-10T14:16:04.000Z</time>
      </trkpt>
      <trkpt lat="44.74959" lon="5.36743">
        <ele>395.76</ele>
        <time>2017-10-10T14:16:14.000Z</time>
      </trkpt>
      <trkpt lat="44.7496" lon="5.36742">
        <ele>395.79</ele>
        <time>2017-10-10T14:16:43.000Z</time>
      </trkpt>
      <trkpt lat="44.74961" lon="5.3674">
        <ele>395.81</ele>
        <time>2017-10-10T14:16:53.000Z</time>
      </trkpt>
      <trkpt lat="44.7496" lon="5.36743">
        <ele>395.78</ele>
        <time>2017-10-10T14:17:17.000Z</time>
      </trkpt>
      <trkpt lat="44.74959" lon="5.36758">
        <ele>395.95</ele>
        <time>2017-10-10T14:17:29.000Z</time>
      </trkpt>
      <trkpt lat="44.74968" lon="5.36771">
        <ele>396.57</ele>
        <time>2017-10-10T14:17:42.000Z</time>
      </trkpt>
      <trkpt lat="44.74972" lon="5.36759">
        <ele>396.67</ele>
        <time>2017-10-10T14:17:52.000Z</time>
      </trkpt>
      <trkpt lat="44.74988" lon="5.36753">
        <ele>397.49</ele>
        <time>2017-10-10T14:18:05.000Z</time>
      </trkpt>
      <trkpt lat="44.74996" lon="5.36757">
        <ele>397.9</ele>
        <time>2017-10-10T14:18:15.000Z</time>
      </trkpt>
      <trkpt lat="44.75007" lon="5.36761">
        <ele>398.31</ele>
        <time>2017-10-10T14:18:25.000Z</time>
      </trkpt>
      <trkpt lat="44.7502" lon="5.36758">
        <ele>398.86</ele>
        <time>2017-10-10T14:18:35.000Z</time>
      </trkpt>
      <trkpt lat="44.75028" lon="5.36761">
        <ele>399.26</ele>
        <time>2017-10-10T14:18:45.000Z</time>
      </trkpt>
      <trkpt lat="44.75037" lon="5.3676">
        <ele>399.67</ele>
        <time>2017-10-10T14:18:55.000Z</time>
      </trkpt>
      <trkpt lat="44.75049" lon="5.36757">
        <ele>400.34</ele>
        <time>2017-10-10T14:19:05.000Z</time>
      </trkpt>
      <trkpt lat="44.75058" lon="5.36752">
        <ele>400.77</ele>
        <time>2017-10-10T14:19:15.000Z</time>
      </trkpt>
      <trkpt lat="44.75071" lon="5.36767">
        <ele>401.3</ele>
        <time>2017-10-10T14:19:25.000Z</time>
      </trkpt>
      <trkpt lat="44.7508" lon="5.36772">
        <ele>401.65</ele>
        <time>2017-10-10T14:19:35.000Z</time>
      </trkpt>
      <trkpt lat="44.75084" lon="5.36778">
        <ele>401.73</ele>
        <time>2017-10-10T14:19:46.000Z</time>
      </trkpt>
      <trkpt lat="44.75092" lon="5.36793">
        <ele>401.83</ele>
        <time>2017-10-10T14:19:56.000Z</time>
      </trkpt>
      <trkpt lat="44.751" lon="5.36807">
        <ele>402.02</ele>
        <time>2017-10-10T14:20:06.000Z</time>
      </trkpt>
      <trkpt lat="44.75105" lon="5.36818">
        <ele>402.15</ele>
        <time>2017-10-10T14:20:16.000Z</time>
      </trkpt>
      <trkpt lat="44.75118" lon="5.3683">
        <ele>402.89</ele>
        <time>2017-10-10T14:20:26.000Z</time>
      </trkpt>
      <trkpt lat="44.75122" lon="5.36844">
        <ele>403.46</ele>
        <time>2017-10-10T14:20:36.000Z</time>
      </trkpt>
      <trkpt lat="44.75126" lon="5.36858">
        <ele>404.2</ele>
        <time>2017-10-10T14:20:46.000Z</time>
      </trkpt>
      <trkpt lat="44.7513" lon="5.36864">
        <ele>404.69</ele>
        <time>2017-10-10T14:20:56.000Z</time>
      </trkpt>
      <trkpt lat="44.75134" lon="5.36872">
        <ele>405.38</ele>
        <time>2017-10-10T14:21:06.000Z</time>
      </trkpt>
      <trkpt lat="44.75136" lon="5.36887">
        <ele>406.37</ele>
        <time>2017-10-10T14:21:16.000Z</time>
      </trkpt>
      <trkpt lat="44.75144" lon="5.36897">
        <ele>407.65</ele>
        <time>2017-10-10T14:21:26.000Z</time>
      </trkpt>
      <trkpt lat="44.75142" lon="5.36903">
        <ele>407.86</ele>
        <time>2017-10-10T14:21:36.000Z</time>
      </trkpt>
      <trkpt lat="44.75134" lon="5.36924">
        <ele>408.4</ele>
        <time>2017-10-10T14:21:46.000Z</time>
      </trkpt>
      <trkpt lat="44.75137" lon="5.36943">
        <ele>410.24</ele>
        <time>2017-10-10T14:21:56.000Z</time>
      </trkpt>
      <trkpt lat="44.75131" lon="5.36954">
        <ele>410.42</ele>
        <time>2017-10-10T14:22:06.000Z</time>
      </trkpt>
      <trkpt lat="44.75121" lon="5.36964">
        <ele>409.79</ele>
        <time>2017-10-10T14:22:16.000Z</time>
      </trkpt>
      <trkpt lat="44.75105" lon="5.36986">
        <ele>408.73</ele>
        <time>2017-10-10T14:22:26.000Z</time>
      </trkpt>
      <trkpt lat="44.751" lon="5.37004">
        <ele>408.49</ele>
        <time>2017-10-10T14:22:36.000Z</time>
      </trkpt>
      <trkpt lat="44.75097" lon="5.3701">
        <ele>408.21</ele>
        <time>2017-10-10T14:22:46.000Z</time>
      </trkpt>
      <trkpt lat="44.75092" lon="5.37026">
        <ele>407.71</ele>
        <time>2017-10-10T14:22:57.000Z</time>
      </trkpt>
      <trkpt lat="44.75088" lon="5.37039">
        <ele>407.4</ele>
        <time>2017-10-10T14:23:07.000Z</time>
      </trkpt>
      <trkpt lat="44.75091" lon="5.37055">
        <ele>407.89</ele>
        <time>2017-10-10T14:23:17.000Z</time>
      </trkpt>
      <trkpt lat="44.75086" lon="5.37069">
        <ele>407.36</ele>
        <time>2017-10-10T14:23:27.000Z</time>
      </trkpt>
      <trkpt lat="44.75085" lon="5.37088">
        <ele>407.18</ele>
        <time>2017-10-10T14:23:37.000Z</time>
      </trkpt>
      <trkpt lat="44.75087" lon="5.37099">
        <ele>407.23</ele>
        <time>2017-10-10T14:23:47.000Z</time>
      </trkpt>
      <trkpt lat="44.75088" lon="5.3711">
        <ele>407.13</ele>
        <time>2017-10-10T14:23:57.000Z</time>
      </trkpt>
      <trkpt lat="44.75087" lon="5.37132">
        <ele>406.46</ele>
        <time>2017-10-10T14:24:07.000Z</time>
      </trkpt>
      <trkpt lat="44.751" lon="5.37142">
        <ele>407.89</ele>
        <time>2017-10-10T14:24:17.000Z</time>
      </trkpt>
      <trkpt lat="44.75104" lon="5.3715">
        <ele>408.05</ele>
        <time>2017-10-10T14:24:27.000Z</time>
      </trkpt>
      <trkpt lat="44.75106" lon="5.37163">
        <ele>407.86</ele>
        <time>2017-10-10T14:24:37.000Z</time>
      </trkpt>
      <trkpt lat="44.7511" lon="5.37178">
        <ele>407.83</ele>
        <time>2017-10-10T14:24:47.000Z</time>
      </trkpt>
      <trkpt lat="44.75126" lon="5.37181">
        <ele>409.98</ele>
        <time>2017-10-10T14:24:57.000Z</time>
      </trkpt>
      <trkpt lat="44.75135" lon="5.37197">
        <ele>410.12</ele>
        <time>2017-10-10T14:25:07.000Z</time>
      </trkpt>
      <trkpt lat="44.7514" lon="5.37209">
        <ele>409.92</ele>
        <time>2017-10-10T14:25:17.000Z</time>
      </trkpt>
      <trkpt lat="44.75146" lon="5.3722">
        <ele>409.68</ele>
        <time>2017-10-10T14:25:27.000Z</time>
      </trkpt>
      <trkpt lat="44.75146" lon="5.37234">
        <ele>408.78</ele>
        <time>2017-10-10T14:25:37.000Z</time>
      </trkpt>
      <trkpt lat="44.75153" lon="5.37249">
        <ele>408.62</ele>
        <time>2017-10-10T14:25:47.000Z</time>
      </trkpt>
      <trkpt lat="44.7515" lon="5.37264">
        <ele>407.48</ele>
        <time>2017-10-10T14:25:57.000Z</time>
      </trkpt>
      <trkpt lat="44.75148" lon="5.37275">
        <ele>406.67</ele>
        <time>2017-10-10T14:26:07.000Z</time>
      </trkpt>
      <trkpt lat="44.75142" lon="5.37278">
        <ele>406.04</ele>
        <time>2017-10-10T14:26:17.000Z</time>
      </trkpt>
      <trkpt lat="44.75135" lon="5.37288">
        <ele>405.15</ele>
        <time>2017-10-10T14:26:27.000Z</time>
      </trkpt>
      <trkpt lat="44.75127" lon="5.37298">
        <ele>404.48</ele>
        <time>2017-10-10T14:26:37.000Z</time>
      </trkpt>
      <trkpt lat="44.75129" lon="5.37312">
        <ele>404.52</ele>
        <time>2017-10-10T14:26:48.000Z</time>
      </trkpt>
      <trkpt lat="44.75126" lon="5.37318">
        <ele>404.41</ele>
        <time>2017-10-10T14:26:58.000Z</time>
      </trkpt>
      <trkpt lat="44.75121" lon="5.37316">
        <ele>404.25</ele>
        <time>2017-10-10T14:27:08.000Z</time>
      </trkpt>
      <trkpt lat="44.7512" lon="5.3732">
        <ele>404.24</ele>
        <time>2017-10-10T14:27:18.000Z</time>
      </trkpt>
      <trkpt lat="44.7512" lon="5.37319">
        <ele>404.23</ele>
        <time>2017-10-10T14:27:30.000Z</time>
      </trkpt>
      <trkpt lat="44.75119" lon="5.37318">
        <ele>404.21</ele>
        <time>2017-10-10T14:28:30.000Z</time>
      </trkpt>
    </trkseg>
  </trk>
</gpx>